<?xml version="1.0" encoding="UTF-8" standalone="no" ?>
<gpx xmlns="http://www.topografix.com/GPX/1/1" xmlns:xsi="http://www.w3.org/2001/XMLSchema-instance" xsi:schemaLocation="http://www.topografix.com/GPX/1/1 http://www.topografix.com/GPX/1/1/gpx.xsd" version="1.1" creator="VisuGPX - https://www.visugpx.com">
  <metadata>
    <name>Le truc</name>
    <desc><![CDATA[
]]></desc>
  </metadata>
  <trk>
    <name><![CDATA[Le truc_1]]></name>
    <extensions>
      <line xmlns="http://www.topografix.com/GPX/gpx_style/0/2">
        <color>0000FF</color>
        <width>4</width>
      </line>
    </extensions>
    <trkseg>
      <trkpt lat="45.28187" lon="5.88684">
        <ele>240.44099426269</ele>
        <time>2017-10-08T03:48:12Z</time>
      </trkpt>
      <trkpt lat="45.28189" lon="5.8869">
        <ele>240.44099426269</ele>
        <time>2017-10-08T03:48:13Z</time>
      </trkpt>
      <trkpt lat="45.28206" lon="5.887">
        <ele>242.44099426269</ele>
        <time>2017-10-08T03:48:16Z</time>
      </trkpt>
      <trkpt lat="45.28214" lon="5.88715">
        <ele>243.44099426269</ele>
        <time>2017-10-08T03:48:18Z</time>
      </trkpt>
      <trkpt lat="45.28226" lon="5.88726">
        <ele>242.44099426269</ele>
        <time>2017-10-08T03:48:21Z</time>
      </trkpt>
      <trkpt lat="45.28233" lon="5.88732">
        <ele>240.44099426269</ele>
        <time>2017-10-08T03:48:23Z</time>
      </trkpt>
      <trkpt lat="45.2824" lon="5.88744">
        <ele>242.44099426269</ele>
        <time>2017-10-08T03:48:25Z</time>
      </trkpt>
      <trkpt lat="45.28245" lon="5.88748">
        <ele>246.44099426269</ele>
        <time>2017-10-08T03:48:26Z</time>
      </trkpt>
      <trkpt lat="45.28254" lon="5.88753">
        <ele>250.44099426269</ele>
        <time>2017-10-08T03:48:28Z</time>
      </trkpt>
      <trkpt lat="45.2827" lon="5.88762">
        <ele>251.44099426269</ele>
        <time>2017-10-08T03:48:31Z</time>
      </trkpt>
      <trkpt lat="45.28279" lon="5.8877">
        <ele>253.44099426269</ele>
        <time>2017-10-08T03:48:33Z</time>
      </trkpt>
      <trkpt lat="45.2829" lon="5.88776">
        <ele>256.44100952148</ele>
        <time>2017-10-08T03:48:35Z</time>
      </trkpt>
      <trkpt lat="45.28296" lon="5.8878">
        <ele>257.44100952148</ele>
        <time>2017-10-08T03:48:36Z</time>
      </trkpt>
      <trkpt lat="45.28308" lon="5.88788">
        <ele>256.44100952148</ele>
        <time>2017-10-08T03:48:39Z</time>
      </trkpt>
      <trkpt lat="45.2832" lon="5.88794">
        <ele>257.44100952148</ele>
        <time>2017-10-08T03:48:42Z</time>
      </trkpt>
      <trkpt lat="45.28326" lon="5.88797">
        <ele>257.44100952148</ele>
        <time>2017-10-08T03:48:44Z</time>
      </trkpt>
      <trkpt lat="45.2833" lon="5.88799">
        <ele>257.44100952148</ele>
        <time>2017-10-08T03:48:46Z</time>
      </trkpt>
      <trkpt lat="45.28335" lon="5.88802">
        <ele>254.44099426269</ele>
        <time>2017-10-08T03:48:49Z</time>
      </trkpt>
      <trkpt lat="45.28341" lon="5.88806">
        <ele>256.44100952148</ele>
        <time>2017-10-08T03:48:51Z</time>
      </trkpt>
      <trkpt lat="45.28349" lon="5.88813">
        <ele>255.44200134277</ele>
        <time>2017-10-08T03:48:53Z</time>
      </trkpt>
      <trkpt lat="45.28355" lon="5.88815">
        <ele>254.44200134277</ele>
        <time>2017-10-08T03:48:55Z</time>
      </trkpt>
      <trkpt lat="45.28363" lon="5.88823">
        <ele>252.44200134277</ele>
        <time>2017-10-08T03:48:57Z</time>
      </trkpt>
      <trkpt lat="45.28369" lon="5.88828">
        <ele>253.44200134277</ele>
        <time>2017-10-08T03:48:59Z</time>
      </trkpt>
      <trkpt lat="45.28377" lon="5.88828">
        <ele>251.44200134277</ele>
        <time>2017-10-08T03:49:01Z</time>
      </trkpt>
      <trkpt lat="45.28386" lon="5.8883">
        <ele>254.44200134277</ele>
        <time>2017-10-08T03:49:04Z</time>
      </trkpt>
      <trkpt lat="45.28395" lon="5.88827">
        <ele>252.44200134277</ele>
        <time>2017-10-08T03:49:06Z</time>
      </trkpt>
      <trkpt lat="45.28402" lon="5.88821">
        <ele>251.44200134277</ele>
        <time>2017-10-08T03:49:08Z</time>
      </trkpt>
      <trkpt lat="45.28412" lon="5.88812">
        <ele>248.44200134277</ele>
        <time>2017-10-08T03:49:10Z</time>
      </trkpt>
      <trkpt lat="45.28416" lon="5.88802">
        <ele>248.44200134277</ele>
        <time>2017-10-08T03:49:12Z</time>
      </trkpt>
      <trkpt lat="45.28429" lon="5.88788">
        <ele>249.44200134277</ele>
        <time>2017-10-08T03:49:15Z</time>
      </trkpt>
      <trkpt lat="45.2844" lon="5.88777">
        <ele>248.44200134277</ele>
        <time>2017-10-08T03:49:18Z</time>
      </trkpt>
      <trkpt lat="45.28451" lon="5.88765">
        <ele>249.44200134277</ele>
        <time>2017-10-08T03:49:21Z</time>
      </trkpt>
      <trkpt lat="45.28457" lon="5.88756">
        <ele>248.44200134277</ele>
        <time>2017-10-08T03:49:23Z</time>
      </trkpt>
      <trkpt lat="45.28462" lon="5.88748">
        <ele>247.44200134277</ele>
        <time>2017-10-08T03:49:25Z</time>
      </trkpt>
      <trkpt lat="45.28466" lon="5.88739">
        <ele>244.44200134277</ele>
        <time>2017-10-08T03:49:27Z</time>
      </trkpt>
      <trkpt lat="45.28473" lon="5.8873">
        <ele>246.44200134277</ele>
        <time>2017-10-08T03:49:29Z</time>
      </trkpt>
      <trkpt lat="45.28481" lon="5.88722">
        <ele>247.44200134277</ele>
        <time>2017-10-08T03:49:31Z</time>
      </trkpt>
      <trkpt lat="45.28486" lon="5.88716">
        <ele>247.44200134277</ele>
        <time>2017-10-08T03:49:32Z</time>
      </trkpt>
      <trkpt lat="45.28499" lon="5.88707">
        <ele>248.44200134277</ele>
        <time>2017-10-08T03:49:35Z</time>
      </trkpt>
      <trkpt lat="45.28506" lon="5.887">
        <ele>249.44200134277</ele>
        <time>2017-10-08T03:49:37Z</time>
      </trkpt>
      <trkpt lat="45.28512" lon="5.88692">
        <ele>249.44200134277</ele>
        <time>2017-10-08T03:49:39Z</time>
      </trkpt>
      <trkpt lat="45.2852" lon="5.88685">
        <ele>251.44200134277</ele>
        <time>2017-10-08T03:49:41Z</time>
      </trkpt>
      <trkpt lat="45.28528" lon="5.88681">
        <ele>254.44200134277</ele>
        <time>2017-10-08T03:49:43Z</time>
      </trkpt>
      <trkpt lat="45.28535" lon="5.88683">
        <ele>254.44200134277</ele>
        <time>2017-10-08T03:49:45Z</time>
      </trkpt>
      <trkpt lat="45.28541" lon="5.88692">
        <ele>252.44200134277</ele>
        <time>2017-10-08T03:49:47Z</time>
      </trkpt>
      <trkpt lat="45.28551" lon="5.88702">
        <ele>251.44200134277</ele>
        <time>2017-10-08T03:49:49Z</time>
      </trkpt>
      <trkpt lat="45.2856" lon="5.88712">
        <ele>250.44200134277</ele>
        <time>2017-10-08T03:49:51Z</time>
      </trkpt>
      <trkpt lat="45.28572" lon="5.88723">
        <ele>251.44200134277</ele>
        <time>2017-10-08T03:49:53Z</time>
      </trkpt>
      <trkpt lat="45.28582" lon="5.88735">
        <ele>251.44200134277</ele>
        <time>2017-10-08T03:49:55Z</time>
      </trkpt>
      <trkpt lat="45.28593" lon="5.88748">
        <ele>250.44200134277</ele>
        <time>2017-10-08T03:49:57Z</time>
      </trkpt>
      <trkpt lat="45.28603" lon="5.88758">
        <ele>251.44200134277</ele>
        <time>2017-10-08T03:49:59Z</time>
      </trkpt>
      <trkpt lat="45.28613" lon="5.88769">
        <ele>251.44200134277</ele>
        <time>2017-10-08T03:50:01Z</time>
      </trkpt>
      <trkpt lat="45.28624" lon="5.8878">
        <ele>252.44200134277</ele>
        <time>2017-10-08T03:50:03Z</time>
      </trkpt>
      <trkpt lat="45.28634" lon="5.8879">
        <ele>251.44200134277</ele>
        <time>2017-10-08T03:50:05Z</time>
      </trkpt>
      <trkpt lat="45.28643" lon="5.88802">
        <ele>252.44200134277</ele>
        <time>2017-10-08T03:50:07Z</time>
      </trkpt>
      <trkpt lat="45.28651" lon="5.88814">
        <ele>251.44200134277</ele>
        <time>2017-10-08T03:50:09Z</time>
      </trkpt>
      <trkpt lat="45.2866" lon="5.8882">
        <ele>245.44200134277</ele>
        <time>2017-10-08T03:50:11Z</time>
      </trkpt>
      <trkpt lat="45.2867" lon="5.88833">
        <ele>248.44200134277</ele>
        <time>2017-10-08T03:50:13Z</time>
      </trkpt>
      <trkpt lat="45.2868" lon="5.88849">
        <ele>247.44200134277</ele>
        <time>2017-10-08T03:50:15Z</time>
      </trkpt>
      <trkpt lat="45.28688" lon="5.88866">
        <ele>246.44200134277</ele>
        <time>2017-10-08T03:50:17Z</time>
      </trkpt>
      <trkpt lat="45.28698" lon="5.88883">
        <ele>247.44200134277</ele>
        <time>2017-10-08T03:50:19Z</time>
      </trkpt>
      <trkpt lat="45.28706" lon="5.889">
        <ele>245.44200134277</ele>
        <time>2017-10-08T03:50:21Z</time>
      </trkpt>
      <trkpt lat="45.28713" lon="5.88912">
        <ele>242.44200134277</ele>
        <time>2017-10-08T03:50:23Z</time>
      </trkpt>
      <trkpt lat="45.28722" lon="5.88927">
        <ele>241.44200134277</ele>
        <time>2017-10-08T03:50:25Z</time>
      </trkpt>
      <trkpt lat="45.28732" lon="5.8894">
        <ele>241.44200134277</ele>
        <time>2017-10-08T03:50:27Z</time>
      </trkpt>
      <trkpt lat="45.2874" lon="5.88955">
        <ele>239.44299316406</ele>
        <time>2017-10-08T03:50:29Z</time>
      </trkpt>
      <trkpt lat="45.28749" lon="5.88967">
        <ele>240.44299316406</ele>
        <time>2017-10-08T03:50:31Z</time>
      </trkpt>
      <trkpt lat="45.28757" lon="5.88983">
        <ele>241.44299316406</ele>
        <time>2017-10-08T03:50:33Z</time>
      </trkpt>
      <trkpt lat="45.28765" lon="5.88998">
        <ele>240.44299316406</ele>
        <time>2017-10-08T03:50:35Z</time>
      </trkpt>
      <trkpt lat="45.28773" lon="5.89014">
        <ele>242.44299316406</ele>
        <time>2017-10-08T03:50:37Z</time>
      </trkpt>
      <trkpt lat="45.28781" lon="5.8903">
        <ele>241.44299316406</ele>
        <time>2017-10-08T03:50:39Z</time>
      </trkpt>
      <trkpt lat="45.28789" lon="5.89046">
        <ele>240.44299316406</ele>
        <time>2017-10-08T03:50:41Z</time>
      </trkpt>
      <trkpt lat="45.288" lon="5.89066">
        <ele>241.44299316406</ele>
        <time>2017-10-08T03:50:44Z</time>
      </trkpt>
      <trkpt lat="45.28808" lon="5.89079">
        <ele>240.44299316406</ele>
        <time>2017-10-08T03:50:46Z</time>
      </trkpt>
      <trkpt lat="45.28815" lon="5.89094">
        <ele>242.44299316406</ele>
        <time>2017-10-08T03:50:48Z</time>
      </trkpt>
      <trkpt lat="45.28819" lon="5.89101">
        <ele>242.44299316406</ele>
        <time>2017-10-08T03:50:50Z</time>
      </trkpt>
      <trkpt lat="45.28815" lon="5.89108">
        <ele>244.44299316406</ele>
        <time>2017-10-08T03:50:52Z</time>
      </trkpt>
      <trkpt lat="45.28816" lon="5.89123">
        <ele>241.44299316406</ele>
        <time>2017-10-08T03:50:54Z</time>
      </trkpt>
      <trkpt lat="45.28822" lon="5.89136">
        <ele>240.44299316406</ele>
        <time>2017-10-08T03:50:56Z</time>
      </trkpt>
      <trkpt lat="45.2883" lon="5.8915">
        <ele>240.44299316406</ele>
        <time>2017-10-08T03:50:58Z</time>
      </trkpt>
      <trkpt lat="45.28841" lon="5.8916">
        <ele>239.44299316406</ele>
        <time>2017-10-08T03:51:00Z</time>
      </trkpt>
      <trkpt lat="45.28852" lon="5.89171">
        <ele>241.44299316406</ele>
        <time>2017-10-08T03:51:02Z</time>
      </trkpt>
      <trkpt lat="45.28864" lon="5.89174">
        <ele>241.44299316406</ele>
        <time>2017-10-08T03:51:04Z</time>
      </trkpt>
      <trkpt lat="45.28876" lon="5.89177">
        <ele>242.44299316406</ele>
        <time>2017-10-08T03:51:06Z</time>
      </trkpt>
      <trkpt lat="45.28889" lon="5.89181">
        <ele>242.44299316406</ele>
        <time>2017-10-08T03:51:08Z</time>
      </trkpt>
      <trkpt lat="45.28898" lon="5.89189">
        <ele>242.44299316406</ele>
        <time>2017-10-08T03:51:10Z</time>
      </trkpt>
      <trkpt lat="45.28913" lon="5.89205">
        <ele>243.44299316406</ele>
        <time>2017-10-08T03:51:13Z</time>
      </trkpt>
      <trkpt lat="45.28919" lon="5.89221">
        <ele>242.44299316406</ele>
        <time>2017-10-08T03:51:15Z</time>
      </trkpt>
      <trkpt lat="45.28923" lon="5.89234">
        <ele>243.44299316406</ele>
        <time>2017-10-08T03:51:17Z</time>
      </trkpt>
      <trkpt lat="45.28929" lon="5.89252">
        <ele>244.44299316406</ele>
        <time>2017-10-08T03:51:19Z</time>
      </trkpt>
      <trkpt lat="45.28933" lon="5.89265">
        <ele>242.44299316406</ele>
        <time>2017-10-08T03:51:21Z</time>
      </trkpt>
      <trkpt lat="45.28938" lon="5.8928">
        <ele>243.44299316406</ele>
        <time>2017-10-08T03:51:23Z</time>
      </trkpt>
      <trkpt lat="45.2894" lon="5.89295">
        <ele>242.44299316406</ele>
        <time>2017-10-08T03:51:25Z</time>
      </trkpt>
      <trkpt lat="45.2893" lon="5.893">
        <ele>241.44299316406</ele>
        <time>2017-10-08T03:51:26Z</time>
      </trkpt>
      <trkpt lat="45.28913" lon="5.89313">
        <ele>240.44299316406</ele>
        <time>2017-10-08T03:51:30Z</time>
      </trkpt>
      <trkpt lat="45.28909" lon="5.89317">
        <ele>241.44299316406</ele>
        <time>2017-10-08T03:51:32Z</time>
      </trkpt>
      <trkpt lat="45.28905" lon="5.8932">
        <ele>239.44299316406</ele>
        <time>2017-10-08T03:51:35Z</time>
      </trkpt>
      <trkpt lat="45.28896" lon="5.89327">
        <ele>241.44299316406</ele>
        <time>2017-10-08T03:51:38Z</time>
      </trkpt>
      <trkpt lat="45.28892" lon="5.89332">
        <ele>241.44299316406</ele>
        <time>2017-10-08T03:51:40Z</time>
      </trkpt>
      <trkpt lat="45.28891" lon="5.89344">
        <ele>241.44299316406</ele>
        <time>2017-10-08T03:51:42Z</time>
      </trkpt>
      <trkpt lat="45.2889" lon="5.89354">
        <ele>242.44299316406</ele>
        <time>2017-10-08T03:51:44Z</time>
      </trkpt>
      <trkpt lat="45.28892" lon="5.89364">
        <ele>238.44299316406</ele>
        <time>2017-10-08T03:51:48Z</time>
      </trkpt>
      <trkpt lat="45.28897" lon="5.8937">
        <ele>236.44299316406</ele>
        <time>2017-10-08T03:51:50Z</time>
      </trkpt>
      <trkpt lat="45.28902" lon="5.89368">
        <ele>236.44299316406</ele>
        <time>2017-10-08T03:51:51Z</time>
      </trkpt>
      <trkpt lat="45.28911" lon="5.89368">
        <ele>235.44299316406</ele>
        <time>2017-10-08T03:51:53Z</time>
      </trkpt>
      <trkpt lat="45.28922" lon="5.89371">
        <ele>235.44299316406</ele>
        <time>2017-10-08T03:51:55Z</time>
      </trkpt>
      <trkpt lat="45.28934" lon="5.89375">
        <ele>232.44299316406</ele>
        <time>2017-10-08T03:51:57Z</time>
      </trkpt>
      <trkpt lat="45.28946" lon="5.89382">
        <ele>231.44400024414</ele>
        <time>2017-10-08T03:51:59Z</time>
      </trkpt>
      <trkpt lat="45.28957" lon="5.89388">
        <ele>231.44400024414</ele>
        <time>2017-10-08T03:52:01Z</time>
      </trkpt>
      <trkpt lat="45.28967" lon="5.89392">
        <ele>231.44400024414</ele>
        <time>2017-10-08T03:52:03Z</time>
      </trkpt>
      <trkpt lat="45.28978" lon="5.89399">
        <ele>232.44400024414</ele>
        <time>2017-10-08T03:52:05Z</time>
      </trkpt>
      <trkpt lat="45.28988" lon="5.89407">
        <ele>234.44400024414</ele>
        <time>2017-10-08T03:52:07Z</time>
      </trkpt>
      <trkpt lat="45.28997" lon="5.89414">
        <ele>234.44400024414</ele>
        <time>2017-10-08T03:52:09Z</time>
      </trkpt>
      <trkpt lat="45.29009" lon="5.8942">
        <ele>235.44400024414</ele>
        <time>2017-10-08T03:52:11Z</time>
      </trkpt>
      <trkpt lat="45.29019" lon="5.89427">
        <ele>235.44400024414</ele>
        <time>2017-10-08T03:52:13Z</time>
      </trkpt>
      <trkpt lat="45.2903" lon="5.89434">
        <ele>235.44400024414</ele>
        <time>2017-10-08T03:52:15Z</time>
      </trkpt>
      <trkpt lat="45.2904" lon="5.89438">
        <ele>237.44400024414</ele>
        <time>2017-10-08T03:52:17Z</time>
      </trkpt>
      <trkpt lat="45.2905" lon="5.89446">
        <ele>236.44400024414</ele>
        <time>2017-10-08T03:52:19Z</time>
      </trkpt>
      <trkpt lat="45.29052" lon="5.89459">
        <ele>234.44400024414</ele>
        <time>2017-10-08T03:52:21Z</time>
      </trkpt>
      <trkpt lat="45.29054" lon="5.89475">
        <ele>234.44400024414</ele>
        <time>2017-10-08T03:52:23Z</time>
      </trkpt>
      <trkpt lat="45.29055" lon="5.89492">
        <ele>233.44400024414</ele>
        <time>2017-10-08T03:52:25Z</time>
      </trkpt>
      <trkpt lat="45.29053" lon="5.8951">
        <ele>233.44400024414</ele>
        <time>2017-10-08T03:52:27Z</time>
      </trkpt>
      <trkpt lat="45.29049" lon="5.89528">
        <ele>234.44400024414</ele>
        <time>2017-10-08T03:52:29Z</time>
      </trkpt>
      <trkpt lat="45.29043" lon="5.89544">
        <ele>232.44400024414</ele>
        <time>2017-10-08T03:52:31Z</time>
      </trkpt>
      <trkpt lat="45.29037" lon="5.89559">
        <ele>233.44400024414</ele>
        <time>2017-10-08T03:52:33Z</time>
      </trkpt>
      <trkpt lat="45.2903" lon="5.89575">
        <ele>233.44400024414</ele>
        <time>2017-10-08T03:52:35Z</time>
      </trkpt>
      <trkpt lat="45.29025" lon="5.89591">
        <ele>231.44400024414</ele>
        <time>2017-10-08T03:52:37Z</time>
      </trkpt>
      <trkpt lat="45.29017" lon="5.89607">
        <ele>233.44400024414</ele>
        <time>2017-10-08T03:52:39Z</time>
      </trkpt>
      <trkpt lat="45.2901" lon="5.89624">
        <ele>232.44400024414</ele>
        <time>2017-10-08T03:52:41Z</time>
      </trkpt>
      <trkpt lat="45.29003" lon="5.89639">
        <ele>233.44400024414</ele>
        <time>2017-10-08T03:52:43Z</time>
      </trkpt>
      <trkpt lat="45.28997" lon="5.89652">
        <ele>234.44400024414</ele>
        <time>2017-10-08T03:52:45Z</time>
      </trkpt>
      <trkpt lat="45.28992" lon="5.89666">
        <ele>233.44400024414</ele>
        <time>2017-10-08T03:52:47Z</time>
      </trkpt>
      <trkpt lat="45.28987" lon="5.89679">
        <ele>233.44400024414</ele>
        <time>2017-10-08T03:52:49Z</time>
      </trkpt>
      <trkpt lat="45.28986" lon="5.89697">
        <ele>233.44400024414</ele>
        <time>2017-10-08T03:52:52Z</time>
      </trkpt>
      <trkpt lat="45.28992" lon="5.89703">
        <ele>233.44400024414</ele>
        <time>2017-10-08T03:52:54Z</time>
      </trkpt>
      <trkpt lat="45.29007" lon="5.89704">
        <ele>234.44400024414</ele>
        <time>2017-10-08T03:52:57Z</time>
      </trkpt>
      <trkpt lat="45.29017" lon="5.89704">
        <ele>232.44400024414</ele>
        <time>2017-10-08T03:52:59Z</time>
      </trkpt>
      <trkpt lat="45.2903" lon="5.89705">
        <ele>231.44400024414</ele>
        <time>2017-10-08T03:53:02Z</time>
      </trkpt>
      <trkpt lat="45.29043" lon="5.89704">
        <ele>228.44400024414</ele>
        <time>2017-10-08T03:53:05Z</time>
      </trkpt>
      <trkpt lat="45.29055" lon="5.89705">
        <ele>227.44400024414</ele>
        <time>2017-10-08T03:53:07Z</time>
      </trkpt>
      <trkpt lat="45.29066" lon="5.89705">
        <ele>227.44400024414</ele>
        <time>2017-10-08T03:53:09Z</time>
      </trkpt>
      <trkpt lat="45.29071" lon="5.89705">
        <ele>226.44400024414</ele>
        <time>2017-10-08T03:53:10Z</time>
      </trkpt>
      <trkpt lat="45.2908" lon="5.89706">
        <ele>225.44400024414</ele>
        <time>2017-10-08T03:53:12Z</time>
      </trkpt>
      <trkpt lat="45.2909" lon="5.89707">
        <ele>225.44400024414</ele>
        <time>2017-10-08T03:53:14Z</time>
      </trkpt>
      <trkpt lat="45.291" lon="5.89708">
        <ele>227.44400024414</ele>
        <time>2017-10-08T03:53:16Z</time>
      </trkpt>
      <trkpt lat="45.29111" lon="5.89714">
        <ele>228.44400024414</ele>
        <time>2017-10-08T03:53:18Z</time>
      </trkpt>
      <trkpt lat="45.29124" lon="5.89717">
        <ele>227.44400024414</ele>
        <time>2017-10-08T03:53:21Z</time>
      </trkpt>
      <trkpt lat="45.29135" lon="5.89722">
        <ele>231.44400024414</ele>
        <time>2017-10-08T03:53:23Z</time>
      </trkpt>
      <trkpt lat="45.29144" lon="5.89721">
        <ele>228.44400024414</ele>
        <time>2017-10-08T03:53:25Z</time>
      </trkpt>
      <trkpt lat="45.29154" lon="5.89726">
        <ele>230.44400024414</ele>
        <time>2017-10-08T03:53:27Z</time>
      </trkpt>
      <trkpt lat="45.29164" lon="5.89727">
        <ele>228.44400024414</ele>
        <time>2017-10-08T03:53:29Z</time>
      </trkpt>
      <trkpt lat="45.29175" lon="5.8973">
        <ele>229.44400024414</ele>
        <time>2017-10-08T03:53:31Z</time>
      </trkpt>
      <trkpt lat="45.29186" lon="5.89733">
        <ele>231.44400024414</ele>
        <time>2017-10-08T03:53:33Z</time>
      </trkpt>
      <trkpt lat="45.29199" lon="5.89736">
        <ele>227.44500732422</ele>
        <time>2017-10-08T03:53:36Z</time>
      </trkpt>
      <trkpt lat="45.2921" lon="5.89738">
        <ele>227.44500732422</ele>
        <time>2017-10-08T03:53:38Z</time>
      </trkpt>
      <trkpt lat="45.29221" lon="5.89739">
        <ele>227.44500732422</ele>
        <time>2017-10-08T03:53:40Z</time>
      </trkpt>
      <trkpt lat="45.29231" lon="5.89743">
        <ele>228.44500732422</ele>
        <time>2017-10-08T03:53:42Z</time>
      </trkpt>
      <trkpt lat="45.29241" lon="5.89744">
        <ele>228.44500732422</ele>
        <time>2017-10-08T03:53:44Z</time>
      </trkpt>
      <trkpt lat="45.29251" lon="5.89745">
        <ele>229.44500732422</ele>
        <time>2017-10-08T03:53:46Z</time>
      </trkpt>
      <trkpt lat="45.29262" lon="5.89746">
        <ele>229.44500732422</ele>
        <time>2017-10-08T03:53:48Z</time>
      </trkpt>
      <trkpt lat="45.29272" lon="5.89746">
        <ele>227.44500732422</ele>
        <time>2017-10-08T03:53:50Z</time>
      </trkpt>
      <trkpt lat="45.29283" lon="5.89748">
        <ele>227.44500732422</ele>
        <time>2017-10-08T03:53:52Z</time>
      </trkpt>
      <trkpt lat="45.29295" lon="5.89749">
        <ele>228.44500732422</ele>
        <time>2017-10-08T03:53:54Z</time>
      </trkpt>
      <trkpt lat="45.29306" lon="5.89752">
        <ele>229.44500732422</ele>
        <time>2017-10-08T03:53:56Z</time>
      </trkpt>
      <trkpt lat="45.29316" lon="5.89756">
        <ele>232.44500732422</ele>
        <time>2017-10-08T03:53:58Z</time>
      </trkpt>
      <trkpt lat="45.29327" lon="5.8976">
        <ele>233.44500732422</ele>
        <time>2017-10-08T03:54:00Z</time>
      </trkpt>
      <trkpt lat="45.29338" lon="5.89763">
        <ele>232.44500732422</ele>
        <time>2017-10-08T03:54:02Z</time>
      </trkpt>
      <trkpt lat="45.29348" lon="5.89766">
        <ele>233.44500732422</ele>
        <time>2017-10-08T03:54:04Z</time>
      </trkpt>
      <trkpt lat="45.29358" lon="5.89771">
        <ele>233.44500732422</ele>
        <time>2017-10-08T03:54:06Z</time>
      </trkpt>
      <trkpt lat="45.29367" lon="5.89779">
        <ele>232.44500732422</ele>
        <time>2017-10-08T03:54:08Z</time>
      </trkpt>
      <trkpt lat="45.29376" lon="5.89787">
        <ele>232.44500732422</ele>
        <time>2017-10-08T03:54:10Z</time>
      </trkpt>
      <trkpt lat="45.29385" lon="5.89796">
        <ele>232.44500732422</ele>
        <time>2017-10-08T03:54:12Z</time>
      </trkpt>
      <trkpt lat="45.29394" lon="5.89805">
        <ele>232.44500732422</ele>
        <time>2017-10-08T03:54:14Z</time>
      </trkpt>
      <trkpt lat="45.29401" lon="5.89815">
        <ele>231.44500732422</ele>
        <time>2017-10-08T03:54:16Z</time>
      </trkpt>
      <trkpt lat="45.2941" lon="5.89824">
        <ele>231.44500732422</ele>
        <time>2017-10-08T03:54:18Z</time>
      </trkpt>
      <trkpt lat="45.29419" lon="5.89833">
        <ele>231.44500732422</ele>
        <time>2017-10-08T03:54:20Z</time>
      </trkpt>
      <trkpt lat="45.29431" lon="5.89845">
        <ele>230.44500732422</ele>
        <time>2017-10-08T03:54:23Z</time>
      </trkpt>
      <trkpt lat="45.29439" lon="5.89852">
        <ele>230.44500732422</ele>
        <time>2017-10-08T03:54:25Z</time>
      </trkpt>
      <trkpt lat="45.29447" lon="5.89861">
        <ele>229.44500732422</ele>
        <time>2017-10-08T03:54:27Z</time>
      </trkpt>
      <trkpt lat="45.29454" lon="5.89868">
        <ele>229.44500732422</ele>
        <time>2017-10-08T03:54:29Z</time>
      </trkpt>
      <trkpt lat="45.29462" lon="5.89878">
        <ele>230.44500732422</ele>
        <time>2017-10-08T03:54:31Z</time>
      </trkpt>
      <trkpt lat="45.29469" lon="5.89885">
        <ele>228.44500732422</ele>
        <time>2017-10-08T03:54:33Z</time>
      </trkpt>
      <trkpt lat="45.29481" lon="5.89897">
        <ele>229.44500732422</ele>
        <time>2017-10-08T03:54:36Z</time>
      </trkpt>
      <trkpt lat="45.29491" lon="5.89908">
        <ele>230.44500732422</ele>
        <time>2017-10-08T03:54:39Z</time>
      </trkpt>
      <trkpt lat="45.295" lon="5.89916">
        <ele>231.44500732422</ele>
        <time>2017-10-08T03:54:41Z</time>
      </trkpt>
      <trkpt lat="45.29506" lon="5.89924">
        <ele>230.44500732422</ele>
        <time>2017-10-08T03:54:43Z</time>
      </trkpt>
      <trkpt lat="45.29518" lon="5.89937">
        <ele>230.44500732422</ele>
        <time>2017-10-08T03:54:46Z</time>
      </trkpt>
      <trkpt lat="45.29525" lon="5.89947">
        <ele>233.44500732422</ele>
        <time>2017-10-08T03:54:48Z</time>
      </trkpt>
      <trkpt lat="45.29534" lon="5.89957">
        <ele>234.44500732422</ele>
        <time>2017-10-08T03:54:50Z</time>
      </trkpt>
      <trkpt lat="45.29541" lon="5.8996">
        <ele>232.44599914551</ele>
        <time>2017-10-08T03:54:52Z</time>
      </trkpt>
      <trkpt lat="45.29553" lon="5.89958">
        <ele>235.44599914551</ele>
        <time>2017-10-08T03:54:55Z</time>
      </trkpt>
      <trkpt lat="45.29565" lon="5.89953">
        <ele>235.44599914551</ele>
        <time>2017-10-08T03:54:57Z</time>
      </trkpt>
      <trkpt lat="45.29577" lon="5.89955">
        <ele>237.44599914551</ele>
        <time>2017-10-08T03:55:02Z</time>
      </trkpt>
      <trkpt lat="45.2958" lon="5.8996">
        <ele>238.44599914551</ele>
        <time>2017-10-08T03:55:04Z</time>
      </trkpt>
      <trkpt lat="45.29583" lon="5.89971">
        <ele>238.44599914551</ele>
        <time>2017-10-08T03:55:06Z</time>
      </trkpt>
      <trkpt lat="45.29588" lon="5.89979">
        <ele>239.44599914551</ele>
        <time>2017-10-08T03:55:08Z</time>
      </trkpt>
      <trkpt lat="45.29591" lon="5.89988">
        <ele>241.44599914551</ele>
        <time>2017-10-08T03:55:10Z</time>
      </trkpt>
      <trkpt lat="45.29594" lon="5.89994">
        <ele>240.44599914551</ele>
        <time>2017-10-08T03:55:12Z</time>
      </trkpt>
      <trkpt lat="45.29596" lon="5.90005">
        <ele>237.44599914551</ele>
        <time>2017-10-08T03:55:15Z</time>
      </trkpt>
      <trkpt lat="45.29594" lon="5.90022">
        <ele>234.44599914551</ele>
        <time>2017-10-08T03:55:18Z</time>
      </trkpt>
      <trkpt lat="45.29599" lon="5.90028">
        <ele>234.44599914551</ele>
        <time>2017-10-08T03:55:20Z</time>
      </trkpt>
      <trkpt lat="45.29604" lon="5.90033">
        <ele>233.44599914551</ele>
        <time>2017-10-08T03:55:22Z</time>
      </trkpt>
      <trkpt lat="45.29611" lon="5.90037">
        <ele>235.44599914551</ele>
        <time>2017-10-08T03:55:25Z</time>
      </trkpt>
      <trkpt lat="45.29617" lon="5.90033">
        <ele>234.44599914551</ele>
        <time>2017-10-08T03:55:27Z</time>
      </trkpt>
      <trkpt lat="45.29622" lon="5.90027">
        <ele>234.44599914551</ele>
        <time>2017-10-08T03:55:29Z</time>
      </trkpt>
      <trkpt lat="45.29628" lon="5.90023">
        <ele>237.44599914551</ele>
        <time>2017-10-08T03:55:31Z</time>
      </trkpt>
      <trkpt lat="45.29632" lon="5.90017">
        <ele>236.44599914551</ele>
        <time>2017-10-08T03:55:33Z</time>
      </trkpt>
      <trkpt lat="45.29638" lon="5.90014">
        <ele>238.44599914551</ele>
        <time>2017-10-08T03:55:35Z</time>
      </trkpt>
      <trkpt lat="45.29644" lon="5.9001">
        <ele>237.44599914551</ele>
        <time>2017-10-08T03:55:37Z</time>
      </trkpt>
      <trkpt lat="45.29649" lon="5.90007">
        <ele>237.44599914551</ele>
        <time>2017-10-08T03:55:39Z</time>
      </trkpt>
      <trkpt lat="45.29653" lon="5.90003">
        <ele>237.44599914551</ele>
        <time>2017-10-08T03:55:42Z</time>
      </trkpt>
      <trkpt lat="45.29658" lon="5.90001">
        <ele>238.44599914551</ele>
        <time>2017-10-08T03:55:44Z</time>
      </trkpt>
      <trkpt lat="45.29665" lon="5.89998">
        <ele>239.44599914551</ele>
        <time>2017-10-08T03:55:46Z</time>
      </trkpt>
      <trkpt lat="45.29669" lon="5.89993">
        <ele>238.44599914551</ele>
        <time>2017-10-08T03:55:48Z</time>
      </trkpt>
      <trkpt lat="45.29677" lon="5.8999">
        <ele>241.44599914551</ele>
        <time>2017-10-08T03:55:50Z</time>
      </trkpt>
      <trkpt lat="45.29684" lon="5.89988">
        <ele>242.44599914551</ele>
        <time>2017-10-08T03:55:52Z</time>
      </trkpt>
      <trkpt lat="45.29691" lon="5.89987">
        <ele>242.44599914551</ele>
        <time>2017-10-08T03:55:54Z</time>
      </trkpt>
      <trkpt lat="45.29696" lon="5.89986">
        <ele>242.44599914551</ele>
        <time>2017-10-08T03:55:56Z</time>
      </trkpt>
      <trkpt lat="45.29701" lon="5.89986">
        <ele>241.44599914551</ele>
        <time>2017-10-08T03:55:58Z</time>
      </trkpt>
      <trkpt lat="45.29705" lon="5.8999">
        <ele>243.44599914551</ele>
        <time>2017-10-08T03:56:01Z</time>
      </trkpt>
      <trkpt lat="45.29705" lon="5.89996">
        <ele>244.44599914551</ele>
        <time>2017-10-08T03:56:05Z</time>
      </trkpt>
      <trkpt lat="45.29712" lon="5.9">
        <ele>242.44599914551</ele>
        <time>2017-10-08T03:56:10Z</time>
      </trkpt>
      <trkpt lat="45.29718" lon="5.9">
        <ele>241.44599914551</ele>
        <time>2017-10-08T03:56:12Z</time>
      </trkpt>
      <trkpt lat="45.29725" lon="5.90003">
        <ele>241.44599914551</ele>
        <time>2017-10-08T03:56:14Z</time>
      </trkpt>
      <trkpt lat="45.29732" lon="5.90001">
        <ele>240.44599914551</ele>
        <time>2017-10-08T03:56:16Z</time>
      </trkpt>
      <trkpt lat="45.29738" lon="5.90005">
        <ele>241.44599914551</ele>
        <time>2017-10-08T03:56:18Z</time>
      </trkpt>
      <trkpt lat="45.29745" lon="5.90003">
        <ele>240.44599914551</ele>
        <time>2017-10-08T03:56:20Z</time>
      </trkpt>
      <trkpt lat="45.29752" lon="5.89998">
        <ele>240.44599914551</ele>
        <time>2017-10-08T03:56:22Z</time>
      </trkpt>
      <trkpt lat="45.29759" lon="5.89998">
        <ele>241.44599914551</ele>
        <time>2017-10-08T03:56:24Z</time>
      </trkpt>
      <trkpt lat="45.29765" lon="5.89995">
        <ele>241.44599914551</ele>
        <time>2017-10-08T03:56:26Z</time>
      </trkpt>
      <trkpt lat="45.29772" lon="5.89992">
        <ele>242.44599914551</ele>
        <time>2017-10-08T03:56:28Z</time>
      </trkpt>
      <trkpt lat="45.29779" lon="5.89989">
        <ele>241.44599914551</ele>
        <time>2017-10-08T03:56:30Z</time>
      </trkpt>
      <trkpt lat="45.29786" lon="5.89988">
        <ele>242.44599914551</ele>
        <time>2017-10-08T03:56:32Z</time>
      </trkpt>
      <trkpt lat="45.29794" lon="5.89988">
        <ele>243.44599914551</ele>
        <time>2017-10-08T03:56:34Z</time>
      </trkpt>
      <trkpt lat="45.29803" lon="5.89991">
        <ele>243.44599914551</ele>
        <time>2017-10-08T03:56:36Z</time>
      </trkpt>
      <trkpt lat="45.29804" lon="5.89998">
        <ele>242.44599914551</ele>
        <time>2017-10-08T03:56:37Z</time>
      </trkpt>
      <trkpt lat="45.29814" lon="5.90011">
        <ele>242.44599914551</ele>
        <time>2017-10-08T03:56:40Z</time>
      </trkpt>
      <trkpt lat="45.2982" lon="5.90019">
        <ele>243.44599914551</ele>
        <time>2017-10-08T03:56:42Z</time>
      </trkpt>
      <trkpt lat="45.29825" lon="5.90029">
        <ele>241.44599914551</ele>
        <time>2017-10-08T03:56:44Z</time>
      </trkpt>
      <trkpt lat="45.29829" lon="5.90038">
        <ele>242.44599914551</ele>
        <time>2017-10-08T03:56:46Z</time>
      </trkpt>
      <trkpt lat="45.29837" lon="5.90041">
        <ele>242.44599914551</ele>
        <time>2017-10-08T03:56:48Z</time>
      </trkpt>
      <trkpt lat="45.29843" lon="5.90039">
        <ele>241.44599914551</ele>
        <time>2017-10-08T03:56:50Z</time>
      </trkpt>
      <trkpt lat="45.29849" lon="5.9003">
        <ele>243.44599914551</ele>
        <time>2017-10-08T03:56:52Z</time>
      </trkpt>
      <trkpt lat="45.2985" lon="5.90022">
        <ele>243.44599914551</ele>
        <time>2017-10-08T03:56:54Z</time>
      </trkpt>
      <trkpt lat="45.29853" lon="5.90012">
        <ele>245.44599914551</ele>
        <time>2017-10-08T03:56:56Z</time>
      </trkpt>
      <trkpt lat="45.29854" lon="5.90003">
        <ele>244.44599914551</ele>
        <time>2017-10-08T03:56:58Z</time>
      </trkpt>
      <trkpt lat="45.29858" lon="5.89988">
        <ele>244.44599914551</ele>
        <time>2017-10-08T03:57:01Z</time>
      </trkpt>
      <trkpt lat="45.29862" lon="5.8998">
        <ele>249.44599914551</ele>
        <time>2017-10-08T03:57:03Z</time>
      </trkpt>
      <trkpt lat="45.29865" lon="5.89973">
        <ele>249.44599914551</ele>
        <time>2017-10-08T03:57:05Z</time>
      </trkpt>
      <trkpt lat="45.29867" lon="5.89965">
        <ele>248.44599914551</ele>
        <time>2017-10-08T03:57:07Z</time>
      </trkpt>
      <trkpt lat="45.29868" lon="5.89956">
        <ele>249.44599914551</ele>
        <time>2017-10-08T03:57:09Z</time>
      </trkpt>
      <trkpt lat="45.29868" lon="5.89948">
        <ele>252.44599914551</ele>
        <time>2017-10-08T03:57:11Z</time>
      </trkpt>
      <trkpt lat="45.29865" lon="5.8994">
        <ele>252.44599914551</ele>
        <time>2017-10-08T03:57:13Z</time>
      </trkpt>
      <trkpt lat="45.29861" lon="5.89932">
        <ele>252.44599914551</ele>
        <time>2017-10-08T03:57:15Z</time>
      </trkpt>
      <trkpt lat="45.29857" lon="5.89922">
        <ele>252.44599914551</ele>
        <time>2017-10-08T03:57:17Z</time>
      </trkpt>
      <trkpt lat="45.2986" lon="5.89913">
        <ele>251.44599914551</ele>
        <time>2017-10-08T03:57:19Z</time>
      </trkpt>
      <trkpt lat="45.29867" lon="5.8991">
        <ele>250.44599914551</ele>
        <time>2017-10-08T03:57:21Z</time>
      </trkpt>
      <trkpt lat="45.29873" lon="5.89907">
        <ele>251.44599914551</ele>
        <time>2017-10-08T03:57:23Z</time>
      </trkpt>
      <trkpt lat="45.29877" lon="5.89903">
        <ele>251.44599914551</ele>
        <time>2017-10-08T03:57:25Z</time>
      </trkpt>
      <trkpt lat="45.29882" lon="5.89897">
        <ele>253.44599914551</ele>
        <time>2017-10-08T03:57:27Z</time>
      </trkpt>
      <trkpt lat="45.29887" lon="5.89896">
        <ele>256.4460144043</ele>
        <time>2017-10-08T03:57:39Z</time>
      </trkpt>
      <trkpt lat="45.29882" lon="5.89894">
        <ele>253.44599914551</ele>
        <time>2017-10-08T04:00:01Z</time>
      </trkpt>
      <trkpt lat="45.29886" lon="5.89889">
        <ele>256.4460144043</ele>
        <time>2017-10-08T04:00:15Z</time>
      </trkpt>
      <trkpt lat="45.29892" lon="5.89885">
        <ele>257.4460144043</ele>
        <time>2017-10-08T04:00:17Z</time>
      </trkpt>
      <trkpt lat="45.29898" lon="5.89882">
        <ele>257.4460144043</ele>
        <time>2017-10-08T04:00:19Z</time>
      </trkpt>
      <trkpt lat="45.29904" lon="5.89877">
        <ele>257.4460144043</ele>
        <time>2017-10-08T04:00:21Z</time>
      </trkpt>
      <trkpt lat="45.29907" lon="5.89874">
        <ele>255.44599914551</ele>
        <time>2017-10-08T04:00:23Z</time>
      </trkpt>
      <trkpt lat="45.29913" lon="5.89871">
        <ele>256.4460144043</ele>
        <time>2017-10-08T04:00:25Z</time>
      </trkpt>
      <trkpt lat="45.29917" lon="5.89868">
        <ele>254.44599914551</ele>
        <time>2017-10-08T04:00:27Z</time>
      </trkpt>
      <trkpt lat="45.29922" lon="5.89866">
        <ele>257.4460144043</ele>
        <time>2017-10-08T04:00:29Z</time>
      </trkpt>
      <trkpt lat="45.29927" lon="5.89863">
        <ele>258.4460144043</ele>
        <time>2017-10-08T04:00:32Z</time>
      </trkpt>
      <trkpt lat="45.2993" lon="5.89859">
        <ele>257.4460144043</ele>
        <time>2017-10-08T04:00:34Z</time>
      </trkpt>
      <trkpt lat="45.29935" lon="5.89856">
        <ele>258.4460144043</ele>
        <time>2017-10-08T04:00:36Z</time>
      </trkpt>
      <trkpt lat="45.2994" lon="5.89853">
        <ele>259.4460144043</ele>
        <time>2017-10-08T04:00:38Z</time>
      </trkpt>
      <trkpt lat="45.29944" lon="5.8985">
        <ele>257.4460144043</ele>
        <time>2017-10-08T04:00:41Z</time>
      </trkpt>
      <trkpt lat="45.29947" lon="5.89844">
        <ele>257.4460144043</ele>
        <time>2017-10-08T04:00:43Z</time>
      </trkpt>
      <trkpt lat="45.29952" lon="5.8984">
        <ele>258.4460144043</ele>
        <time>2017-10-08T04:00:45Z</time>
      </trkpt>
      <trkpt lat="45.29956" lon="5.89836">
        <ele>258.4460144043</ele>
        <time>2017-10-08T04:00:47Z</time>
      </trkpt>
      <trkpt lat="45.2996" lon="5.89832">
        <ele>258.4460144043</ele>
        <time>2017-10-08T04:00:49Z</time>
      </trkpt>
      <trkpt lat="45.29965" lon="5.89828">
        <ele>258.4460144043</ele>
        <time>2017-10-08T04:00:51Z</time>
      </trkpt>
      <trkpt lat="45.2997" lon="5.89824">
        <ele>257.4460144043</ele>
        <time>2017-10-08T04:00:53Z</time>
      </trkpt>
      <trkpt lat="45.29974" lon="5.8982">
        <ele>257.4460144043</ele>
        <time>2017-10-08T04:00:55Z</time>
      </trkpt>
      <trkpt lat="45.29977" lon="5.89815">
        <ele>258.4460144043</ele>
        <time>2017-10-08T04:00:57Z</time>
      </trkpt>
      <trkpt lat="45.2998" lon="5.89807">
        <ele>258.4460144043</ele>
        <time>2017-10-08T04:00:59Z</time>
      </trkpt>
      <trkpt lat="45.29991" lon="5.8981">
        <ele>258.4460144043</ele>
        <time>2017-10-08T04:01:02Z</time>
      </trkpt>
      <trkpt lat="45.29994" lon="5.89805">
        <ele>258.4460144043</ele>
        <time>2017-10-08T04:01:07Z</time>
      </trkpt>
      <trkpt lat="45.29999" lon="5.89803">
        <ele>258.4460144043</ele>
        <time>2017-10-08T04:01:09Z</time>
      </trkpt>
      <trkpt lat="45.30005" lon="5.89801">
        <ele>258.4460144043</ele>
        <time>2017-10-08T04:01:11Z</time>
      </trkpt>
      <trkpt lat="45.30011" lon="5.898">
        <ele>259.4460144043</ele>
        <time>2017-10-08T04:01:19Z</time>
      </trkpt>
      <trkpt lat="45.30015" lon="5.89801">
        <ele>263.4460144043</ele>
        <time>2017-10-08T04:01:22Z</time>
      </trkpt>
      <trkpt lat="45.3002" lon="5.898">
        <ele>264.4460144043</ele>
        <time>2017-10-08T04:01:25Z</time>
      </trkpt>
      <trkpt lat="45.30026" lon="5.89798">
        <ele>265.4460144043</ele>
        <time>2017-10-08T04:01:28Z</time>
      </trkpt>
      <trkpt lat="45.30029" lon="5.89792">
        <ele>266.4460144043</ele>
        <time>2017-10-08T04:01:33Z</time>
      </trkpt>
      <trkpt lat="45.30033" lon="5.89789">
        <ele>269.4460144043</ele>
        <time>2017-10-08T04:01:38Z</time>
      </trkpt>
      <trkpt lat="45.30038" lon="5.89786">
        <ele>271.4460144043</ele>
        <time>2017-10-08T04:01:41Z</time>
      </trkpt>
      <trkpt lat="45.30041" lon="5.89779">
        <ele>273.4460144043</ele>
        <time>2017-10-08T04:01:51Z</time>
      </trkpt>
      <trkpt lat="45.30044" lon="5.89774">
        <ele>272.4460144043</ele>
        <time>2017-10-08T04:01:55Z</time>
      </trkpt>
      <trkpt lat="45.3005" lon="5.89771">
        <ele>274.4460144043</ele>
        <time>2017-10-08T04:01:58Z</time>
      </trkpt>
      <trkpt lat="45.30053" lon="5.89765">
        <ele>274.4460144043</ele>
        <time>2017-10-08T04:02:02Z</time>
      </trkpt>
      <trkpt lat="45.30052" lon="5.89755">
        <ele>270.4460144043</ele>
        <time>2017-10-08T04:02:06Z</time>
      </trkpt>
      <trkpt lat="45.30054" lon="5.89748">
        <ele>272.4460144043</ele>
        <time>2017-10-08T04:02:10Z</time>
      </trkpt>
      <trkpt lat="45.30055" lon="5.89741">
        <ele>275.4460144043</ele>
        <time>2017-10-08T04:02:17Z</time>
      </trkpt>
      <trkpt lat="45.30057" lon="5.89735">
        <ele>276.4460144043</ele>
        <time>2017-10-08T04:02:20Z</time>
      </trkpt>
      <trkpt lat="45.30057" lon="5.89728">
        <ele>277.4460144043</ele>
        <time>2017-10-08T04:02:25Z</time>
      </trkpt>
      <trkpt lat="45.30059" lon="5.8972">
        <ele>278.4460144043</ele>
        <time>2017-10-08T04:02:28Z</time>
      </trkpt>
      <trkpt lat="45.30059" lon="5.89714">
        <ele>276.4460144043</ele>
        <time>2017-10-08T04:02:33Z</time>
      </trkpt>
      <trkpt lat="45.30058" lon="5.89707">
        <ele>276.4460144043</ele>
        <time>2017-10-08T04:02:35Z</time>
      </trkpt>
      <trkpt lat="45.30059" lon="5.897">
        <ele>280.4460144043</ele>
        <time>2017-10-08T04:02:38Z</time>
      </trkpt>
      <trkpt lat="45.30055" lon="5.89694">
        <ele>280.4460144043</ele>
        <time>2017-10-08T04:02:40Z</time>
      </trkpt>
      <trkpt lat="45.30062" lon="5.89691">
        <ele>282.4460144043</ele>
        <time>2017-10-08T04:02:43Z</time>
      </trkpt>
      <trkpt lat="45.30057" lon="5.89683">
        <ele>281.4460144043</ele>
        <time>2017-10-08T04:02:46Z</time>
      </trkpt>
      <trkpt lat="45.30063" lon="5.8968">
        <ele>282.4460144043</ele>
        <time>2017-10-08T04:02:50Z</time>
      </trkpt>
      <trkpt lat="45.30071" lon="5.89682">
        <ele>285.4460144043</ele>
        <time>2017-10-08T04:02:52Z</time>
      </trkpt>
      <trkpt lat="45.30072" lon="5.89674">
        <ele>285.4460144043</ele>
        <time>2017-10-08T04:02:55Z</time>
      </trkpt>
      <trkpt lat="45.30078" lon="5.89673">
        <ele>287.4460144043</ele>
        <time>2017-10-08T04:02:57Z</time>
      </trkpt>
      <trkpt lat="45.30074" lon="5.89668">
        <ele>288.4460144043</ele>
        <time>2017-10-08T04:03:01Z</time>
      </trkpt>
      <trkpt lat="45.30069" lon="5.89664">
        <ele>287.4460144043</ele>
        <time>2017-10-08T04:03:03Z</time>
      </trkpt>
      <trkpt lat="45.30072" lon="5.8966">
        <ele>294.4460144043</ele>
        <time>2017-10-08T04:03:09Z</time>
      </trkpt>
      <trkpt lat="45.30071" lon="5.89653">
        <ele>297.4460144043</ele>
        <time>2017-10-08T04:03:12Z</time>
      </trkpt>
      <trkpt lat="45.30073" lon="5.89647">
        <ele>300.4460144043</ele>
        <time>2017-10-08T04:03:17Z</time>
      </trkpt>
      <trkpt lat="45.30071" lon="5.8964">
        <ele>300.4460144043</ele>
        <time>2017-10-08T04:03:23Z</time>
      </trkpt>
      <trkpt lat="45.30078" lon="5.8964">
        <ele>300.4460144043</ele>
        <time>2017-10-08T04:03:25Z</time>
      </trkpt>
      <trkpt lat="45.30083" lon="5.89637">
        <ele>301.4460144043</ele>
        <time>2017-10-08T04:03:31Z</time>
      </trkpt>
      <trkpt lat="45.30089" lon="5.89636">
        <ele>301.4460144043</ele>
        <time>2017-10-08T04:03:33Z</time>
      </trkpt>
      <trkpt lat="45.3009" lon="5.89629">
        <ele>304.4460144043</ele>
        <time>2017-10-08T04:03:37Z</time>
      </trkpt>
      <trkpt lat="45.30086" lon="5.89623">
        <ele>301.4460144043</ele>
        <time>2017-10-08T04:03:40Z</time>
      </trkpt>
      <trkpt lat="45.30093" lon="5.89616">
        <ele>304.4460144043</ele>
        <time>2017-10-08T04:03:54Z</time>
      </trkpt>
      <trkpt lat="45.30095" lon="5.8961">
        <ele>307.4460144043</ele>
        <time>2017-10-08T04:03:58Z</time>
      </trkpt>
      <trkpt lat="45.301" lon="5.89611">
        <ele>312.4460144043</ele>
        <time>2017-10-08T04:04:26Z</time>
      </trkpt>
      <trkpt lat="45.30107" lon="5.8961">
        <ele>313.4460144043</ele>
        <time>2017-10-08T04:04:28Z</time>
      </trkpt>
      <trkpt lat="45.30114" lon="5.8961">
        <ele>314.4460144043</ele>
        <time>2017-10-08T04:04:32Z</time>
      </trkpt>
      <trkpt lat="45.30124" lon="5.89613">
        <ele>316.4460144043</ele>
        <time>2017-10-08T04:04:35Z</time>
      </trkpt>
      <trkpt lat="45.30135" lon="5.8962">
        <ele>321.4460144043</ele>
        <time>2017-10-08T04:04:40Z</time>
      </trkpt>
      <trkpt lat="45.3014" lon="5.89618">
        <ele>322.4460144043</ele>
        <time>2017-10-08T04:04:46Z</time>
      </trkpt>
      <trkpt lat="45.30144" lon="5.89623">
        <ele>325.4460144043</ele>
        <time>2017-10-08T04:04:48Z</time>
      </trkpt>
      <trkpt lat="45.30149" lon="5.89616">
        <ele>321.4460144043</ele>
        <time>2017-10-08T04:04:54Z</time>
      </trkpt>
      <trkpt lat="45.3015" lon="5.89609">
        <ele>319.4460144043</ele>
        <time>2017-10-08T04:04:59Z</time>
      </trkpt>
      <trkpt lat="45.3015" lon="5.896">
        <ele>317.4460144043</ele>
        <time>2017-10-08T04:05:04Z</time>
      </trkpt>
      <trkpt lat="45.3015" lon="5.89593">
        <ele>323.4460144043</ele>
        <time>2017-10-08T04:05:09Z</time>
      </trkpt>
      <trkpt lat="45.30153" lon="5.89586">
        <ele>325.4460144043</ele>
        <time>2017-10-08T04:05:12Z</time>
      </trkpt>
      <trkpt lat="45.30154" lon="5.89579">
        <ele>331.4460144043</ele>
        <time>2017-10-08T04:05:18Z</time>
      </trkpt>
      <trkpt lat="45.30153" lon="5.89573">
        <ele>334.4460144043</ele>
        <time>2017-10-08T04:05:23Z</time>
      </trkpt>
      <trkpt lat="45.30151" lon="5.89566">
        <ele>336.4460144043</ele>
        <time>2017-10-08T04:05:27Z</time>
      </trkpt>
      <trkpt lat="45.30149" lon="5.89558">
        <ele>337.4460144043</ele>
        <time>2017-10-08T04:05:32Z</time>
      </trkpt>
      <trkpt lat="45.30146" lon="5.89554">
        <ele>338.4460144043</ele>
        <time>2017-10-08T04:05:36Z</time>
      </trkpt>
      <trkpt lat="45.30141" lon="5.89549">
        <ele>341.4460144043</ele>
        <time>2017-10-08T04:05:38Z</time>
      </trkpt>
      <trkpt lat="45.30138" lon="5.89544">
        <ele>341.4460144043</ele>
        <time>2017-10-08T04:05:40Z</time>
      </trkpt>
      <trkpt lat="45.30143" lon="5.89545">
        <ele>343.4460144043</ele>
        <time>2017-10-08T04:05:43Z</time>
      </trkpt>
      <trkpt lat="45.30138" lon="5.89539">
        <ele>343.4460144043</ele>
        <time>2017-10-08T04:05:50Z</time>
      </trkpt>
      <trkpt lat="45.30132" lon="5.89534">
        <ele>346.4460144043</ele>
        <time>2017-10-08T04:05:54Z</time>
      </trkpt>
      <trkpt lat="45.30133" lon="5.89526">
        <ele>343.4460144043</ele>
        <time>2017-10-08T04:05:57Z</time>
      </trkpt>
      <trkpt lat="45.30131" lon="5.89519">
        <ele>343.4460144043</ele>
        <time>2017-10-08T04:06:00Z</time>
      </trkpt>
      <trkpt lat="45.30125" lon="5.89518">
        <ele>343.4460144043</ele>
        <time>2017-10-08T04:06:03Z</time>
      </trkpt>
      <trkpt lat="45.3012" lon="5.89514">
        <ele>345.4460144043</ele>
        <time>2017-10-08T04:06:06Z</time>
      </trkpt>
      <trkpt lat="45.30119" lon="5.89507">
        <ele>345.4460144043</ele>
        <time>2017-10-08T04:06:09Z</time>
      </trkpt>
      <trkpt lat="45.30114" lon="5.89501">
        <ele>347.4460144043</ele>
        <time>2017-10-08T04:06:12Z</time>
      </trkpt>
      <trkpt lat="45.3011" lon="5.89495">
        <ele>348.4460144043</ele>
        <time>2017-10-08T04:06:14Z</time>
      </trkpt>
      <trkpt lat="45.30105" lon="5.89491">
        <ele>349.4460144043</ele>
        <time>2017-10-08T04:06:18Z</time>
      </trkpt>
      <trkpt lat="45.30101" lon="5.89485">
        <ele>348.4460144043</ele>
        <time>2017-10-08T04:06:22Z</time>
      </trkpt>
      <trkpt lat="45.30097" lon="5.8948">
        <ele>351.4460144043</ele>
        <time>2017-10-08T04:06:26Z</time>
      </trkpt>
      <trkpt lat="45.30091" lon="5.89478">
        <ele>352.4460144043</ele>
        <time>2017-10-08T04:06:29Z</time>
      </trkpt>
      <trkpt lat="45.30087" lon="5.89474">
        <ele>350.4460144043</ele>
        <time>2017-10-08T04:06:32Z</time>
      </trkpt>
      <trkpt lat="45.30082" lon="5.89472">
        <ele>348.4460144043</ele>
        <time>2017-10-08T04:06:35Z</time>
      </trkpt>
      <trkpt lat="45.30077" lon="5.8947">
        <ele>348.4460144043</ele>
        <time>2017-10-08T04:06:38Z</time>
      </trkpt>
      <trkpt lat="45.30073" lon="5.89466">
        <ele>347.4460144043</ele>
        <time>2017-10-08T04:06:42Z</time>
      </trkpt>
      <trkpt lat="45.30069" lon="5.8946">
        <ele>347.4460144043</ele>
        <time>2017-10-08T04:06:46Z</time>
      </trkpt>
      <trkpt lat="45.30065" lon="5.89458">
        <ele>348.4460144043</ele>
        <time>2017-10-08T04:06:48Z</time>
      </trkpt>
      <trkpt lat="45.30062" lon="5.89451">
        <ele>347.4460144043</ele>
        <time>2017-10-08T04:06:52Z</time>
      </trkpt>
      <trkpt lat="45.30056" lon="5.89447">
        <ele>349.4460144043</ele>
        <time>2017-10-08T04:06:55Z</time>
      </trkpt>
      <trkpt lat="45.30049" lon="5.89444">
        <ele>344.4460144043</ele>
        <time>2017-10-08T04:06:58Z</time>
      </trkpt>
      <trkpt lat="45.30044" lon="5.8944">
        <ele>343.4460144043</ele>
        <time>2017-10-08T04:07:00Z</time>
      </trkpt>
      <trkpt lat="45.30039" lon="5.89438">
        <ele>344.4460144043</ele>
        <time>2017-10-08T04:07:02Z</time>
      </trkpt>
      <trkpt lat="45.30033" lon="5.89435">
        <ele>346.4460144043</ele>
        <time>2017-10-08T04:07:04Z</time>
      </trkpt>
      <trkpt lat="45.30028" lon="5.89431">
        <ele>347.4460144043</ele>
        <time>2017-10-08T04:07:06Z</time>
      </trkpt>
      <trkpt lat="45.3002" lon="5.8943">
        <ele>348.4460144043</ele>
        <time>2017-10-08T04:07:08Z</time>
      </trkpt>
      <trkpt lat="45.30015" lon="5.89426">
        <ele>347.4460144043</ele>
        <time>2017-10-08T04:07:10Z</time>
      </trkpt>
      <trkpt lat="45.30008" lon="5.89427">
        <ele>348.4460144043</ele>
        <time>2017-10-08T04:07:12Z</time>
      </trkpt>
      <trkpt lat="45.29999" lon="5.89426">
        <ele>348.4460144043</ele>
        <time>2017-10-08T04:07:14Z</time>
      </trkpt>
      <trkpt lat="45.29994" lon="5.89426">
        <ele>347.4460144043</ele>
        <time>2017-10-08T04:07:16Z</time>
      </trkpt>
      <trkpt lat="45.30004" lon="5.89424">
        <ele>343.4460144043</ele>
        <time>2017-10-08T04:07:19Z</time>
      </trkpt>
      <trkpt lat="45.30007" lon="5.89415">
        <ele>345.4460144043</ele>
        <time>2017-10-08T04:07:31Z</time>
      </trkpt>
      <trkpt lat="45.30009" lon="5.89409">
        <ele>345.4460144043</ele>
        <time>2017-10-08T04:07:33Z</time>
      </trkpt>
      <trkpt lat="45.30013" lon="5.89404">
        <ele>350.4460144043</ele>
        <time>2017-10-08T04:07:37Z</time>
      </trkpt>
      <trkpt lat="45.30016" lon="5.89398">
        <ele>351.4460144043</ele>
        <time>2017-10-08T04:07:41Z</time>
      </trkpt>
      <trkpt lat="45.30018" lon="5.89392">
        <ele>351.4460144043</ele>
        <time>2017-10-08T04:07:44Z</time>
      </trkpt>
      <trkpt lat="45.3002" lon="5.89384">
        <ele>352.4460144043</ele>
        <time>2017-10-08T04:07:48Z</time>
      </trkpt>
      <trkpt lat="45.30025" lon="5.89379">
        <ele>356.4460144043</ele>
        <time>2017-10-08T04:07:54Z</time>
      </trkpt>
      <trkpt lat="45.30029" lon="5.89376">
        <ele>356.4460144043</ele>
        <time>2017-10-08T04:07:56Z</time>
      </trkpt>
      <trkpt lat="45.30039" lon="5.89374">
        <ele>359.4460144043</ele>
        <time>2017-10-08T04:07:58Z</time>
      </trkpt>
      <trkpt lat="45.30034" lon="5.89371">
        <ele>358.4460144043</ele>
        <time>2017-10-08T04:08:01Z</time>
      </trkpt>
      <trkpt lat="45.30039" lon="5.89369">
        <ele>361.4460144043</ele>
        <time>2017-10-08T04:08:05Z</time>
      </trkpt>
      <trkpt lat="45.30041" lon="5.89362">
        <ele>360.4460144043</ele>
        <time>2017-10-08T04:08:08Z</time>
      </trkpt>
      <trkpt lat="45.30043" lon="5.89356">
        <ele>361.4460144043</ele>
        <time>2017-10-08T04:08:11Z</time>
      </trkpt>
      <trkpt lat="45.30036" lon="5.89356">
        <ele>360.4460144043</ele>
        <time>2017-10-08T04:08:13Z</time>
      </trkpt>
      <trkpt lat="45.3004" lon="5.89354">
        <ele>367.4460144043</ele>
        <time>2017-10-08T04:08:19Z</time>
      </trkpt>
      <trkpt lat="45.3005" lon="5.89355">
        <ele>371.4460144043</ele>
        <time>2017-10-08T04:08:22Z</time>
      </trkpt>
      <trkpt lat="45.30055" lon="5.89355">
        <ele>373.4460144043</ele>
        <time>2017-10-08T04:08:24Z</time>
      </trkpt>
      <trkpt lat="45.3006" lon="5.89356">
        <ele>377.4460144043</ele>
        <time>2017-10-08T04:08:32Z</time>
      </trkpt>
      <trkpt lat="45.30065" lon="5.89355">
        <ele>380.4460144043</ele>
        <time>2017-10-08T04:08:42Z</time>
      </trkpt>
      <trkpt lat="45.30068" lon="5.8936">
        <ele>382.4460144043</ele>
        <time>2017-10-08T04:08:51Z</time>
      </trkpt>
      <trkpt lat="45.30074" lon="5.89363">
        <ele>385.4460144043</ele>
        <time>2017-10-08T04:09:02Z</time>
      </trkpt>
      <trkpt lat="45.30086" lon="5.89364">
        <ele>386.4460144043</ele>
        <time>2017-10-08T04:09:05Z</time>
      </trkpt>
      <trkpt lat="45.30095" lon="5.89366">
        <ele>387.4460144043</ele>
        <time>2017-10-08T04:09:11Z</time>
      </trkpt>
      <trkpt lat="45.30101" lon="5.89365">
        <ele>389.4460144043</ele>
        <time>2017-10-08T04:09:24Z</time>
      </trkpt>
      <trkpt lat="45.30112" lon="5.89366">
        <ele>389.4460144043</ele>
        <time>2017-10-08T04:09:26Z</time>
      </trkpt>
      <trkpt lat="45.30121" lon="5.89361">
        <ele>390.4460144043</ele>
        <time>2017-10-08T04:09:36Z</time>
      </trkpt>
      <trkpt lat="45.30125" lon="5.89366">
        <ele>396.4460144043</ele>
        <time>2017-10-08T04:09:42Z</time>
      </trkpt>
      <trkpt lat="45.3013" lon="5.89368">
        <ele>398.4460144043</ele>
        <time>2017-10-08T04:09:47Z</time>
      </trkpt>
      <trkpt lat="45.30136" lon="5.89369">
        <ele>401.4460144043</ele>
        <time>2017-10-08T04:09:51Z</time>
      </trkpt>
      <trkpt lat="45.30143" lon="5.8937">
        <ele>402.4460144043</ele>
        <time>2017-10-08T04:09:54Z</time>
      </trkpt>
      <trkpt lat="45.30148" lon="5.89372">
        <ele>405.4460144043</ele>
        <time>2017-10-08T04:09:58Z</time>
      </trkpt>
      <trkpt lat="45.30153" lon="5.89373">
        <ele>407.4460144043</ele>
        <time>2017-10-08T04:10:16Z</time>
      </trkpt>
      <trkpt lat="45.3016" lon="5.89373">
        <ele>407.4460144043</ele>
        <time>2017-10-08T04:10:19Z</time>
      </trkpt>
      <trkpt lat="45.30167" lon="5.89372">
        <ele>407.4460144043</ele>
        <time>2017-10-08T04:10:21Z</time>
      </trkpt>
      <trkpt lat="45.30172" lon="5.89372">
        <ele>410.4460144043</ele>
        <time>2017-10-08T04:10:24Z</time>
      </trkpt>
      <trkpt lat="45.30177" lon="5.89367">
        <ele>410.4460144043</ele>
        <time>2017-10-08T04:10:30Z</time>
      </trkpt>
      <trkpt lat="45.3019" lon="5.8937">
        <ele>408.4460144043</ele>
        <time>2017-10-08T04:10:32Z</time>
      </trkpt>
      <trkpt lat="45.30185" lon="5.89368">
        <ele>408.4460144043</ele>
        <time>2017-10-08T04:10:33Z</time>
      </trkpt>
      <trkpt lat="45.30193" lon="5.89368">
        <ele>405.4460144043</ele>
        <time>2017-10-08T04:10:37Z</time>
      </trkpt>
      <trkpt lat="45.30199" lon="5.89369">
        <ele>409.4460144043</ele>
        <time>2017-10-08T04:11:02Z</time>
      </trkpt>
      <trkpt lat="45.3021" lon="5.89372">
        <ele>410.4460144043</ele>
        <time>2017-10-08T04:11:04Z</time>
      </trkpt>
      <trkpt lat="45.30215" lon="5.89375">
        <ele>412.4460144043</ele>
        <time>2017-10-08T04:11:07Z</time>
      </trkpt>
      <trkpt lat="45.30221" lon="5.89374">
        <ele>414.4460144043</ele>
        <time>2017-10-08T04:11:09Z</time>
      </trkpt>
      <trkpt lat="45.30226" lon="5.89373">
        <ele>415.4460144043</ele>
        <time>2017-10-08T04:11:13Z</time>
      </trkpt>
      <trkpt lat="45.30232" lon="5.89373">
        <ele>415.4460144043</ele>
        <time>2017-10-08T04:11:16Z</time>
      </trkpt>
      <trkpt lat="45.30236" lon="5.89371">
        <ele>416.4460144043</ele>
        <time>2017-10-08T04:11:20Z</time>
      </trkpt>
      <trkpt lat="45.30241" lon="5.89368">
        <ele>418.4460144043</ele>
        <time>2017-10-08T04:11:25Z</time>
      </trkpt>
      <trkpt lat="45.30244" lon="5.89364">
        <ele>421.4460144043</ele>
        <time>2017-10-08T04:11:29Z</time>
      </trkpt>
      <trkpt lat="45.30248" lon="5.89361">
        <ele>425.4460144043</ele>
        <time>2017-10-08T04:11:37Z</time>
      </trkpt>
      <trkpt lat="45.30251" lon="5.89355">
        <ele>426.4460144043</ele>
        <time>2017-10-08T04:11:43Z</time>
      </trkpt>
      <trkpt lat="45.30254" lon="5.89348">
        <ele>427.4460144043</ele>
        <time>2017-10-08T04:11:49Z</time>
      </trkpt>
      <trkpt lat="45.30258" lon="5.89346">
        <ele>428.4460144043</ele>
        <time>2017-10-08T04:11:52Z</time>
      </trkpt>
      <trkpt lat="45.30263" lon="5.89344">
        <ele>434.4460144043</ele>
        <time>2017-10-08T04:11:59Z</time>
      </trkpt>
      <trkpt lat="45.30269" lon="5.89344">
        <ele>438.4460144043</ele>
        <time>2017-10-08T04:12:30Z</time>
      </trkpt>
      <trkpt lat="45.30272" lon="5.89336">
        <ele>438.4460144043</ele>
        <time>2017-10-08T04:12:33Z</time>
      </trkpt>
      <trkpt lat="45.30276" lon="5.89335">
        <ele>439.4460144043</ele>
        <time>2017-10-08T04:12:35Z</time>
      </trkpt>
      <trkpt lat="45.30282" lon="5.89333">
        <ele>440.4460144043</ele>
        <time>2017-10-08T04:12:37Z</time>
      </trkpt>
      <trkpt lat="45.30287" lon="5.89327">
        <ele>442.4460144043</ele>
        <time>2017-10-08T04:12:42Z</time>
      </trkpt>
      <trkpt lat="45.3029" lon="5.89321">
        <ele>446.4460144043</ele>
        <time>2017-10-08T04:12:47Z</time>
      </trkpt>
      <trkpt lat="45.30295" lon="5.89318">
        <ele>449.4460144043</ele>
        <time>2017-10-08T04:12:51Z</time>
      </trkpt>
      <trkpt lat="45.303" lon="5.89315">
        <ele>454.4460144043</ele>
        <time>2017-10-08T04:12:55Z</time>
      </trkpt>
      <trkpt lat="45.30302" lon="5.8931">
        <ele>455.4460144043</ele>
        <time>2017-10-08T04:13:09Z</time>
      </trkpt>
      <trkpt lat="45.30301" lon="5.89303">
        <ele>457.4460144043</ele>
        <time>2017-10-08T04:13:19Z</time>
      </trkpt>
      <trkpt lat="45.30302" lon="5.89297">
        <ele>456.4460144043</ele>
        <time>2017-10-08T04:13:22Z</time>
      </trkpt>
      <trkpt lat="45.30302" lon="5.8929">
        <ele>455.4460144043</ele>
        <time>2017-10-08T04:13:24Z</time>
      </trkpt>
      <trkpt lat="45.30303" lon="5.89284">
        <ele>454.4460144043</ele>
        <time>2017-10-08T04:13:26Z</time>
      </trkpt>
      <trkpt lat="45.30305" lon="5.89277">
        <ele>455.4460144043</ele>
        <time>2017-10-08T04:13:30Z</time>
      </trkpt>
      <trkpt lat="45.30309" lon="5.89275">
        <ele>456.4460144043</ele>
        <time>2017-10-08T04:13:32Z</time>
      </trkpt>
      <trkpt lat="45.30312" lon="5.89269">
        <ele>458.4460144043</ele>
        <time>2017-10-08T04:13:35Z</time>
      </trkpt>
      <trkpt lat="45.30314" lon="5.89263">
        <ele>460.4460144043</ele>
        <time>2017-10-08T04:13:40Z</time>
      </trkpt>
      <trkpt lat="45.30319" lon="5.89259">
        <ele>462.4460144043</ele>
        <time>2017-10-08T04:13:42Z</time>
      </trkpt>
      <trkpt lat="45.30323" lon="5.89256">
        <ele>466.4460144043</ele>
        <time>2017-10-08T04:13:45Z</time>
      </trkpt>
      <trkpt lat="45.30325" lon="5.8925">
        <ele>344.4460144043</ele>
        <time>2017-10-08T04:13:49Z</time>
      </trkpt>
      <trkpt lat="45.30328" lon="5.89244">
        <ele>398.4460144043</ele>
        <time>2017-10-08T04:13:52Z</time>
      </trkpt>
      <trkpt lat="45.30333" lon="5.89237">
        <ele>455.4460144043</ele>
        <time>2017-10-08T04:14:05Z</time>
      </trkpt>
      <trkpt lat="45.30337" lon="5.89234">
        <ele>463.4460144043</ele>
        <time>2017-10-08T04:14:11Z</time>
      </trkpt>
      <trkpt lat="45.30341" lon="5.8923">
        <ele>471.4460144043</ele>
        <time>2017-10-08T04:14:15Z</time>
      </trkpt>
      <trkpt lat="45.30344" lon="5.89225">
        <ele>477.4460144043</ele>
        <time>2017-10-08T04:14:29Z</time>
      </trkpt>
      <trkpt lat="45.30347" lon="5.89219">
        <ele>476.4460144043</ele>
        <time>2017-10-08T04:14:31Z</time>
      </trkpt>
      <trkpt lat="45.30351" lon="5.89212">
        <ele>479.4460144043</ele>
        <time>2017-10-08T04:14:35Z</time>
      </trkpt>
      <trkpt lat="45.30352" lon="5.89206">
        <ele>481.4460144043</ele>
        <time>2017-10-08T04:14:38Z</time>
      </trkpt>
      <trkpt lat="45.30354" lon="5.89199">
        <ele>480.4460144043</ele>
        <time>2017-10-08T04:14:40Z</time>
      </trkpt>
      <trkpt lat="45.30354" lon="5.89192">
        <ele>477.4460144043</ele>
        <time>2017-10-08T04:14:43Z</time>
      </trkpt>
      <trkpt lat="45.30358" lon="5.89187">
        <ele>480.4460144043</ele>
        <time>2017-10-08T04:14:46Z</time>
      </trkpt>
      <trkpt lat="45.3036" lon="5.89182">
        <ele>480.4460144043</ele>
        <time>2017-10-08T04:14:50Z</time>
      </trkpt>
      <trkpt lat="45.30363" lon="5.89177">
        <ele>478.4460144043</ele>
        <time>2017-10-08T04:14:53Z</time>
      </trkpt>
      <trkpt lat="45.30367" lon="5.89172">
        <ele>478.4460144043</ele>
        <time>2017-10-08T04:14:56Z</time>
      </trkpt>
      <trkpt lat="45.3037" lon="5.89165">
        <ele>480.4460144043</ele>
        <time>2017-10-08T04:15:00Z</time>
      </trkpt>
      <trkpt lat="45.30374" lon="5.89159">
        <ele>484.4460144043</ele>
        <time>2017-10-08T04:15:07Z</time>
      </trkpt>
      <trkpt lat="45.30371" lon="5.89153">
        <ele>485.4460144043</ele>
        <time>2017-10-08T04:15:10Z</time>
      </trkpt>
      <trkpt lat="45.30379" lon="5.89152">
        <ele>490.4460144043</ele>
        <time>2017-10-08T04:15:16Z</time>
      </trkpt>
      <trkpt lat="45.30381" lon="5.89158">
        <ele>493.4460144043</ele>
        <time>2017-10-08T04:15:21Z</time>
      </trkpt>
      <trkpt lat="45.30386" lon="5.89156">
        <ele>493.4460144043</ele>
        <time>2017-10-08T04:15:23Z</time>
      </trkpt>
      <trkpt lat="45.30381" lon="5.89157">
        <ele>496.4460144043</ele>
        <time>2017-10-08T04:15:28Z</time>
      </trkpt>
      <trkpt lat="45.30386" lon="5.8916">
        <ele>497.4460144043</ele>
        <time>2017-10-08T04:15:31Z</time>
      </trkpt>
      <trkpt lat="45.3039" lon="5.89163">
        <ele>498.4460144043</ele>
        <time>2017-10-08T04:15:35Z</time>
      </trkpt>
      <trkpt lat="45.30396" lon="5.89169">
        <ele>499.4460144043</ele>
        <time>2017-10-08T04:16:08Z</time>
      </trkpt>
      <trkpt lat="45.30402" lon="5.89173">
        <ele>497.4460144043</ele>
        <time>2017-10-08T04:16:15Z</time>
      </trkpt>
      <trkpt lat="45.30408" lon="5.89175">
        <ele>498.4460144043</ele>
        <time>2017-10-08T04:16:18Z</time>
      </trkpt>
      <trkpt lat="45.30415" lon="5.89178">
        <ele>499.4460144043</ele>
        <time>2017-10-08T04:16:21Z</time>
      </trkpt>
      <trkpt lat="45.30421" lon="5.89178">
        <ele>500.4460144043</ele>
        <time>2017-10-08T04:16:23Z</time>
      </trkpt>
      <trkpt lat="45.30424" lon="5.89184">
        <ele>504.4460144043</ele>
        <time>2017-10-08T04:16:27Z</time>
      </trkpt>
      <trkpt lat="45.30428" lon="5.89188">
        <ele>508.4460144043</ele>
        <time>2017-10-08T04:16:32Z</time>
      </trkpt>
      <trkpt lat="45.30431" lon="5.89192">
        <ele>510.4460144043</ele>
        <time>2017-10-08T04:16:35Z</time>
      </trkpt>
      <trkpt lat="45.30434" lon="5.89198">
        <ele>511.4460144043</ele>
        <time>2017-10-08T04:16:41Z</time>
      </trkpt>
      <trkpt lat="45.30441" lon="5.89202">
        <ele>511.4460144043</ele>
        <time>2017-10-08T04:16:44Z</time>
      </trkpt>
      <trkpt lat="45.30445" lon="5.89208">
        <ele>512.44598388672</ele>
        <time>2017-10-08T04:16:46Z</time>
      </trkpt>
      <trkpt lat="45.30449" lon="5.89213">
        <ele>513.44598388672</ele>
        <time>2017-10-08T04:16:48Z</time>
      </trkpt>
      <trkpt lat="45.30452" lon="5.89218">
        <ele>515.44598388672</ele>
        <time>2017-10-08T04:16:50Z</time>
      </trkpt>
      <trkpt lat="45.30456" lon="5.89224">
        <ele>519.44598388672</ele>
        <time>2017-10-08T04:16:53Z</time>
      </trkpt>
      <trkpt lat="45.30456" lon="5.89233">
        <ele>521.44598388672</ele>
        <time>2017-10-08T04:16:58Z</time>
      </trkpt>
      <trkpt lat="45.3046" lon="5.89236">
        <ele>522.44598388672</ele>
        <time>2017-10-08T04:17:02Z</time>
      </trkpt>
      <trkpt lat="45.30462" lon="5.89242">
        <ele>524.44598388672</ele>
        <time>2017-10-08T04:17:06Z</time>
      </trkpt>
      <trkpt lat="45.30468" lon="5.89247">
        <ele>529.44598388672</ele>
        <time>2017-10-08T04:17:36Z</time>
      </trkpt>
      <trkpt lat="45.30473" lon="5.89249">
        <ele>532.44598388672</ele>
        <time>2017-10-08T04:17:39Z</time>
      </trkpt>
      <trkpt lat="45.3048" lon="5.89252">
        <ele>534.44598388672</ele>
        <time>2017-10-08T04:17:42Z</time>
      </trkpt>
      <trkpt lat="45.30485" lon="5.89254">
        <ele>536.44598388672</ele>
        <time>2017-10-08T04:17:44Z</time>
      </trkpt>
      <trkpt lat="45.3048" lon="5.89253">
        <ele>539.44598388672</ele>
        <time>2017-10-08T04:17:47Z</time>
      </trkpt>
      <trkpt lat="45.30487" lon="5.89254">
        <ele>540.44598388672</ele>
        <time>2017-10-08T04:17:50Z</time>
      </trkpt>
      <trkpt lat="45.3049" lon="5.89259">
        <ele>545.44702148438</ele>
        <time>2017-10-08T04:17:56Z</time>
      </trkpt>
      <trkpt lat="45.30497" lon="5.89259">
        <ele>545.44702148438</ele>
        <time>2017-10-08T04:17:58Z</time>
      </trkpt>
      <trkpt lat="45.30503" lon="5.89263">
        <ele>546.44702148438</ele>
        <time>2017-10-08T04:18:02Z</time>
      </trkpt>
      <trkpt lat="45.30507" lon="5.89259">
        <ele>545.44702148438</ele>
        <time>2017-10-08T04:18:06Z</time>
      </trkpt>
      <trkpt lat="45.30509" lon="5.89265">
        <ele>544.44702148438</ele>
        <time>2017-10-08T04:18:11Z</time>
      </trkpt>
      <trkpt lat="45.30509" lon="5.89272">
        <ele>544.44702148438</ele>
        <time>2017-10-08T04:18:14Z</time>
      </trkpt>
      <trkpt lat="45.30511" lon="5.89278">
        <ele>545.44702148438</ele>
        <time>2017-10-08T04:18:18Z</time>
      </trkpt>
      <trkpt lat="45.30511" lon="5.89285">
        <ele>548.44702148438</ele>
        <time>2017-10-08T04:18:21Z</time>
      </trkpt>
      <trkpt lat="45.30517" lon="5.89285">
        <ele>547.44702148438</ele>
        <time>2017-10-08T04:18:25Z</time>
      </trkpt>
      <trkpt lat="45.30519" lon="5.89292">
        <ele>548.44702148438</ele>
        <time>2017-10-08T04:18:28Z</time>
      </trkpt>
      <trkpt lat="45.30523" lon="5.89297">
        <ele>550.44702148438</ele>
        <time>2017-10-08T04:18:38Z</time>
      </trkpt>
      <trkpt lat="45.30528" lon="5.893">
        <ele>552.44702148438</ele>
        <time>2017-10-08T04:18:43Z</time>
      </trkpt>
      <trkpt lat="45.30527" lon="5.89307">
        <ele>554.44702148438</ele>
        <time>2017-10-08T04:18:47Z</time>
      </trkpt>
      <trkpt lat="45.30525" lon="5.89313">
        <ele>558.44702148438</ele>
        <time>2017-10-08T04:18:58Z</time>
      </trkpt>
      <trkpt lat="45.30524" lon="5.89319">
        <ele>562.44702148438</ele>
        <time>2017-10-08T04:19:09Z</time>
      </trkpt>
      <trkpt lat="45.30529" lon="5.89324">
        <ele>562.44702148438</ele>
        <time>2017-10-08T04:19:13Z</time>
      </trkpt>
      <trkpt lat="45.30529" lon="5.89331">
        <ele>568.44702148438</ele>
        <time>2017-10-08T04:19:17Z</time>
      </trkpt>
      <trkpt lat="45.30532" lon="5.89336">
        <ele>569.44702148438</ele>
        <time>2017-10-08T04:19:24Z</time>
      </trkpt>
      <trkpt lat="45.30535" lon="5.89342">
        <ele>568.44702148438</ele>
        <time>2017-10-08T04:19:31Z</time>
      </trkpt>
      <trkpt lat="45.3054" lon="5.89344">
        <ele>568.44702148438</ele>
        <time>2017-10-08T04:19:35Z</time>
      </trkpt>
      <trkpt lat="45.30543" lon="5.89349">
        <ele>570.44702148438</ele>
        <time>2017-10-08T04:19:41Z</time>
      </trkpt>
      <trkpt lat="45.30543" lon="5.89358">
        <ele>576.44702148438</ele>
        <time>2017-10-08T04:19:59Z</time>
      </trkpt>
      <trkpt lat="45.30544" lon="5.89366">
        <ele>581.44702148438</ele>
        <time>2017-10-08T04:20:04Z</time>
      </trkpt>
      <trkpt lat="45.30543" lon="5.89374">
        <ele>584.44702148438</ele>
        <time>2017-10-08T04:20:07Z</time>
      </trkpt>
      <trkpt lat="45.30547" lon="5.89379">
        <ele>585.44702148438</ele>
        <time>2017-10-08T04:20:11Z</time>
      </trkpt>
      <trkpt lat="45.30552" lon="5.89382">
        <ele>584.44702148438</ele>
        <time>2017-10-08T04:20:14Z</time>
      </trkpt>
      <trkpt lat="45.30555" lon="5.89386">
        <ele>586.44702148438</ele>
        <time>2017-10-08T04:20:18Z</time>
      </trkpt>
      <trkpt lat="45.3056" lon="5.8939">
        <ele>586.44702148438</ele>
        <time>2017-10-08T04:20:28Z</time>
      </trkpt>
      <trkpt lat="45.30563" lon="5.89396">
        <ele>587.44702148438</ele>
        <time>2017-10-08T04:20:39Z</time>
      </trkpt>
      <trkpt lat="45.30564" lon="5.89405">
        <ele>586.44702148438</ele>
        <time>2017-10-08T04:20:41Z</time>
      </trkpt>
      <trkpt lat="45.30566" lon="5.89412">
        <ele>590.44702148438</ele>
        <time>2017-10-08T04:20:50Z</time>
      </trkpt>
      <trkpt lat="45.30566" lon="5.8942">
        <ele>594.44702148438</ele>
        <time>2017-10-08T04:20:56Z</time>
      </trkpt>
      <trkpt lat="45.30567" lon="5.89427">
        <ele>597.44702148438</ele>
        <time>2017-10-08T04:21:00Z</time>
      </trkpt>
      <trkpt lat="45.30571" lon="5.8943">
        <ele>597.44702148438</ele>
        <time>2017-10-08T04:21:06Z</time>
      </trkpt>
      <trkpt lat="45.30577" lon="5.89431">
        <ele>598.44702148438</ele>
        <time>2017-10-08T04:21:11Z</time>
      </trkpt>
      <trkpt lat="45.30583" lon="5.89432">
        <ele>600.44702148438</ele>
        <time>2017-10-08T04:21:36Z</time>
      </trkpt>
      <trkpt lat="45.30587" lon="5.89433">
        <ele>600.44702148438</ele>
        <time>2017-10-08T04:21:37Z</time>
      </trkpt>
      <trkpt lat="45.30596" lon="5.89427">
        <ele>598.44702148438</ele>
        <time>2017-10-08T04:21:44Z</time>
      </trkpt>
      <trkpt lat="45.30602" lon="5.89426">
        <ele>598.44702148438</ele>
        <time>2017-10-08T04:21:46Z</time>
      </trkpt>
      <trkpt lat="45.30601" lon="5.89416">
        <ele>607.44702148438</ele>
        <time>2017-10-08T04:21:53Z</time>
      </trkpt>
      <trkpt lat="45.30605" lon="5.89413">
        <ele>610.44702148438</ele>
        <time>2017-10-08T04:21:58Z</time>
      </trkpt>
      <trkpt lat="45.30608" lon="5.89406">
        <ele>610.44702148438</ele>
        <time>2017-10-08T04:22:01Z</time>
      </trkpt>
      <trkpt lat="45.30605" lon="5.894">
        <ele>613.44702148438</ele>
        <time>2017-10-08T04:22:06Z</time>
      </trkpt>
      <trkpt lat="45.30602" lon="5.89395">
        <ele>614.44702148438</ele>
        <time>2017-10-08T04:22:09Z</time>
      </trkpt>
      <trkpt lat="45.30603" lon="5.89385">
        <ele>616.44702148438</ele>
        <time>2017-10-08T04:22:15Z</time>
      </trkpt>
      <trkpt lat="45.30603" lon="5.89379">
        <ele>617.44702148438</ele>
        <time>2017-10-08T04:22:19Z</time>
      </trkpt>
      <trkpt lat="45.30606" lon="5.89373">
        <ele>618.44702148438</ele>
        <time>2017-10-08T04:22:23Z</time>
      </trkpt>
      <trkpt lat="45.30604" lon="5.89364">
        <ele>623.44702148438</ele>
        <time>2017-10-08T04:22:29Z</time>
      </trkpt>
      <trkpt lat="45.30601" lon="5.89357">
        <ele>627.44702148438</ele>
        <time>2017-10-08T04:22:35Z</time>
      </trkpt>
      <trkpt lat="45.30597" lon="5.89352">
        <ele>630.44702148438</ele>
        <time>2017-10-08T04:22:37Z</time>
      </trkpt>
      <trkpt lat="45.30597" lon="5.89345">
        <ele>632.44702148438</ele>
        <time>2017-10-08T04:22:41Z</time>
      </trkpt>
      <trkpt lat="45.30602" lon="5.89349">
        <ele>637.44702148438</ele>
        <time>2017-10-08T04:22:53Z</time>
      </trkpt>
      <trkpt lat="45.30608" lon="5.89352">
        <ele>637.44702148438</ele>
        <time>2017-10-08T04:23:01Z</time>
      </trkpt>
      <trkpt lat="45.30612" lon="5.89351">
        <ele>640.44702148438</ele>
        <time>2017-10-08T04:23:06Z</time>
      </trkpt>
      <trkpt lat="45.30615" lon="5.89345">
        <ele>638.44702148438</ele>
        <time>2017-10-08T04:23:12Z</time>
      </trkpt>
      <trkpt lat="45.30619" lon="5.89342">
        <ele>635.44702148438</ele>
        <time>2017-10-08T04:23:16Z</time>
      </trkpt>
      <trkpt lat="45.30619" lon="5.89334">
        <ele>631.44702148438</ele>
        <time>2017-10-08T04:23:22Z</time>
      </trkpt>
      <trkpt lat="45.30619" lon="5.89328">
        <ele>634.44702148438</ele>
        <time>2017-10-08T04:23:29Z</time>
      </trkpt>
      <trkpt lat="45.30617" lon="5.89323">
        <ele>636.44702148438</ele>
        <time>2017-10-08T04:23:35Z</time>
      </trkpt>
      <trkpt lat="45.30621" lon="5.89319">
        <ele>637.44702148438</ele>
        <time>2017-10-08T04:23:40Z</time>
      </trkpt>
      <trkpt lat="45.30624" lon="5.89327">
        <ele>647.44702148438</ele>
        <time>2017-10-08T04:23:54Z</time>
      </trkpt>
      <trkpt lat="45.30631" lon="5.89333">
        <ele>648.44702148438</ele>
        <time>2017-10-08T04:23:58Z</time>
      </trkpt>
      <trkpt lat="45.30636" lon="5.89335">
        <ele>647.44702148438</ele>
        <time>2017-10-08T04:24:00Z</time>
      </trkpt>
      <trkpt lat="45.3064" lon="5.8934">
        <ele>649.44702148438</ele>
        <time>2017-10-08T04:24:03Z</time>
      </trkpt>
      <trkpt lat="45.30644" lon="5.89348">
        <ele>654.44702148438</ele>
        <time>2017-10-08T04:24:39Z</time>
      </trkpt>
      <trkpt lat="45.30649" lon="5.89349">
        <ele>655.44702148438</ele>
        <time>2017-10-08T04:24:44Z</time>
      </trkpt>
      <trkpt lat="45.30654" lon="5.89349">
        <ele>658.44702148438</ele>
        <time>2017-10-08T04:24:51Z</time>
      </trkpt>
      <trkpt lat="45.30659" lon="5.89351">
        <ele>657.44702148438</ele>
        <time>2017-10-08T04:24:55Z</time>
      </trkpt>
      <trkpt lat="45.30665" lon="5.89348">
        <ele>659.44702148438</ele>
        <time>2017-10-08T04:24:59Z</time>
      </trkpt>
      <trkpt lat="45.30671" lon="5.89348">
        <ele>662.44702148438</ele>
        <time>2017-10-08T04:25:03Z</time>
      </trkpt>
      <trkpt lat="45.30675" lon="5.89344">
        <ele>663.44702148438</ele>
        <time>2017-10-08T04:25:07Z</time>
      </trkpt>
      <trkpt lat="45.30673" lon="5.89337">
        <ele>663.44702148438</ele>
        <time>2017-10-08T04:25:10Z</time>
      </trkpt>
      <trkpt lat="45.30679" lon="5.89334">
        <ele>666.44702148438</ele>
        <time>2017-10-08T04:25:13Z</time>
      </trkpt>
      <trkpt lat="45.30674" lon="5.89331">
        <ele>668.44702148438</ele>
        <time>2017-10-08T04:25:15Z</time>
      </trkpt>
      <trkpt lat="45.30678" lon="5.89332">
        <ele>671.44702148438</ele>
        <time>2017-10-08T04:25:30Z</time>
      </trkpt>
      <trkpt lat="45.30684" lon="5.89336">
        <ele>670.44702148438</ele>
        <time>2017-10-08T04:25:38Z</time>
      </trkpt>
      <trkpt lat="45.3069" lon="5.8934">
        <ele>672.44702148438</ele>
        <time>2017-10-08T04:25:40Z</time>
      </trkpt>
      <trkpt lat="45.30693" lon="5.89345">
        <ele>674.44702148438</ele>
        <time>2017-10-08T04:25:51Z</time>
      </trkpt>
      <trkpt lat="45.30698" lon="5.89349">
        <ele>675.44702148438</ele>
        <time>2017-10-08T04:25:56Z</time>
      </trkpt>
      <trkpt lat="45.30706" lon="5.89348">
        <ele>677.44702148438</ele>
        <time>2017-10-08T04:25:59Z</time>
      </trkpt>
      <trkpt lat="45.30702" lon="5.89345">
        <ele>676.44702148438</ele>
        <time>2017-10-08T04:26:03Z</time>
      </trkpt>
      <trkpt lat="45.30706" lon="5.89341">
        <ele>680.44702148438</ele>
        <time>2017-10-08T04:26:13Z</time>
      </trkpt>
      <trkpt lat="45.30705" lon="5.89334">
        <ele>682.44702148438</ele>
        <time>2017-10-08T04:26:17Z</time>
      </trkpt>
      <trkpt lat="45.30701" lon="5.89329">
        <ele>688.44702148438</ele>
        <time>2017-10-08T04:26:21Z</time>
      </trkpt>
      <trkpt lat="45.307" lon="5.89322">
        <ele>691.44702148438</ele>
        <time>2017-10-08T04:26:26Z</time>
      </trkpt>
      <trkpt lat="45.30695" lon="5.89313">
        <ele>694.44702148438</ele>
        <time>2017-10-08T04:26:31Z</time>
      </trkpt>
      <trkpt lat="45.30693" lon="5.89306">
        <ele>701.44702148438</ele>
        <time>2017-10-08T04:26:37Z</time>
      </trkpt>
      <trkpt lat="45.30695" lon="5.893">
        <ele>703.44702148438</ele>
        <time>2017-10-08T04:26:44Z</time>
      </trkpt>
      <trkpt lat="45.30696" lon="5.89294">
        <ele>704.44702148438</ele>
        <time>2017-10-08T04:26:48Z</time>
      </trkpt>
      <trkpt lat="45.30695" lon="5.89285">
        <ele>704.44702148438</ele>
        <time>2017-10-08T04:26:53Z</time>
      </trkpt>
      <trkpt lat="45.30698" lon="5.89279">
        <ele>703.44702148438</ele>
        <time>2017-10-08T04:26:55Z</time>
      </trkpt>
      <trkpt lat="45.30701" lon="5.89272">
        <ele>706.44702148438</ele>
        <time>2017-10-08T04:26:59Z</time>
      </trkpt>
      <trkpt lat="45.30695" lon="5.89269">
        <ele>707.44702148438</ele>
        <time>2017-10-08T04:27:01Z</time>
      </trkpt>
      <trkpt lat="45.30701" lon="5.89265">
        <ele>706.44702148438</ele>
        <time>2017-10-08T04:27:03Z</time>
      </trkpt>
      <trkpt lat="45.307" lon="5.89256">
        <ele>707.44702148438</ele>
        <time>2017-10-08T04:27:09Z</time>
      </trkpt>
      <trkpt lat="45.30701" lon="5.89246">
        <ele>707.44702148438</ele>
        <time>2017-10-08T04:27:19Z</time>
      </trkpt>
      <trkpt lat="45.30704" lon="5.89241">
        <ele>706.44702148438</ele>
        <time>2017-10-08T04:27:24Z</time>
      </trkpt>
      <trkpt lat="45.30701" lon="5.89236">
        <ele>709.44702148438</ele>
        <time>2017-10-08T04:27:29Z</time>
      </trkpt>
      <trkpt lat="45.30702" lon="5.8923">
        <ele>708.44702148438</ele>
        <time>2017-10-08T04:27:32Z</time>
      </trkpt>
      <trkpt lat="45.30705" lon="5.89222">
        <ele>710.44702148438</ele>
        <time>2017-10-08T04:27:39Z</time>
      </trkpt>
      <trkpt lat="45.30706" lon="5.89215">
        <ele>713.44702148438</ele>
        <time>2017-10-08T04:27:44Z</time>
      </trkpt>
      <trkpt lat="45.30706" lon="5.89208">
        <ele>717.44702148438</ele>
        <time>2017-10-08T04:27:49Z</time>
      </trkpt>
      <trkpt lat="45.30705" lon="5.89202">
        <ele>717.44702148438</ele>
        <time>2017-10-08T04:28:00Z</time>
      </trkpt>
      <trkpt lat="45.30701" lon="5.89195">
        <ele>720.44702148438</ele>
        <time>2017-10-08T04:28:15Z</time>
      </trkpt>
      <trkpt lat="45.307" lon="5.89187">
        <ele>721.44702148438</ele>
        <time>2017-10-08T04:28:19Z</time>
      </trkpt>
      <trkpt lat="45.30698" lon="5.89181">
        <ele>721.44702148438</ele>
        <time>2017-10-08T04:28:23Z</time>
      </trkpt>
      <trkpt lat="45.30698" lon="5.8917">
        <ele>721.44702148438</ele>
        <time>2017-10-08T04:28:28Z</time>
      </trkpt>
      <trkpt lat="45.30698" lon="5.89164">
        <ele>724.44702148438</ele>
        <time>2017-10-08T04:28:30Z</time>
      </trkpt>
      <trkpt lat="45.30703" lon="5.89159">
        <ele>724.44702148438</ele>
        <time>2017-10-08T04:28:32Z</time>
      </trkpt>
      <trkpt lat="45.30706" lon="5.89154">
        <ele>723.44702148438</ele>
        <time>2017-10-08T04:28:34Z</time>
      </trkpt>
      <trkpt lat="45.30703" lon="5.89148">
        <ele>724.44702148438</ele>
        <time>2017-10-08T04:28:36Z</time>
      </trkpt>
      <trkpt lat="45.30702" lon="5.89137">
        <ele>730.44702148438</ele>
        <time>2017-10-08T04:28:44Z</time>
      </trkpt>
      <trkpt lat="45.30702" lon="5.8913">
        <ele>731.44702148438</ele>
        <time>2017-10-08T04:28:51Z</time>
      </trkpt>
      <trkpt lat="45.30697" lon="5.89126">
        <ele>736.44702148438</ele>
        <time>2017-10-08T04:28:56Z</time>
      </trkpt>
      <trkpt lat="45.30692" lon="5.89121">
        <ele>741.44702148438</ele>
        <time>2017-10-08T04:29:06Z</time>
      </trkpt>
      <trkpt lat="45.3069" lon="5.89113">
        <ele>741.44702148438</ele>
        <time>2017-10-08T04:29:08Z</time>
      </trkpt>
      <trkpt lat="45.30686" lon="5.89109">
        <ele>744.44702148438</ele>
        <time>2017-10-08T04:29:10Z</time>
      </trkpt>
      <trkpt lat="45.30685" lon="5.89102">
        <ele>746.44702148438</ele>
        <time>2017-10-08T04:29:13Z</time>
      </trkpt>
      <trkpt lat="45.30684" lon="5.89095">
        <ele>745.44702148438</ele>
        <time>2017-10-08T04:29:17Z</time>
      </trkpt>
      <trkpt lat="45.30683" lon="5.89088">
        <ele>749.44702148438</ele>
        <time>2017-10-08T04:29:22Z</time>
      </trkpt>
      <trkpt lat="45.3069" lon="5.89087">
        <ele>753.44702148438</ele>
        <time>2017-10-08T04:29:53Z</time>
      </trkpt>
      <trkpt lat="45.30696" lon="5.8909">
        <ele>755.44702148438</ele>
        <time>2017-10-08T04:29:55Z</time>
      </trkpt>
      <trkpt lat="45.30703" lon="5.89092">
        <ele>755.44702148438</ele>
        <time>2017-10-08T04:29:58Z</time>
      </trkpt>
      <trkpt lat="45.30707" lon="5.89094">
        <ele>756.44702148438</ele>
        <time>2017-10-08T04:30:01Z</time>
      </trkpt>
      <trkpt lat="45.30713" lon="5.891">
        <ele>759.44702148438</ele>
        <time>2017-10-08T04:30:04Z</time>
      </trkpt>
      <trkpt lat="45.30717" lon="5.89102">
        <ele>761.44702148438</ele>
        <time>2017-10-08T04:30:07Z</time>
      </trkpt>
      <trkpt lat="45.30723" lon="5.89105">
        <ele>763.44702148438</ele>
        <time>2017-10-08T04:30:13Z</time>
      </trkpt>
      <trkpt lat="45.30728" lon="5.89108">
        <ele>765.44702148438</ele>
        <time>2017-10-08T04:30:16Z</time>
      </trkpt>
      <trkpt lat="45.30733" lon="5.89113">
        <ele>768.44702148438</ele>
        <time>2017-10-08T04:30:38Z</time>
      </trkpt>
      <trkpt lat="45.30738" lon="5.89119">
        <ele>769.44702148438</ele>
        <time>2017-10-08T04:30:42Z</time>
      </trkpt>
      <trkpt lat="45.30743" lon="5.89122">
        <ele>769.44702148438</ele>
        <time>2017-10-08T04:30:44Z</time>
      </trkpt>
      <trkpt lat="45.30746" lon="5.89129">
        <ele>774.44702148438</ele>
        <time>2017-10-08T04:30:49Z</time>
      </trkpt>
      <trkpt lat="45.3075" lon="5.89132">
        <ele>775.44702148438</ele>
        <time>2017-10-08T04:30:55Z</time>
      </trkpt>
      <trkpt lat="45.30753" lon="5.89136">
        <ele>775.44702148438</ele>
        <time>2017-10-08T04:30:57Z</time>
      </trkpt>
      <trkpt lat="45.30757" lon="5.89139">
        <ele>775.44702148438</ele>
        <time>2017-10-08T04:30:59Z</time>
      </trkpt>
      <trkpt lat="45.30761" lon="5.89143">
        <ele>778.44702148438</ele>
        <time>2017-10-08T04:31:05Z</time>
      </trkpt>
      <trkpt lat="45.30765" lon="5.89148">
        <ele>778.44702148438</ele>
        <time>2017-10-08T04:31:09Z</time>
      </trkpt>
      <trkpt lat="45.30766" lon="5.89154">
        <ele>780.44702148438</ele>
        <time>2017-10-08T04:31:12Z</time>
      </trkpt>
      <trkpt lat="45.30769" lon="5.8916">
        <ele>780.44702148438</ele>
        <time>2017-10-08T04:31:18Z</time>
      </trkpt>
      <trkpt lat="45.30772" lon="5.89166">
        <ele>781.44702148438</ele>
        <time>2017-10-08T04:31:21Z</time>
      </trkpt>
      <trkpt lat="45.30776" lon="5.89171">
        <ele>781.44702148438</ele>
        <time>2017-10-08T04:31:26Z</time>
      </trkpt>
      <trkpt lat="45.30781" lon="5.89174">
        <ele>781.44702148438</ele>
        <time>2017-10-08T04:31:31Z</time>
      </trkpt>
      <trkpt lat="45.30786" lon="5.8918">
        <ele>779.44702148438</ele>
        <time>2017-10-08T04:31:35Z</time>
      </trkpt>
      <trkpt lat="45.30787" lon="5.89172">
        <ele>780.44702148438</ele>
        <time>2017-10-08T04:31:40Z</time>
      </trkpt>
      <trkpt lat="45.30785" lon="5.89166">
        <ele>787.44702148438</ele>
        <time>2017-10-08T04:31:55Z</time>
      </trkpt>
      <trkpt lat="45.30785" lon="5.89159">
        <ele>786.44702148438</ele>
        <time>2017-10-08T04:32:00Z</time>
      </trkpt>
      <trkpt lat="45.30785" lon="5.8915">
        <ele>787.44702148438</ele>
        <time>2017-10-08T04:32:06Z</time>
      </trkpt>
      <trkpt lat="45.30789" lon="5.89142">
        <ele>785.44702148438</ele>
        <time>2017-10-08T04:32:10Z</time>
      </trkpt>
      <trkpt lat="45.30788" lon="5.89136">
        <ele>786.44702148438</ele>
        <time>2017-10-08T04:32:13Z</time>
      </trkpt>
      <trkpt lat="45.30791" lon="5.8913">
        <ele>785.44702148438</ele>
        <time>2017-10-08T04:32:15Z</time>
      </trkpt>
      <trkpt lat="45.30787" lon="5.89126">
        <ele>787.44702148438</ele>
        <time>2017-10-08T04:32:17Z</time>
      </trkpt>
      <trkpt lat="45.3079" lon="5.89118">
        <ele>467.4469909668</ele>
        <time>2017-10-08T04:32:19Z</time>
      </trkpt>
      <trkpt lat="45.30792" lon="5.89112">
        <ele>544.44702148438</ele>
        <time>2017-10-08T04:32:21Z</time>
      </trkpt>
      <trkpt lat="45.3079" lon="5.89104">
        <ele>649.44702148438</ele>
        <time>2017-10-08T04:32:25Z</time>
      </trkpt>
      <trkpt lat="45.30788" lon="5.89097">
        <ele>723.44702148438</ele>
        <time>2017-10-08T04:32:29Z</time>
      </trkpt>
      <trkpt lat="45.30784" lon="5.89101">
        <ele>738.44702148438</ele>
        <time>2017-10-08T04:32:30Z</time>
      </trkpt>
      <trkpt lat="45.30784" lon="5.89095">
        <ele>763.44702148438</ele>
        <time>2017-10-08T04:32:34Z</time>
      </trkpt>
      <trkpt lat="45.30786" lon="5.89087">
        <ele>769.44702148438</ele>
        <time>2017-10-08T04:32:36Z</time>
      </trkpt>
      <trkpt lat="45.30788" lon="5.89079">
        <ele>777.44702148438</ele>
        <time>2017-10-08T04:32:38Z</time>
      </trkpt>
      <trkpt lat="45.30787" lon="5.89073">
        <ele>783.44702148438</ele>
        <time>2017-10-08T04:32:41Z</time>
      </trkpt>
      <trkpt lat="45.30788" lon="5.89066">
        <ele>785.44702148438</ele>
        <time>2017-10-08T04:32:43Z</time>
      </trkpt>
      <trkpt lat="45.30782" lon="5.89065">
        <ele>783.44702148438</ele>
        <time>2017-10-08T04:32:47Z</time>
      </trkpt>
      <trkpt lat="45.30779" lon="5.89058">
        <ele>785.44702148438</ele>
        <time>2017-10-08T04:32:52Z</time>
      </trkpt>
      <trkpt lat="45.30775" lon="5.89054">
        <ele>791.44702148438</ele>
        <time>2017-10-08T04:32:57Z</time>
      </trkpt>
      <trkpt lat="45.3077" lon="5.89053">
        <ele>791.44702148438</ele>
        <time>2017-10-08T04:33:00Z</time>
      </trkpt>
      <trkpt lat="45.30768" lon="5.89043">
        <ele>792.44702148438</ele>
        <time>2017-10-08T04:33:02Z</time>
      </trkpt>
      <trkpt lat="45.30764" lon="5.89036">
        <ele>795.44702148438</ele>
        <time>2017-10-08T04:33:07Z</time>
      </trkpt>
      <trkpt lat="45.30759" lon="5.89041">
        <ele>795.44702148438</ele>
        <time>2017-10-08T04:33:10Z</time>
      </trkpt>
      <trkpt lat="45.30764" lon="5.89028">
        <ele>797.44702148438</ele>
        <time>2017-10-08T04:33:14Z</time>
      </trkpt>
      <trkpt lat="45.30759" lon="5.89023">
        <ele>797.44702148438</ele>
        <time>2017-10-08T04:33:19Z</time>
      </trkpt>
      <trkpt lat="45.30754" lon="5.89025">
        <ele>801.44702148438</ele>
        <time>2017-10-08T04:33:23Z</time>
      </trkpt>
      <trkpt lat="45.3075" lon="5.89021">
        <ele>803.44702148438</ele>
        <time>2017-10-08T04:33:28Z</time>
      </trkpt>
      <trkpt lat="45.3075" lon="5.89013">
        <ele>805.44702148438</ele>
        <time>2017-10-08T04:33:33Z</time>
      </trkpt>
      <trkpt lat="45.30746" lon="5.89008">
        <ele>808.44702148438</ele>
        <time>2017-10-08T04:33:41Z</time>
      </trkpt>
      <trkpt lat="45.30744" lon="5.88999">
        <ele>809.44702148438</ele>
        <time>2017-10-08T04:33:47Z</time>
      </trkpt>
      <trkpt lat="45.3074" lon="5.88996">
        <ele>811.44702148438</ele>
        <time>2017-10-08T04:33:53Z</time>
      </trkpt>
      <trkpt lat="45.30734" lon="5.88997">
        <ele>812.44702148438</ele>
        <time>2017-10-08T04:33:56Z</time>
      </trkpt>
      <trkpt lat="45.30736" lon="5.8899">
        <ele>812.44702148438</ele>
        <time>2017-10-08T04:33:59Z</time>
      </trkpt>
      <trkpt lat="45.30734" lon="5.88981">
        <ele>816.44702148438</ele>
        <time>2017-10-08T04:34:03Z</time>
      </trkpt>
      <trkpt lat="45.30736" lon="5.88971">
        <ele>816.44702148438</ele>
        <time>2017-10-08T04:34:06Z</time>
      </trkpt>
      <trkpt lat="45.3073" lon="5.88969">
        <ele>818.44702148438</ele>
        <time>2017-10-08T04:34:09Z</time>
      </trkpt>
      <trkpt lat="45.30727" lon="5.88963">
        <ele>819.44702148438</ele>
        <time>2017-10-08T04:34:13Z</time>
      </trkpt>
      <trkpt lat="45.30726" lon="5.88957">
        <ele>820.44702148438</ele>
        <time>2017-10-08T04:34:28Z</time>
      </trkpt>
      <trkpt lat="45.3072" lon="5.88953">
        <ele>827.44702148438</ele>
        <time>2017-10-08T04:34:32Z</time>
      </trkpt>
      <trkpt lat="45.30716" lon="5.88949">
        <ele>832.44702148438</ele>
        <time>2017-10-08T04:34:37Z</time>
      </trkpt>
      <trkpt lat="45.30718" lon="5.88943">
        <ele>834.44702148438</ele>
        <time>2017-10-08T04:34:42Z</time>
      </trkpt>
      <trkpt lat="45.30717" lon="5.88935">
        <ele>833.44702148438</ele>
        <time>2017-10-08T04:34:47Z</time>
      </trkpt>
      <trkpt lat="45.30719" lon="5.88928">
        <ele>836.44702148438</ele>
        <time>2017-10-08T04:35:35Z</time>
      </trkpt>
      <trkpt lat="45.3072" lon="5.88921">
        <ele>838.44702148438</ele>
        <time>2017-10-08T04:35:38Z</time>
      </trkpt>
      <trkpt lat="45.30724" lon="5.88917">
        <ele>839.44702148438</ele>
        <time>2017-10-08T04:35:44Z</time>
      </trkpt>
      <trkpt lat="45.30727" lon="5.88924">
        <ele>849.44702148438</ele>
        <time>2017-10-08T04:35:58Z</time>
      </trkpt>
      <trkpt lat="45.30731" lon="5.88929">
        <ele>851.44702148438</ele>
        <time>2017-10-08T04:36:02Z</time>
      </trkpt>
      <trkpt lat="45.30732" lon="5.88937">
        <ele>854.44702148438</ele>
        <time>2017-10-08T04:36:07Z</time>
      </trkpt>
      <trkpt lat="45.30736" lon="5.88942">
        <ele>854.44702148438</ele>
        <time>2017-10-08T04:36:10Z</time>
      </trkpt>
      <trkpt lat="45.30738" lon="5.88948">
        <ele>856.44702148438</ele>
        <time>2017-10-08T04:36:17Z</time>
      </trkpt>
      <trkpt lat="45.30742" lon="5.88951">
        <ele>857.44702148438</ele>
        <time>2017-10-08T04:36:24Z</time>
      </trkpt>
      <trkpt lat="45.30747" lon="5.88958">
        <ele>858.44702148438</ele>
        <time>2017-10-08T04:36:32Z</time>
      </trkpt>
      <trkpt lat="45.3075" lon="5.88965">
        <ele>859.44702148438</ele>
        <time>2017-10-08T04:36:35Z</time>
      </trkpt>
      <trkpt lat="45.30751" lon="5.88971">
        <ele>861.44702148438</ele>
        <time>2017-10-08T04:36:42Z</time>
      </trkpt>
      <trkpt lat="45.30753" lon="5.88979">
        <ele>861.44702148438</ele>
        <time>2017-10-08T04:36:45Z</time>
      </trkpt>
      <trkpt lat="45.3076" lon="5.88982">
        <ele>861.44702148438</ele>
        <time>2017-10-08T04:36:50Z</time>
      </trkpt>
      <trkpt lat="45.30762" lon="5.88988">
        <ele>864.44702148438</ele>
        <time>2017-10-08T04:36:54Z</time>
      </trkpt>
      <trkpt lat="45.30766" lon="5.88996">
        <ele>865.44702148438</ele>
        <time>2017-10-08T04:36:57Z</time>
      </trkpt>
      <trkpt lat="45.30767" lon="5.89002">
        <ele>867.44702148438</ele>
        <time>2017-10-08T04:37:00Z</time>
      </trkpt>
      <trkpt lat="45.3077" lon="5.89008">
        <ele>868.44702148438</ele>
        <time>2017-10-08T04:37:04Z</time>
      </trkpt>
      <trkpt lat="45.30772" lon="5.89016">
        <ele>869.44702148438</ele>
        <time>2017-10-08T04:37:07Z</time>
      </trkpt>
      <trkpt lat="45.30775" lon="5.89022">
        <ele>871.44702148438</ele>
        <time>2017-10-08T04:37:12Z</time>
      </trkpt>
      <trkpt lat="45.30778" lon="5.89028">
        <ele>868.44702148438</ele>
        <time>2017-10-08T04:37:18Z</time>
      </trkpt>
      <trkpt lat="45.30783" lon="5.89031">
        <ele>866.44702148438</ele>
        <time>2017-10-08T04:37:23Z</time>
      </trkpt>
      <trkpt lat="45.30788" lon="5.89034">
        <ele>869.44702148438</ele>
        <time>2017-10-08T04:37:26Z</time>
      </trkpt>
      <trkpt lat="45.30792" lon="5.89041">
        <ele>869.44702148438</ele>
        <time>2017-10-08T04:37:30Z</time>
      </trkpt>
      <trkpt lat="45.30793" lon="5.89048">
        <ele>871.44702148438</ele>
        <time>2017-10-08T04:37:34Z</time>
      </trkpt>
      <trkpt lat="45.30792" lon="5.89054">
        <ele>876.44702148438</ele>
        <time>2017-10-08T04:37:37Z</time>
      </trkpt>
      <trkpt lat="45.30794" lon="5.89059">
        <ele>878.44702148438</ele>
        <time>2017-10-08T04:37:42Z</time>
      </trkpt>
      <trkpt lat="45.30797" lon="5.89067">
        <ele>878.44702148438</ele>
        <time>2017-10-08T04:37:47Z</time>
      </trkpt>
      <trkpt lat="45.308" lon="5.89072">
        <ele>881.44702148438</ele>
        <time>2017-10-08T04:37:53Z</time>
      </trkpt>
      <trkpt lat="45.308" lon="5.89079">
        <ele>881.44702148438</ele>
        <time>2017-10-08T04:37:56Z</time>
      </trkpt>
      <trkpt lat="45.30805" lon="5.89082">
        <ele>881.44702148438</ele>
        <time>2017-10-08T04:38:00Z</time>
      </trkpt>
      <trkpt lat="45.30809" lon="5.89086">
        <ele>882.44702148438</ele>
        <time>2017-10-08T04:38:07Z</time>
      </trkpt>
      <trkpt lat="45.30812" lon="5.89093">
        <ele>885.44702148438</ele>
        <time>2017-10-08T04:38:19Z</time>
      </trkpt>
      <trkpt lat="45.30816" lon="5.89097">
        <ele>885.44702148438</ele>
        <time>2017-10-08T04:38:24Z</time>
      </trkpt>
      <trkpt lat="45.30818" lon="5.89103">
        <ele>890.44702148438</ele>
        <time>2017-10-08T04:38:31Z</time>
      </trkpt>
      <trkpt lat="45.30821" lon="5.89108">
        <ele>891.44702148438</ele>
        <time>2017-10-08T04:38:37Z</time>
      </trkpt>
      <trkpt lat="45.30825" lon="5.89114">
        <ele>889.44702148438</ele>
        <time>2017-10-08T04:38:42Z</time>
      </trkpt>
      <trkpt lat="45.3083" lon="5.8912">
        <ele>889.44702148438</ele>
        <time>2017-10-08T04:38:44Z</time>
      </trkpt>
      <trkpt lat="45.30834" lon="5.89126">
        <ele>892.44702148438</ele>
        <time>2017-10-08T04:38:47Z</time>
      </trkpt>
      <trkpt lat="45.30839" lon="5.89129">
        <ele>892.44702148438</ele>
        <time>2017-10-08T04:38:51Z</time>
      </trkpt>
      <trkpt lat="45.30844" lon="5.89127">
        <ele>890.44702148438</ele>
        <time>2017-10-08T04:38:54Z</time>
      </trkpt>
      <trkpt lat="45.30847" lon="5.89121">
        <ele>890.44702148438</ele>
        <time>2017-10-08T04:38:58Z</time>
      </trkpt>
      <trkpt lat="45.30851" lon="5.89117">
        <ele>889.44702148438</ele>
        <time>2017-10-08T04:39:02Z</time>
      </trkpt>
      <trkpt lat="45.30852" lon="5.8911">
        <ele>890.44702148438</ele>
        <time>2017-10-08T04:39:06Z</time>
      </trkpt>
      <trkpt lat="45.30855" lon="5.89104">
        <ele>891.44702148438</ele>
        <time>2017-10-08T04:39:10Z</time>
      </trkpt>
      <trkpt lat="45.30857" lon="5.89098">
        <ele>892.44702148438</ele>
        <time>2017-10-08T04:39:14Z</time>
      </trkpt>
      <trkpt lat="45.30863" lon="5.89096">
        <ele>893.44702148438</ele>
        <time>2017-10-08T04:39:16Z</time>
      </trkpt>
      <trkpt lat="45.30864" lon="5.89087">
        <ele>894.44702148438</ele>
        <time>2017-10-08T04:39:20Z</time>
      </trkpt>
      <trkpt lat="45.30862" lon="5.8908">
        <ele>895.44702148438</ele>
        <time>2017-10-08T04:39:25Z</time>
      </trkpt>
      <trkpt lat="45.3086" lon="5.89074">
        <ele>894.44702148438</ele>
        <time>2017-10-08T04:39:28Z</time>
      </trkpt>
      <trkpt lat="45.30861" lon="5.89066">
        <ele>895.44702148438</ele>
        <time>2017-10-08T04:39:31Z</time>
      </trkpt>
      <trkpt lat="45.30865" lon="5.89062">
        <ele>897.44702148438</ele>
        <time>2017-10-08T04:39:34Z</time>
      </trkpt>
      <trkpt lat="45.30867" lon="5.89055">
        <ele>897.44702148438</ele>
        <time>2017-10-08T04:39:38Z</time>
      </trkpt>
      <trkpt lat="45.30866" lon="5.89049">
        <ele>898.44702148438</ele>
        <time>2017-10-08T04:39:42Z</time>
      </trkpt>
      <trkpt lat="45.30868" lon="5.89043">
        <ele>900.44702148438</ele>
        <time>2017-10-08T04:39:45Z</time>
      </trkpt>
      <trkpt lat="45.30865" lon="5.89035">
        <ele>902.44702148438</ele>
        <time>2017-10-08T04:39:49Z</time>
      </trkpt>
      <trkpt lat="45.30865" lon="5.89027">
        <ele>904.44702148438</ele>
        <time>2017-10-08T04:39:54Z</time>
      </trkpt>
      <trkpt lat="45.30866" lon="5.8902">
        <ele>903.44702148438</ele>
        <time>2017-10-08T04:39:59Z</time>
      </trkpt>
      <trkpt lat="45.30866" lon="5.89013">
        <ele>901.44702148438</ele>
        <time>2017-10-08T04:40:03Z</time>
      </trkpt>
      <trkpt lat="45.30866" lon="5.89006">
        <ele>905.44702148438</ele>
        <time>2017-10-08T04:40:07Z</time>
      </trkpt>
      <trkpt lat="45.30866" lon="5.88999">
        <ele>906.44702148438</ele>
        <time>2017-10-08T04:40:10Z</time>
      </trkpt>
      <trkpt lat="45.30866" lon="5.8899">
        <ele>907.44702148438</ele>
        <time>2017-10-08T04:40:15Z</time>
      </trkpt>
      <trkpt lat="45.30865" lon="5.88981">
        <ele>906.44702148438</ele>
        <time>2017-10-08T04:40:18Z</time>
      </trkpt>
      <trkpt lat="45.30864" lon="5.88975">
        <ele>906.44702148438</ele>
        <time>2017-10-08T04:40:22Z</time>
      </trkpt>
      <trkpt lat="45.30865" lon="5.88966">
        <ele>909.44702148438</ele>
        <time>2017-10-08T04:40:26Z</time>
      </trkpt>
      <trkpt lat="45.30865" lon="5.88958">
        <ele>910.44702148438</ele>
        <time>2017-10-08T04:40:30Z</time>
      </trkpt>
      <trkpt lat="45.30862" lon="5.88953">
        <ele>910.44702148438</ele>
        <time>2017-10-08T04:40:33Z</time>
      </trkpt>
      <trkpt lat="45.30861" lon="5.88946">
        <ele>913.44702148438</ele>
        <time>2017-10-08T04:40:38Z</time>
      </trkpt>
      <trkpt lat="45.30861" lon="5.88939">
        <ele>915.44702148438</ele>
        <time>2017-10-08T04:40:41Z</time>
      </trkpt>
      <trkpt lat="45.30857" lon="5.88934">
        <ele>913.44702148438</ele>
        <time>2017-10-08T04:40:45Z</time>
      </trkpt>
      <trkpt lat="45.30856" lon="5.88928">
        <ele>917.44702148438</ele>
        <time>2017-10-08T04:40:53Z</time>
      </trkpt>
      <trkpt lat="45.30854" lon="5.8892">
        <ele>916.44702148438</ele>
        <time>2017-10-08T04:40:57Z</time>
      </trkpt>
      <trkpt lat="45.30855" lon="5.88912">
        <ele>918.44702148438</ele>
        <time>2017-10-08T04:41:00Z</time>
      </trkpt>
      <trkpt lat="45.30853" lon="5.88901">
        <ele>919.44702148438</ele>
        <time>2017-10-08T04:41:08Z</time>
      </trkpt>
      <trkpt lat="45.30852" lon="5.88895">
        <ele>918.44702148438</ele>
        <time>2017-10-08T04:41:13Z</time>
      </trkpt>
      <trkpt lat="45.30852" lon="5.88888">
        <ele>919.44702148438</ele>
        <time>2017-10-08T04:41:16Z</time>
      </trkpt>
      <trkpt lat="45.30857" lon="5.88888">
        <ele>922.44702148438</ele>
        <time>2017-10-08T04:41:21Z</time>
      </trkpt>
      <trkpt lat="45.30861" lon="5.88885">
        <ele>925.44702148438</ele>
        <time>2017-10-08T04:41:25Z</time>
      </trkpt>
      <trkpt lat="45.30866" lon="5.88884">
        <ele>927.44702148438</ele>
        <time>2017-10-08T04:41:28Z</time>
      </trkpt>
      <trkpt lat="45.30869" lon="5.88877">
        <ele>929.44702148438</ele>
        <time>2017-10-08T04:41:35Z</time>
      </trkpt>
      <trkpt lat="45.30865" lon="5.88872">
        <ele>933.44702148438</ele>
        <time>2017-10-08T04:41:40Z</time>
      </trkpt>
      <trkpt lat="45.30863" lon="5.88865">
        <ele>934.44702148438</ele>
        <time>2017-10-08T04:41:45Z</time>
      </trkpt>
      <trkpt lat="45.30863" lon="5.88858">
        <ele>934.44702148438</ele>
        <time>2017-10-08T04:41:49Z</time>
      </trkpt>
      <trkpt lat="45.30861" lon="5.88852">
        <ele>933.44702148438</ele>
        <time>2017-10-08T04:41:56Z</time>
      </trkpt>
      <trkpt lat="45.30862" lon="5.88845">
        <ele>935.44702148438</ele>
        <time>2017-10-08T04:42:00Z</time>
      </trkpt>
      <trkpt lat="45.30863" lon="5.88838">
        <ele>936.44702148438</ele>
        <time>2017-10-08T04:42:04Z</time>
      </trkpt>
      <trkpt lat="45.30862" lon="5.88832">
        <ele>936.44702148438</ele>
        <time>2017-10-08T04:42:07Z</time>
      </trkpt>
      <trkpt lat="45.30861" lon="5.88823">
        <ele>935.44702148438</ele>
        <time>2017-10-08T04:42:15Z</time>
      </trkpt>
      <trkpt lat="45.3086" lon="5.88816">
        <ele>936.44702148438</ele>
        <time>2017-10-08T04:42:17Z</time>
      </trkpt>
      <trkpt lat="45.30858" lon="5.88809">
        <ele>937.44702148438</ele>
        <time>2017-10-08T04:42:20Z</time>
      </trkpt>
      <trkpt lat="45.30858" lon="5.88802">
        <ele>938.44702148438</ele>
        <time>2017-10-08T04:42:23Z</time>
      </trkpt>
      <trkpt lat="45.30857" lon="5.88795">
        <ele>938.44702148438</ele>
        <time>2017-10-08T04:42:27Z</time>
      </trkpt>
      <trkpt lat="45.30853" lon="5.88788">
        <ele>944.44702148438</ele>
        <time>2017-10-08T04:42:32Z</time>
      </trkpt>
      <trkpt lat="45.30853" lon="5.88782">
        <ele>944.44702148438</ele>
        <time>2017-10-08T04:42:36Z</time>
      </trkpt>
      <trkpt lat="45.30853" lon="5.88775">
        <ele>946.44702148438</ele>
        <time>2017-10-08T04:42:39Z</time>
      </trkpt>
      <trkpt lat="45.30853" lon="5.88768">
        <ele>946.44702148438</ele>
        <time>2017-10-08T04:42:43Z</time>
      </trkpt>
      <trkpt lat="45.30855" lon="5.88761">
        <ele>944.44702148438</ele>
        <time>2017-10-08T04:42:47Z</time>
      </trkpt>
      <trkpt lat="45.30855" lon="5.88753">
        <ele>944.44702148438</ele>
        <time>2017-10-08T04:42:52Z</time>
      </trkpt>
      <trkpt lat="45.30856" lon="5.88746">
        <ele>945.44702148438</ele>
        <time>2017-10-08T04:42:58Z</time>
      </trkpt>
      <trkpt lat="45.3086" lon="5.88741">
        <ele>946.44702148438</ele>
        <time>2017-10-08T04:43:01Z</time>
      </trkpt>
      <trkpt lat="45.30866" lon="5.88739">
        <ele>946.44702148438</ele>
        <time>2017-10-08T04:43:05Z</time>
      </trkpt>
      <trkpt lat="45.3087" lon="5.88738">
        <ele>947.44702148438</ele>
        <time>2017-10-08T04:43:09Z</time>
      </trkpt>
      <trkpt lat="45.30875" lon="5.88739">
        <ele>948.44702148438</ele>
        <time>2017-10-08T04:43:12Z</time>
      </trkpt>
      <trkpt lat="45.3088" lon="5.88741">
        <ele>950.44702148438</ele>
        <time>2017-10-08T04:43:17Z</time>
      </trkpt>
      <trkpt lat="45.30885" lon="5.88743">
        <ele>952.44702148438</ele>
        <time>2017-10-08T04:43:21Z</time>
      </trkpt>
      <trkpt lat="45.3089" lon="5.88747">
        <ele>955.44702148438</ele>
        <time>2017-10-08T04:43:25Z</time>
      </trkpt>
      <trkpt lat="45.30894" lon="5.8875">
        <ele>955.44702148438</ele>
        <time>2017-10-08T04:43:30Z</time>
      </trkpt>
      <trkpt lat="45.30899" lon="5.88754">
        <ele>957.44702148438</ele>
        <time>2017-10-08T04:43:35Z</time>
      </trkpt>
      <trkpt lat="45.30903" lon="5.88759">
        <ele>958.44702148438</ele>
        <time>2017-10-08T04:43:39Z</time>
      </trkpt>
      <trkpt lat="45.30907" lon="5.88763">
        <ele>959.44702148438</ele>
        <time>2017-10-08T04:43:43Z</time>
      </trkpt>
      <trkpt lat="45.3091" lon="5.88767">
        <ele>959.44702148438</ele>
        <time>2017-10-08T04:43:46Z</time>
      </trkpt>
      <trkpt lat="45.30915" lon="5.8877">
        <ele>959.44702148438</ele>
        <time>2017-10-08T04:43:52Z</time>
      </trkpt>
      <trkpt lat="45.30921" lon="5.88772">
        <ele>961.44702148438</ele>
        <time>2017-10-08T04:43:58Z</time>
      </trkpt>
      <trkpt lat="45.30926" lon="5.88775">
        <ele>961.44702148438</ele>
        <time>2017-10-08T04:44:00Z</time>
      </trkpt>
      <trkpt lat="45.30933" lon="5.88776">
        <ele>960.44702148438</ele>
        <time>2017-10-08T04:44:03Z</time>
      </trkpt>
      <trkpt lat="45.30939" lon="5.88774">
        <ele>962.44702148438</ele>
        <time>2017-10-08T04:44:07Z</time>
      </trkpt>
      <trkpt lat="45.30945" lon="5.88771">
        <ele>959.44702148438</ele>
        <time>2017-10-08T04:44:13Z</time>
      </trkpt>
      <trkpt lat="45.30948" lon="5.88766">
        <ele>964.44702148438</ele>
        <time>2017-10-08T04:44:19Z</time>
      </trkpt>
      <trkpt lat="45.30954" lon="5.88764">
        <ele>967.44702148438</ele>
        <time>2017-10-08T04:44:22Z</time>
      </trkpt>
      <trkpt lat="45.3096" lon="5.88763">
        <ele>972.44702148438</ele>
        <time>2017-10-08T04:44:26Z</time>
      </trkpt>
      <trkpt lat="45.30963" lon="5.88756">
        <ele>970.44702148438</ele>
        <time>2017-10-08T04:44:31Z</time>
      </trkpt>
      <trkpt lat="45.3097" lon="5.88755">
        <ele>971.44702148438</ele>
        <time>2017-10-08T04:44:34Z</time>
      </trkpt>
      <trkpt lat="45.30969" lon="5.88748">
        <ele>972.44702148438</ele>
        <time>2017-10-08T04:44:37Z</time>
      </trkpt>
      <trkpt lat="45.30973" lon="5.88744">
        <ele>972.44702148438</ele>
        <time>2017-10-08T04:44:40Z</time>
      </trkpt>
      <trkpt lat="45.30975" lon="5.88738">
        <ele>973.44702148438</ele>
        <time>2017-10-08T04:44:42Z</time>
      </trkpt>
      <trkpt lat="45.30977" lon="5.88731">
        <ele>972.44702148438</ele>
        <time>2017-10-08T04:44:46Z</time>
      </trkpt>
      <trkpt lat="45.30974" lon="5.88725">
        <ele>969.44702148438</ele>
        <time>2017-10-08T04:44:49Z</time>
      </trkpt>
      <trkpt lat="45.30978" lon="5.88715">
        <ele>969.44702148438</ele>
        <time>2017-10-08T04:44:53Z</time>
      </trkpt>
      <trkpt lat="45.30981" lon="5.88708">
        <ele>969.44702148438</ele>
        <time>2017-10-08T04:44:55Z</time>
      </trkpt>
      <trkpt lat="45.30984" lon="5.887">
        <ele>969.44702148438</ele>
        <time>2017-10-08T04:44:57Z</time>
      </trkpt>
      <trkpt lat="45.30988" lon="5.88693">
        <ele>969.44702148438</ele>
        <time>2017-10-08T04:44:59Z</time>
      </trkpt>
      <trkpt lat="45.30994" lon="5.88696">
        <ele>967.44702148438</ele>
        <time>2017-10-08T04:45:04Z</time>
      </trkpt>
      <trkpt lat="45.31" lon="5.887">
        <ele>967.44702148438</ele>
        <time>2017-10-08T04:45:06Z</time>
      </trkpt>
      <trkpt lat="45.31005" lon="5.88702">
        <ele>967.44702148438</ele>
        <time>2017-10-08T04:45:08Z</time>
      </trkpt>
      <trkpt lat="45.31012" lon="5.88704">
        <ele>967.44702148438</ele>
        <time>2017-10-08T04:45:10Z</time>
      </trkpt>
      <trkpt lat="45.31018" lon="5.88707">
        <ele>966.44702148438</ele>
        <time>2017-10-08T04:45:12Z</time>
      </trkpt>
      <trkpt lat="45.31024" lon="5.88707">
        <ele>964.44702148438</ele>
        <time>2017-10-08T04:45:14Z</time>
      </trkpt>
      <trkpt lat="45.3103" lon="5.88709">
        <ele>961.44702148438</ele>
        <time>2017-10-08T04:45:17Z</time>
      </trkpt>
      <trkpt lat="45.31035" lon="5.88711">
        <ele>960.44702148438</ele>
        <time>2017-10-08T04:45:19Z</time>
      </trkpt>
      <trkpt lat="45.31041" lon="5.88715">
        <ele>961.44702148438</ele>
        <time>2017-10-08T04:45:21Z</time>
      </trkpt>
      <trkpt lat="45.31047" lon="5.88719">
        <ele>962.44702148438</ele>
        <time>2017-10-08T04:45:23Z</time>
      </trkpt>
      <trkpt lat="45.3106" lon="5.88725">
        <ele>964.44702148438</ele>
        <time>2017-10-08T04:45:27Z</time>
      </trkpt>
      <trkpt lat="45.31066" lon="5.88726">
        <ele>964.44702148438</ele>
        <time>2017-10-08T04:45:29Z</time>
      </trkpt>
      <trkpt lat="45.31072" lon="5.8873">
        <ele>964.44702148438</ele>
        <time>2017-10-08T04:45:31Z</time>
      </trkpt>
      <trkpt lat="45.31078" lon="5.88733">
        <ele>965.44702148438</ele>
        <time>2017-10-08T04:45:33Z</time>
      </trkpt>
      <trkpt lat="45.31084" lon="5.88735">
        <ele>966.44702148438</ele>
        <time>2017-10-08T04:45:35Z</time>
      </trkpt>
      <trkpt lat="45.3109" lon="5.88736">
        <ele>966.44702148438</ele>
        <time>2017-10-08T04:45:37Z</time>
      </trkpt>
      <trkpt lat="45.31096" lon="5.88738">
        <ele>966.44702148438</ele>
        <time>2017-10-08T04:45:39Z</time>
      </trkpt>
      <trkpt lat="45.31103" lon="5.88739">
        <ele>966.44702148438</ele>
        <time>2017-10-08T04:45:41Z</time>
      </trkpt>
      <trkpt lat="45.31109" lon="5.88741">
        <ele>964.44702148438</ele>
        <time>2017-10-08T04:45:43Z</time>
      </trkpt>
      <trkpt lat="45.31117" lon="5.88742">
        <ele>964.44702148438</ele>
        <time>2017-10-08T04:45:45Z</time>
      </trkpt>
      <trkpt lat="45.31123" lon="5.88743">
        <ele>964.44702148438</ele>
        <time>2017-10-08T04:45:47Z</time>
      </trkpt>
      <trkpt lat="45.31129" lon="5.88744">
        <ele>964.44702148438</ele>
        <time>2017-10-08T04:45:49Z</time>
      </trkpt>
      <trkpt lat="45.31134" lon="5.88744">
        <ele>963.44702148438</ele>
        <time>2017-10-08T04:45:51Z</time>
      </trkpt>
      <trkpt lat="45.31139" lon="5.88746">
        <ele>963.44702148438</ele>
        <time>2017-10-08T04:45:53Z</time>
      </trkpt>
      <trkpt lat="45.31144" lon="5.88746">
        <ele>963.44702148438</ele>
        <time>2017-10-08T04:45:55Z</time>
      </trkpt>
      <trkpt lat="45.3115" lon="5.88745">
        <ele>962.44702148438</ele>
        <time>2017-10-08T04:45:57Z</time>
      </trkpt>
      <trkpt lat="45.31156" lon="5.88746">
        <ele>961.44702148438</ele>
        <time>2017-10-08T04:45:59Z</time>
      </trkpt>
      <trkpt lat="45.31162" lon="5.88746">
        <ele>959.44702148438</ele>
        <time>2017-10-08T04:46:01Z</time>
      </trkpt>
      <trkpt lat="45.31167" lon="5.88746">
        <ele>961.44702148438</ele>
        <time>2017-10-08T04:46:03Z</time>
      </trkpt>
      <trkpt lat="45.31173" lon="5.88746">
        <ele>961.44702148438</ele>
        <time>2017-10-08T04:46:05Z</time>
      </trkpt>
      <trkpt lat="45.31178" lon="5.88745">
        <ele>961.44702148438</ele>
        <time>2017-10-08T04:46:07Z</time>
      </trkpt>
      <trkpt lat="45.31185" lon="5.88744">
        <ele>962.44702148438</ele>
        <time>2017-10-08T04:46:09Z</time>
      </trkpt>
      <trkpt lat="45.31191" lon="5.88741">
        <ele>963.44702148438</ele>
        <time>2017-10-08T04:46:11Z</time>
      </trkpt>
      <trkpt lat="45.31197" lon="5.8874">
        <ele>963.44702148438</ele>
        <time>2017-10-08T04:46:13Z</time>
      </trkpt>
      <trkpt lat="45.31204" lon="5.8874">
        <ele>961.44702148438</ele>
        <time>2017-10-08T04:46:15Z</time>
      </trkpt>
      <trkpt lat="45.3121" lon="5.8874">
        <ele>960.44702148438</ele>
        <time>2017-10-08T04:46:17Z</time>
      </trkpt>
      <trkpt lat="45.31216" lon="5.88741">
        <ele>959.44702148438</ele>
        <time>2017-10-08T04:46:19Z</time>
      </trkpt>
      <trkpt lat="45.31222" lon="5.8874">
        <ele>959.44702148438</ele>
        <time>2017-10-08T04:46:21Z</time>
      </trkpt>
      <trkpt lat="45.31227" lon="5.88739">
        <ele>959.44702148438</ele>
        <time>2017-10-08T04:46:23Z</time>
      </trkpt>
      <trkpt lat="45.31232" lon="5.88737">
        <ele>958.44702148438</ele>
        <time>2017-10-08T04:46:25Z</time>
      </trkpt>
      <trkpt lat="45.31238" lon="5.88735">
        <ele>958.44702148438</ele>
        <time>2017-10-08T04:46:27Z</time>
      </trkpt>
      <trkpt lat="45.31244" lon="5.88732">
        <ele>957.44702148438</ele>
        <time>2017-10-08T04:46:29Z</time>
      </trkpt>
      <trkpt lat="45.3125" lon="5.88726">
        <ele>957.44702148438</ele>
        <time>2017-10-08T04:46:31Z</time>
      </trkpt>
      <trkpt lat="45.31253" lon="5.8872">
        <ele>955.44702148438</ele>
        <time>2017-10-08T04:46:33Z</time>
      </trkpt>
      <trkpt lat="45.31258" lon="5.88714">
        <ele>956.44702148438</ele>
        <time>2017-10-08T04:46:35Z</time>
      </trkpt>
      <trkpt lat="45.31262" lon="5.88708">
        <ele>956.44702148438</ele>
        <time>2017-10-08T04:46:37Z</time>
      </trkpt>
      <trkpt lat="45.31265" lon="5.88702">
        <ele>957.44702148438</ele>
        <time>2017-10-08T04:46:39Z</time>
      </trkpt>
      <trkpt lat="45.31268" lon="5.88695">
        <ele>957.44702148438</ele>
        <time>2017-10-08T04:46:41Z</time>
      </trkpt>
      <trkpt lat="45.3127" lon="5.88688">
        <ele>957.44702148438</ele>
        <time>2017-10-08T04:46:43Z</time>
      </trkpt>
      <trkpt lat="45.31271" lon="5.88681">
        <ele>956.44702148438</ele>
        <time>2017-10-08T04:46:45Z</time>
      </trkpt>
      <trkpt lat="45.31274" lon="5.88675">
        <ele>955.44702148438</ele>
        <time>2017-10-08T04:46:47Z</time>
      </trkpt>
      <trkpt lat="45.31278" lon="5.88669">
        <ele>955.44702148438</ele>
        <time>2017-10-08T04:46:49Z</time>
      </trkpt>
      <trkpt lat="45.3128" lon="5.88661">
        <ele>955.44702148438</ele>
        <time>2017-10-08T04:46:51Z</time>
      </trkpt>
      <trkpt lat="45.31285" lon="5.88655">
        <ele>955.44702148438</ele>
        <time>2017-10-08T04:46:53Z</time>
      </trkpt>
      <trkpt lat="45.31287" lon="5.88648">
        <ele>955.44702148438</ele>
        <time>2017-10-08T04:46:55Z</time>
      </trkpt>
      <trkpt lat="45.3129" lon="5.88642">
        <ele>955.44702148438</ele>
        <time>2017-10-08T04:46:57Z</time>
      </trkpt>
      <trkpt lat="45.31294" lon="5.88633">
        <ele>955.44702148438</ele>
        <time>2017-10-08T04:47:00Z</time>
      </trkpt>
      <trkpt lat="45.31295" lon="5.88627">
        <ele>958.44702148438</ele>
        <time>2017-10-08T04:47:02Z</time>
      </trkpt>
      <trkpt lat="45.313" lon="5.88622">
        <ele>958.44702148438</ele>
        <time>2017-10-08T04:47:04Z</time>
      </trkpt>
      <trkpt lat="45.31303" lon="5.88616">
        <ele>959.44702148438</ele>
        <time>2017-10-08T04:47:06Z</time>
      </trkpt>
      <trkpt lat="45.31303" lon="5.8861">
        <ele>960.44702148438</ele>
        <time>2017-10-08T04:47:08Z</time>
      </trkpt>
      <trkpt lat="45.31305" lon="5.88605">
        <ele>959.44702148438</ele>
        <time>2017-10-08T04:47:10Z</time>
      </trkpt>
      <trkpt lat="45.31311" lon="5.88599">
        <ele>958.44702148438</ele>
        <time>2017-10-08T04:47:12Z</time>
      </trkpt>
      <trkpt lat="45.31313" lon="5.88594">
        <ele>957.44702148438</ele>
        <time>2017-10-08T04:47:14Z</time>
      </trkpt>
      <trkpt lat="45.31318" lon="5.88589">
        <ele>956.44702148438</ele>
        <time>2017-10-08T04:47:17Z</time>
      </trkpt>
      <trkpt lat="45.31321" lon="5.88586">
        <ele>960.44702148438</ele>
        <time>2017-10-08T04:47:22Z</time>
      </trkpt>
      <trkpt lat="45.31326" lon="5.88588">
        <ele>963.44702148438</ele>
        <time>2017-10-08T04:47:28Z</time>
      </trkpt>
      <trkpt lat="45.31332" lon="5.8859">
        <ele>966.44702148438</ele>
        <time>2017-10-08T04:47:33Z</time>
      </trkpt>
      <trkpt lat="45.31338" lon="5.88592">
        <ele>967.44702148438</ele>
        <time>2017-10-08T04:47:35Z</time>
      </trkpt>
      <trkpt lat="45.31344" lon="5.88594">
        <ele>968.44702148438</ele>
        <time>2017-10-08T04:47:38Z</time>
      </trkpt>
      <trkpt lat="45.31354" lon="5.88601">
        <ele>969.44702148438</ele>
        <time>2017-10-08T04:47:41Z</time>
      </trkpt>
      <trkpt lat="45.3136" lon="5.88603">
        <ele>968.44702148438</ele>
        <time>2017-10-08T04:47:43Z</time>
      </trkpt>
      <trkpt lat="45.31367" lon="5.88604">
        <ele>967.44702148438</ele>
        <time>2017-10-08T04:47:46Z</time>
      </trkpt>
      <trkpt lat="45.31372" lon="5.88604">
        <ele>967.44702148438</ele>
        <time>2017-10-08T04:47:48Z</time>
      </trkpt>
      <trkpt lat="45.31378" lon="5.88604">
        <ele>966.44702148438</ele>
        <time>2017-10-08T04:47:50Z</time>
      </trkpt>
      <trkpt lat="45.31383" lon="5.88605">
        <ele>967.44702148438</ele>
        <time>2017-10-08T04:47:52Z</time>
      </trkpt>
      <trkpt lat="45.31388" lon="5.88606">
        <ele>968.44702148438</ele>
        <time>2017-10-08T04:47:54Z</time>
      </trkpt>
      <trkpt lat="45.31399" lon="5.8861">
        <ele>971.44799804688</ele>
        <time>2017-10-08T04:47:58Z</time>
      </trkpt>
      <trkpt lat="45.31406" lon="5.88614">
        <ele>972.44799804688</ele>
        <time>2017-10-08T04:48:00Z</time>
      </trkpt>
      <trkpt lat="45.31411" lon="5.88617">
        <ele>974.44799804688</ele>
        <time>2017-10-08T04:48:02Z</time>
      </trkpt>
      <trkpt lat="45.31416" lon="5.88619">
        <ele>972.44799804688</ele>
        <time>2017-10-08T04:48:04Z</time>
      </trkpt>
      <trkpt lat="45.31422" lon="5.8862">
        <ele>971.44799804688</ele>
        <time>2017-10-08T04:48:06Z</time>
      </trkpt>
      <trkpt lat="45.31428" lon="5.8862">
        <ele>971.44799804688</ele>
        <time>2017-10-08T04:48:08Z</time>
      </trkpt>
      <trkpt lat="45.31436" lon="5.88626">
        <ele>971.44799804688</ele>
        <time>2017-10-08T04:48:10Z</time>
      </trkpt>
      <trkpt lat="45.31442" lon="5.88629">
        <ele>971.44799804688</ele>
        <time>2017-10-08T04:48:12Z</time>
      </trkpt>
      <trkpt lat="45.31446" lon="5.88632">
        <ele>970.44799804688</ele>
        <time>2017-10-08T04:48:14Z</time>
      </trkpt>
      <trkpt lat="45.31452" lon="5.88637">
        <ele>972.44799804688</ele>
        <time>2017-10-08T04:48:16Z</time>
      </trkpt>
      <trkpt lat="45.31457" lon="5.88641">
        <ele>971.44799804688</ele>
        <time>2017-10-08T04:48:18Z</time>
      </trkpt>
      <trkpt lat="45.31463" lon="5.88638">
        <ele>970.44799804688</ele>
        <time>2017-10-08T04:48:20Z</time>
      </trkpt>
      <trkpt lat="45.31469" lon="5.88643">
        <ele>970.44799804688</ele>
        <time>2017-10-08T04:48:22Z</time>
      </trkpt>
      <trkpt lat="45.31476" lon="5.88643">
        <ele>968.44799804688</ele>
        <time>2017-10-08T04:48:25Z</time>
      </trkpt>
      <trkpt lat="45.31482" lon="5.88644">
        <ele>967.44799804688</ele>
        <time>2017-10-08T04:48:27Z</time>
      </trkpt>
      <trkpt lat="45.31487" lon="5.88645">
        <ele>968.44799804688</ele>
        <time>2017-10-08T04:48:29Z</time>
      </trkpt>
      <trkpt lat="45.31493" lon="5.88647">
        <ele>967.44799804688</ele>
        <time>2017-10-08T04:48:31Z</time>
      </trkpt>
      <trkpt lat="45.31498" lon="5.88648">
        <ele>967.44799804688</ele>
        <time>2017-10-08T04:48:33Z</time>
      </trkpt>
      <trkpt lat="45.31504" lon="5.88652">
        <ele>968.44799804688</ele>
        <time>2017-10-08T04:48:35Z</time>
      </trkpt>
      <trkpt lat="45.3151" lon="5.88652">
        <ele>968.44799804688</ele>
        <time>2017-10-08T04:48:37Z</time>
      </trkpt>
      <trkpt lat="45.31517" lon="5.88655">
        <ele>968.44799804688</ele>
        <time>2017-10-08T04:48:40Z</time>
      </trkpt>
      <trkpt lat="45.31524" lon="5.88658">
        <ele>968.44799804688</ele>
        <time>2017-10-08T04:48:42Z</time>
      </trkpt>
      <trkpt lat="45.3153" lon="5.88659">
        <ele>968.44799804688</ele>
        <time>2017-10-08T04:48:44Z</time>
      </trkpt>
      <trkpt lat="45.31536" lon="5.88658">
        <ele>966.44799804688</ele>
        <time>2017-10-08T04:48:47Z</time>
      </trkpt>
      <trkpt lat="45.31543" lon="5.88657">
        <ele>966.44799804688</ele>
        <time>2017-10-08T04:48:49Z</time>
      </trkpt>
      <trkpt lat="45.31549" lon="5.88656">
        <ele>966.44799804688</ele>
        <time>2017-10-08T04:48:51Z</time>
      </trkpt>
      <trkpt lat="45.31555" lon="5.88653">
        <ele>966.44799804688</ele>
        <time>2017-10-08T04:48:53Z</time>
      </trkpt>
      <trkpt lat="45.3156" lon="5.88652">
        <ele>965.44799804688</ele>
        <time>2017-10-08T04:48:55Z</time>
      </trkpt>
      <trkpt lat="45.31567" lon="5.88653">
        <ele>965.44799804688</ele>
        <time>2017-10-08T04:48:57Z</time>
      </trkpt>
      <trkpt lat="45.31573" lon="5.88655">
        <ele>965.44799804688</ele>
        <time>2017-10-08T04:48:59Z</time>
      </trkpt>
      <trkpt lat="45.3158" lon="5.88655">
        <ele>966.44799804688</ele>
        <time>2017-10-08T04:49:01Z</time>
      </trkpt>
      <trkpt lat="45.31586" lon="5.88656">
        <ele>964.44799804688</ele>
        <time>2017-10-08T04:49:03Z</time>
      </trkpt>
      <trkpt lat="45.31592" lon="5.88656">
        <ele>964.44799804688</ele>
        <time>2017-10-08T04:49:05Z</time>
      </trkpt>
      <trkpt lat="45.31597" lon="5.88659">
        <ele>964.44799804688</ele>
        <time>2017-10-08T04:49:07Z</time>
      </trkpt>
      <trkpt lat="45.31604" lon="5.88662">
        <ele>965.44799804688</ele>
        <time>2017-10-08T04:49:09Z</time>
      </trkpt>
      <trkpt lat="45.31609" lon="5.88664">
        <ele>965.44799804688</ele>
        <time>2017-10-08T04:49:11Z</time>
      </trkpt>
      <trkpt lat="45.31614" lon="5.88667">
        <ele>965.44799804688</ele>
        <time>2017-10-08T04:49:13Z</time>
      </trkpt>
      <trkpt lat="45.31619" lon="5.88669">
        <ele>965.44799804688</ele>
        <time>2017-10-08T04:49:15Z</time>
      </trkpt>
      <trkpt lat="45.31625" lon="5.88672">
        <ele>964.44799804688</ele>
        <time>2017-10-08T04:49:18Z</time>
      </trkpt>
      <trkpt lat="45.31632" lon="5.88668">
        <ele>965.44799804688</ele>
        <time>2017-10-08T04:49:21Z</time>
      </trkpt>
      <trkpt lat="45.31639" lon="5.88668">
        <ele>967.44799804688</ele>
        <time>2017-10-08T04:49:24Z</time>
      </trkpt>
      <trkpt lat="45.31641" lon="5.88662">
        <ele>968.44799804688</ele>
        <time>2017-10-08T04:49:28Z</time>
      </trkpt>
      <trkpt lat="45.31645" lon="5.88658">
        <ele>966.44799804688</ele>
        <time>2017-10-08T04:49:31Z</time>
      </trkpt>
      <trkpt lat="45.31648" lon="5.8865">
        <ele>968.44799804688</ele>
        <time>2017-10-08T04:49:49Z</time>
      </trkpt>
      <trkpt lat="45.31652" lon="5.88649">
        <ele>969.44799804688</ele>
        <time>2017-10-08T04:49:51Z</time>
      </trkpt>
      <trkpt lat="45.31657" lon="5.88647">
        <ele>972.44799804688</ele>
        <time>2017-10-08T04:49:56Z</time>
      </trkpt>
      <trkpt lat="45.31662" lon="5.88643">
        <ele>976.44799804688</ele>
        <time>2017-10-08T04:50:00Z</time>
      </trkpt>
      <trkpt lat="45.31665" lon="5.88639">
        <ele>975.44799804688</ele>
        <time>2017-10-08T04:50:03Z</time>
      </trkpt>
      <trkpt lat="45.31667" lon="5.88633">
        <ele>974.44799804688</ele>
        <time>2017-10-08T04:50:05Z</time>
      </trkpt>
      <trkpt lat="45.31671" lon="5.88629">
        <ele>974.44799804688</ele>
        <time>2017-10-08T04:50:08Z</time>
      </trkpt>
      <trkpt lat="45.31675" lon="5.88624">
        <ele>974.44799804688</ele>
        <time>2017-10-08T04:50:12Z</time>
      </trkpt>
      <trkpt lat="45.31684" lon="5.88618">
        <ele>977.44799804688</ele>
        <time>2017-10-08T04:50:28Z</time>
      </trkpt>
      <trkpt lat="45.31689" lon="5.88613">
        <ele>977.44799804688</ele>
        <time>2017-10-08T04:50:30Z</time>
      </trkpt>
      <trkpt lat="45.31694" lon="5.88611">
        <ele>978.44799804688</ele>
        <time>2017-10-08T04:50:32Z</time>
      </trkpt>
      <trkpt lat="45.31699" lon="5.88608">
        <ele>980.44799804688</ele>
        <time>2017-10-08T04:50:34Z</time>
      </trkpt>
      <trkpt lat="45.31705" lon="5.88605">
        <ele>980.44799804688</ele>
        <time>2017-10-08T04:50:36Z</time>
      </trkpt>
      <trkpt lat="45.31715" lon="5.88605">
        <ele>981.44799804688</ele>
        <time>2017-10-08T04:50:39Z</time>
      </trkpt>
      <trkpt lat="45.31719" lon="5.88602">
        <ele>980.44799804688</ele>
        <time>2017-10-08T04:50:41Z</time>
      </trkpt>
      <trkpt lat="45.31723" lon="5.88601">
        <ele>982.44799804688</ele>
        <time>2017-10-08T04:50:45Z</time>
      </trkpt>
      <trkpt lat="45.31729" lon="5.886">
        <ele>983.44799804688</ele>
        <time>2017-10-08T04:50:51Z</time>
      </trkpt>
      <trkpt lat="45.31734" lon="5.88601">
        <ele>983.44799804688</ele>
        <time>2017-10-08T04:50:54Z</time>
      </trkpt>
      <trkpt lat="45.31739" lon="5.88598">
        <ele>982.44799804688</ele>
        <time>2017-10-08T04:50:57Z</time>
      </trkpt>
      <trkpt lat="45.31742" lon="5.88591">
        <ele>982.44799804688</ele>
        <time>2017-10-08T04:51:03Z</time>
      </trkpt>
      <trkpt lat="45.31742" lon="5.88585">
        <ele>985.44799804688</ele>
        <time>2017-10-08T04:51:25Z</time>
      </trkpt>
      <trkpt lat="45.31743" lon="5.88576">
        <ele>987.44799804688</ele>
        <time>2017-10-08T04:51:29Z</time>
      </trkpt>
      <trkpt lat="45.31745" lon="5.88568">
        <ele>990.44799804688</ele>
        <time>2017-10-08T04:51:35Z</time>
      </trkpt>
      <trkpt lat="45.31747" lon="5.88561">
        <ele>989.44799804688</ele>
        <time>2017-10-08T04:51:37Z</time>
      </trkpt>
      <trkpt lat="45.31749" lon="5.88554">
        <ele>990.44799804688</ele>
        <time>2017-10-08T04:51:41Z</time>
      </trkpt>
      <trkpt lat="45.31753" lon="5.88545">
        <ele>993.44799804688</ele>
        <time>2017-10-08T04:51:46Z</time>
      </trkpt>
      <trkpt lat="45.31758" lon="5.88543">
        <ele>991.44799804688</ele>
        <time>2017-10-08T04:51:51Z</time>
      </trkpt>
      <trkpt lat="45.31761" lon="5.88536">
        <ele>992.44799804688</ele>
        <time>2017-10-08T04:51:56Z</time>
      </trkpt>
      <trkpt lat="45.31767" lon="5.88531">
        <ele>990.44799804688</ele>
        <time>2017-10-08T04:51:58Z</time>
      </trkpt>
      <trkpt lat="45.31772" lon="5.88529">
        <ele>991.44799804688</ele>
        <time>2017-10-08T04:52:00Z</time>
      </trkpt>
      <trkpt lat="45.31775" lon="5.88524">
        <ele>998.44799804688</ele>
        <time>2017-10-08T04:52:05Z</time>
      </trkpt>
      <trkpt lat="45.31778" lon="5.88517">
        <ele>1000.4479980469</ele>
        <time>2017-10-08T04:52:14Z</time>
      </trkpt>
      <trkpt lat="45.31784" lon="5.88516">
        <ele>999.44799804688</ele>
        <time>2017-10-08T04:52:18Z</time>
      </trkpt>
      <trkpt lat="45.31789" lon="5.88512">
        <ele>998.44799804688</ele>
        <time>2017-10-08T04:52:22Z</time>
      </trkpt>
      <trkpt lat="45.31793" lon="5.88504">
        <ele>1002.4479980469</ele>
        <time>2017-10-08T04:52:27Z</time>
      </trkpt>
      <trkpt lat="45.31797" lon="5.88503">
        <ele>1002.4479980469</ele>
        <time>2017-10-08T04:52:32Z</time>
      </trkpt>
      <trkpt lat="45.31802" lon="5.885">
        <ele>1005.4479980469</ele>
        <time>2017-10-08T04:52:37Z</time>
      </trkpt>
      <trkpt lat="45.31805" lon="5.88494">
        <ele>1005.4479980469</ele>
        <time>2017-10-08T04:52:41Z</time>
      </trkpt>
      <trkpt lat="45.31811" lon="5.8849">
        <ele>1007.4479980469</ele>
        <time>2017-10-08T04:52:50Z</time>
      </trkpt>
      <trkpt lat="45.31816" lon="5.88484">
        <ele>1013.4479980469</ele>
        <time>2017-10-08T04:52:55Z</time>
      </trkpt>
      <trkpt lat="45.31821" lon="5.88482">
        <ele>1015.4479980469</ele>
        <time>2017-10-08T04:52:57Z</time>
      </trkpt>
      <trkpt lat="45.31821" lon="5.88475">
        <ele>1016.4479980469</ele>
        <time>2017-10-08T04:53:00Z</time>
      </trkpt>
      <trkpt lat="45.31822" lon="5.88468">
        <ele>1018.4479980469</ele>
        <time>2017-10-08T04:53:04Z</time>
      </trkpt>
      <trkpt lat="45.31825" lon="5.88463">
        <ele>1017.4479980469</ele>
        <time>2017-10-08T04:53:10Z</time>
      </trkpt>
      <trkpt lat="45.31827" lon="5.88456">
        <ele>1015.4479980469</ele>
        <time>2017-10-08T04:53:13Z</time>
      </trkpt>
      <trkpt lat="45.3183" lon="5.8845">
        <ele>1014.4479980469</ele>
        <time>2017-10-08T04:53:20Z</time>
      </trkpt>
      <trkpt lat="45.31834" lon="5.88441">
        <ele>1014.4479980469</ele>
        <time>2017-10-08T04:53:26Z</time>
      </trkpt>
      <trkpt lat="45.31839" lon="5.88432">
        <ele>1016.4479980469</ele>
        <time>2017-10-08T04:53:28Z</time>
      </trkpt>
      <trkpt lat="45.31844" lon="5.88433">
        <ele>1018.4479980469</ele>
        <time>2017-10-08T04:53:34Z</time>
      </trkpt>
      <trkpt lat="45.31849" lon="5.88432">
        <ele>1016.4479980469</ele>
        <time>2017-10-08T04:53:39Z</time>
      </trkpt>
      <trkpt lat="45.31853" lon="5.88427">
        <ele>1019.4479980469</ele>
        <time>2017-10-08T04:53:45Z</time>
      </trkpt>
      <trkpt lat="45.31858" lon="5.88424">
        <ele>1021.4479980469</ele>
        <time>2017-10-08T04:53:51Z</time>
      </trkpt>
      <trkpt lat="45.31865" lon="5.88425">
        <ele>1024.4479980469</ele>
        <time>2017-10-08T04:53:55Z</time>
      </trkpt>
      <trkpt lat="45.31869" lon="5.88422">
        <ele>1027.4479980469</ele>
        <time>2017-10-08T04:54:02Z</time>
      </trkpt>
      <trkpt lat="45.31871" lon="5.88414">
        <ele>1028.4479980469</ele>
        <time>2017-10-08T04:54:24Z</time>
      </trkpt>
      <trkpt lat="45.31876" lon="5.88408">
        <ele>1032.4479980469</ele>
        <time>2017-10-08T04:54:27Z</time>
      </trkpt>
      <trkpt lat="45.31877" lon="5.88401">
        <ele>1032.4479980469</ele>
        <time>2017-10-08T04:54:29Z</time>
      </trkpt>
      <trkpt lat="45.31882" lon="5.88399">
        <ele>1034.4479980469</ele>
        <time>2017-10-08T04:54:33Z</time>
      </trkpt>
      <trkpt lat="45.31887" lon="5.88396">
        <ele>1032.4479980469</ele>
        <time>2017-10-08T04:54:37Z</time>
      </trkpt>
      <trkpt lat="45.31888" lon="5.88389">
        <ele>1034.4479980469</ele>
        <time>2017-10-08T04:54:40Z</time>
      </trkpt>
      <trkpt lat="45.31893" lon="5.88383">
        <ele>1035.4479980469</ele>
        <time>2017-10-08T04:54:43Z</time>
      </trkpt>
      <trkpt lat="45.31894" lon="5.88375">
        <ele>1038.4479980469</ele>
        <time>2017-10-08T04:54:46Z</time>
      </trkpt>
      <trkpt lat="45.31899" lon="5.8837">
        <ele>1040.4479980469</ele>
        <time>2017-10-08T04:54:49Z</time>
      </trkpt>
      <trkpt lat="45.31903" lon="5.88365">
        <ele>1044.4479980469</ele>
        <time>2017-10-08T04:54:53Z</time>
      </trkpt>
      <trkpt lat="45.31907" lon="5.88361">
        <ele>1047.4479980469</ele>
        <time>2017-10-08T04:54:59Z</time>
      </trkpt>
      <trkpt lat="45.31913" lon="5.88357">
        <ele>1044.4479980469</ele>
        <time>2017-10-08T04:55:03Z</time>
      </trkpt>
      <trkpt lat="45.31917" lon="5.88352">
        <ele>1046.4479980469</ele>
        <time>2017-10-08T04:55:06Z</time>
      </trkpt>
      <trkpt lat="45.31923" lon="5.88351">
        <ele>1046.4479980469</ele>
        <time>2017-10-08T04:55:09Z</time>
      </trkpt>
      <trkpt lat="45.31928" lon="5.88351">
        <ele>1047.4479980469</ele>
        <time>2017-10-08T04:55:12Z</time>
      </trkpt>
      <trkpt lat="45.31929" lon="5.88344">
        <ele>1045.4479980469</ele>
        <time>2017-10-08T04:55:17Z</time>
      </trkpt>
      <trkpt lat="45.31932" lon="5.88339">
        <ele>1050.4479980469</ele>
        <time>2017-10-08T04:55:29Z</time>
      </trkpt>
      <trkpt lat="45.31938" lon="5.88333">
        <ele>1054.4479980469</ele>
        <time>2017-10-08T04:55:51Z</time>
      </trkpt>
      <trkpt lat="45.31943" lon="5.88328">
        <ele>1058.4479980469</ele>
        <time>2017-10-08T04:55:54Z</time>
      </trkpt>
      <trkpt lat="45.31946" lon="5.88323">
        <ele>1060.4479980469</ele>
        <time>2017-10-08T04:55:57Z</time>
      </trkpt>
      <trkpt lat="45.3195" lon="5.88318">
        <ele>1060.4479980469</ele>
        <time>2017-10-08T04:55:59Z</time>
      </trkpt>
      <trkpt lat="45.31954" lon="5.88312">
        <ele>1063.4479980469</ele>
        <time>2017-10-08T04:56:01Z</time>
      </trkpt>
      <trkpt lat="45.31958" lon="5.88306">
        <ele>1062.4479980469</ele>
        <time>2017-10-08T04:56:04Z</time>
      </trkpt>
      <trkpt lat="45.31963" lon="5.88304">
        <ele>1060.4479980469</ele>
        <time>2017-10-08T04:56:06Z</time>
      </trkpt>
      <trkpt lat="45.31964" lon="5.88297">
        <ele>1059.4479980469</ele>
        <time>2017-10-08T04:56:08Z</time>
      </trkpt>
      <trkpt lat="45.31971" lon="5.883">
        <ele>1065.4479980469</ele>
        <time>2017-10-08T04:56:14Z</time>
      </trkpt>
      <trkpt lat="45.31975" lon="5.88301">
        <ele>1070.4479980469</ele>
        <time>2017-10-08T04:56:17Z</time>
      </trkpt>
      <trkpt lat="45.3198" lon="5.88301">
        <ele>1072.4479980469</ele>
        <time>2017-10-08T04:56:20Z</time>
      </trkpt>
      <trkpt lat="45.31986" lon="5.88304">
        <ele>1073.4479980469</ele>
        <time>2017-10-08T04:56:25Z</time>
      </trkpt>
      <trkpt lat="45.31989" lon="5.88301">
        <ele>1072.4479980469</ele>
        <time>2017-10-08T04:56:28Z</time>
      </trkpt>
      <trkpt lat="45.31994" lon="5.88295">
        <ele>1074.4479980469</ele>
        <time>2017-10-08T04:56:33Z</time>
      </trkpt>
      <trkpt lat="45.31998" lon="5.88286">
        <ele>1072.4479980469</ele>
        <time>2017-10-08T04:56:36Z</time>
      </trkpt>
      <trkpt lat="45.32001" lon="5.88281">
        <ele>1071.4479980469</ele>
        <time>2017-10-08T04:56:38Z</time>
      </trkpt>
      <trkpt lat="45.32007" lon="5.8828">
        <ele>1070.4479980469</ele>
        <time>2017-10-08T04:56:40Z</time>
      </trkpt>
      <trkpt lat="45.3201" lon="5.88276">
        <ele>1069.4479980469</ele>
        <time>2017-10-08T04:56:43Z</time>
      </trkpt>
      <trkpt lat="45.32015" lon="5.88272">
        <ele>1066.4479980469</ele>
        <time>2017-10-08T04:56:46Z</time>
      </trkpt>
      <trkpt lat="45.32016" lon="5.88263">
        <ele>1069.4479980469</ele>
        <time>2017-10-08T04:56:52Z</time>
      </trkpt>
      <trkpt lat="45.32021" lon="5.88259">
        <ele>1070.4479980469</ele>
        <time>2017-10-08T04:56:54Z</time>
      </trkpt>
      <trkpt lat="45.32025" lon="5.88252">
        <ele>1071.4479980469</ele>
        <time>2017-10-08T04:56:56Z</time>
      </trkpt>
      <trkpt lat="45.32032" lon="5.88253">
        <ele>1070.4479980469</ele>
        <time>2017-10-08T04:56:58Z</time>
      </trkpt>
      <trkpt lat="45.32034" lon="5.88247">
        <ele>1071.4479980469</ele>
        <time>2017-10-08T04:57:02Z</time>
      </trkpt>
      <trkpt lat="45.32027" lon="5.88243">
        <ele>1073.4479980469</ele>
        <time>2017-10-08T04:57:04Z</time>
      </trkpt>
      <trkpt lat="45.32033" lon="5.88247">
        <ele>1075.4479980469</ele>
        <time>2017-10-08T04:57:06Z</time>
      </trkpt>
      <trkpt lat="45.32038" lon="5.88247">
        <ele>1076.4479980469</ele>
        <time>2017-10-08T04:57:09Z</time>
      </trkpt>
      <trkpt lat="45.32043" lon="5.8825">
        <ele>1080.4479980469</ele>
        <time>2017-10-08T04:57:12Z</time>
      </trkpt>
      <trkpt lat="45.32046" lon="5.88255">
        <ele>1085.4479980469</ele>
        <time>2017-10-08T04:57:18Z</time>
      </trkpt>
      <trkpt lat="45.32051" lon="5.88257">
        <ele>1085.4479980469</ele>
        <time>2017-10-08T04:57:22Z</time>
      </trkpt>
      <trkpt lat="45.32054" lon="5.88262">
        <ele>1088.4479980469</ele>
        <time>2017-10-08T04:57:36Z</time>
      </trkpt>
      <trkpt lat="45.32059" lon="5.88256">
        <ele>1089.4479980469</ele>
        <time>2017-10-08T04:57:55Z</time>
      </trkpt>
      <trkpt lat="45.32064" lon="5.88252">
        <ele>1090.4479980469</ele>
        <time>2017-10-08T04:57:59Z</time>
      </trkpt>
      <trkpt lat="45.32071" lon="5.88249">
        <ele>1095.4479980469</ele>
        <time>2017-10-08T04:58:02Z</time>
      </trkpt>
      <trkpt lat="45.32076" lon="5.88251">
        <ele>1096.4479980469</ele>
        <time>2017-10-08T04:58:04Z</time>
      </trkpt>
      <trkpt lat="45.32081" lon="5.88249">
        <ele>1098.4479980469</ele>
        <time>2017-10-08T04:58:06Z</time>
      </trkpt>
      <trkpt lat="45.32086" lon="5.88244">
        <ele>1101.4479980469</ele>
        <time>2017-10-08T04:58:10Z</time>
      </trkpt>
      <trkpt lat="45.3209" lon="5.8824">
        <ele>1101.4479980469</ele>
        <time>2017-10-08T04:58:13Z</time>
      </trkpt>
      <trkpt lat="45.32094" lon="5.88238">
        <ele>1103.4479980469</ele>
        <time>2017-10-08T04:58:19Z</time>
      </trkpt>
      <trkpt lat="45.32095" lon="5.88231">
        <ele>1103.4479980469</ele>
        <time>2017-10-08T04:58:27Z</time>
      </trkpt>
      <trkpt lat="45.32095" lon="5.88223">
        <ele>1101.4479980469</ele>
        <time>2017-10-08T04:58:34Z</time>
      </trkpt>
      <trkpt lat="45.32099" lon="5.8822">
        <ele>1100.4479980469</ele>
        <time>2017-10-08T04:58:45Z</time>
      </trkpt>
      <trkpt lat="45.32103" lon="5.88215">
        <ele>1101.4479980469</ele>
        <time>2017-10-08T04:58:53Z</time>
      </trkpt>
      <trkpt lat="45.32106" lon="5.8821">
        <ele>1099.4479980469</ele>
        <time>2017-10-08T04:59:02Z</time>
      </trkpt>
      <trkpt lat="45.32107" lon="5.88203">
        <ele>1103.4479980469</ele>
        <time>2017-10-08T04:59:12Z</time>
      </trkpt>
      <trkpt lat="45.32108" lon="5.88196">
        <ele>1105.4479980469</ele>
        <time>2017-10-08T04:59:16Z</time>
      </trkpt>
      <trkpt lat="45.3211" lon="5.88191">
        <ele>1108.4479980469</ele>
        <time>2017-10-08T04:59:21Z</time>
      </trkpt>
      <trkpt lat="45.32109" lon="5.88183">
        <ele>1110.4479980469</ele>
        <time>2017-10-08T04:59:24Z</time>
      </trkpt>
      <trkpt lat="45.3211" lon="5.88176">
        <ele>1114.4479980469</ele>
        <time>2017-10-08T04:59:28Z</time>
      </trkpt>
      <trkpt lat="45.3211" lon="5.88168">
        <ele>1117.4479980469</ele>
        <time>2017-10-08T04:59:30Z</time>
      </trkpt>
      <trkpt lat="45.32115" lon="5.88166">
        <ele>1116.4479980469</ele>
        <time>2017-10-08T04:59:34Z</time>
      </trkpt>
      <trkpt lat="45.32119" lon="5.88164">
        <ele>1119.4479980469</ele>
        <time>2017-10-08T04:59:38Z</time>
      </trkpt>
      <trkpt lat="45.32123" lon="5.88157">
        <ele>1121.4479980469</ele>
        <time>2017-10-08T04:59:43Z</time>
      </trkpt>
      <trkpt lat="45.32128" lon="5.88155">
        <ele>1121.4479980469</ele>
        <time>2017-10-08T04:59:46Z</time>
      </trkpt>
      <trkpt lat="45.3213" lon="5.88149">
        <ele>1125.4479980469</ele>
        <time>2017-10-08T05:00:22Z</time>
      </trkpt>
      <trkpt lat="45.32134" lon="5.88145">
        <ele>1128.4479980469</ele>
        <time>2017-10-08T05:00:24Z</time>
      </trkpt>
      <trkpt lat="45.3214" lon="5.88143">
        <ele>1132.4479980469</ele>
        <time>2017-10-08T05:00:26Z</time>
      </trkpt>
      <trkpt lat="45.32146" lon="5.8814">
        <ele>1130.4479980469</ele>
        <time>2017-10-08T05:00:30Z</time>
      </trkpt>
      <trkpt lat="45.32151" lon="5.88143">
        <ele>1132.4479980469</ele>
        <time>2017-10-08T05:00:35Z</time>
      </trkpt>
      <trkpt lat="45.32156" lon="5.88139">
        <ele>1136.4479980469</ele>
        <time>2017-10-08T05:00:40Z</time>
      </trkpt>
      <trkpt lat="45.32163" lon="5.88139">
        <ele>1134.4479980469</ele>
        <time>2017-10-08T05:01:08Z</time>
      </trkpt>
      <trkpt lat="45.32174" lon="5.88136">
        <ele>1135.4479980469</ele>
        <time>2017-10-08T05:01:11Z</time>
      </trkpt>
      <trkpt lat="45.32178" lon="5.88138">
        <ele>1140.4479980469</ele>
        <time>2017-10-08T05:01:16Z</time>
      </trkpt>
      <trkpt lat="45.32184" lon="5.88134">
        <ele>1142.4479980469</ele>
        <time>2017-10-08T05:01:21Z</time>
      </trkpt>
      <trkpt lat="45.32189" lon="5.88131">
        <ele>1140.4479980469</ele>
        <time>2017-10-08T05:01:25Z</time>
      </trkpt>
      <trkpt lat="45.32195" lon="5.88129">
        <ele>1143.4479980469</ele>
        <time>2017-10-08T05:01:28Z</time>
      </trkpt>
      <trkpt lat="45.32201" lon="5.88131">
        <ele>1144.4489746094</ele>
        <time>2017-10-08T05:01:32Z</time>
      </trkpt>
      <trkpt lat="45.32205" lon="5.88128">
        <ele>1144.4489746094</ele>
        <time>2017-10-08T05:01:36Z</time>
      </trkpt>
      <trkpt lat="45.32211" lon="5.88123">
        <ele>1141.4489746094</ele>
        <time>2017-10-08T05:01:40Z</time>
      </trkpt>
      <trkpt lat="45.32215" lon="5.88122">
        <ele>1141.4489746094</ele>
        <time>2017-10-08T05:01:42Z</time>
      </trkpt>
      <trkpt lat="45.32222" lon="5.88122">
        <ele>1142.4489746094</ele>
        <time>2017-10-08T05:01:53Z</time>
      </trkpt>
      <trkpt lat="45.3223" lon="5.88123">
        <ele>1146.4489746094</ele>
        <time>2017-10-08T05:01:56Z</time>
      </trkpt>
      <trkpt lat="45.32234" lon="5.88129">
        <ele>1152.4489746094</ele>
        <time>2017-10-08T05:02:00Z</time>
      </trkpt>
      <trkpt lat="45.32239" lon="5.88133">
        <ele>1153.4489746094</ele>
        <time>2017-10-08T05:02:04Z</time>
      </trkpt>
      <trkpt lat="45.32243" lon="5.88135">
        <ele>1153.4489746094</ele>
        <time>2017-10-08T05:02:08Z</time>
      </trkpt>
      <trkpt lat="45.32249" lon="5.88138">
        <ele>1160.4489746094</ele>
        <time>2017-10-08T05:02:15Z</time>
      </trkpt>
      <trkpt lat="45.32254" lon="5.88139">
        <ele>1161.4489746094</ele>
        <time>2017-10-08T05:02:19Z</time>
      </trkpt>
      <trkpt lat="45.32259" lon="5.88137">
        <ele>1160.4489746094</ele>
        <time>2017-10-08T05:02:23Z</time>
      </trkpt>
      <trkpt lat="45.32265" lon="5.88141">
        <ele>1164.4489746094</ele>
        <time>2017-10-08T05:02:27Z</time>
      </trkpt>
      <trkpt lat="45.32269" lon="5.88144">
        <ele>1167.4489746094</ele>
        <time>2017-10-08T05:02:32Z</time>
      </trkpt>
      <trkpt lat="45.32274" lon="5.88146">
        <ele>1164.4489746094</ele>
        <time>2017-10-08T05:02:36Z</time>
      </trkpt>
      <trkpt lat="45.32278" lon="5.88152">
        <ele>1163.4489746094</ele>
        <time>2017-10-08T05:02:39Z</time>
      </trkpt>
      <trkpt lat="45.3228" lon="5.88159">
        <ele>1164.4489746094</ele>
        <time>2017-10-08T05:02:43Z</time>
      </trkpt>
      <trkpt lat="45.32286" lon="5.88163">
        <ele>1165.4489746094</ele>
        <time>2017-10-08T05:02:47Z</time>
      </trkpt>
      <trkpt lat="45.32284" lon="5.88173">
        <ele>1167.4489746094</ele>
        <time>2017-10-08T05:02:51Z</time>
      </trkpt>
      <trkpt lat="45.32285" lon="5.88181">
        <ele>1167.4489746094</ele>
        <time>2017-10-08T05:02:55Z</time>
      </trkpt>
      <trkpt lat="45.32287" lon="5.88188">
        <ele>1165.4489746094</ele>
        <time>2017-10-08T05:02:59Z</time>
      </trkpt>
      <trkpt lat="45.32291" lon="5.88192">
        <ele>1166.4489746094</ele>
        <time>2017-10-08T05:03:01Z</time>
      </trkpt>
      <trkpt lat="45.3229" lon="5.88198">
        <ele>1165.4489746094</ele>
        <time>2017-10-08T05:03:06Z</time>
      </trkpt>
      <trkpt lat="45.3229" lon="5.88205">
        <ele>1166.4489746094</ele>
        <time>2017-10-08T05:03:10Z</time>
      </trkpt>
      <trkpt lat="45.32289" lon="5.88212">
        <ele>1169.4489746094</ele>
        <time>2017-10-08T05:03:14Z</time>
      </trkpt>
      <trkpt lat="45.32289" lon="5.88219">
        <ele>1169.4489746094</ele>
        <time>2017-10-08T05:03:17Z</time>
      </trkpt>
      <trkpt lat="45.32291" lon="5.88224">
        <ele>1171.4489746094</ele>
        <time>2017-10-08T05:03:20Z</time>
      </trkpt>
      <trkpt lat="45.3229" lon="5.8823">
        <ele>1173.4489746094</ele>
        <time>2017-10-08T05:03:23Z</time>
      </trkpt>
      <trkpt lat="45.32289" lon="5.88238">
        <ele>1175.4489746094</ele>
        <time>2017-10-08T05:03:25Z</time>
      </trkpt>
      <trkpt lat="45.32291" lon="5.88245">
        <ele>1173.4489746094</ele>
        <time>2017-10-08T05:03:29Z</time>
      </trkpt>
      <trkpt lat="45.3229" lon="5.88253">
        <ele>1170.4489746094</ele>
        <time>2017-10-08T05:03:33Z</time>
      </trkpt>
      <trkpt lat="45.32292" lon="5.88261">
        <ele>1172.4489746094</ele>
        <time>2017-10-08T05:03:37Z</time>
      </trkpt>
      <trkpt lat="45.32294" lon="5.88267">
        <ele>1171.4489746094</ele>
        <time>2017-10-08T05:03:43Z</time>
      </trkpt>
      <trkpt lat="45.32288" lon="5.8827">
        <ele>1171.4489746094</ele>
        <time>2017-10-08T05:03:46Z</time>
      </trkpt>
      <trkpt lat="45.32289" lon="5.88277">
        <ele>1173.4489746094</ele>
        <time>2017-10-08T05:03:51Z</time>
      </trkpt>
      <trkpt lat="45.32288" lon="5.88284">
        <ele>1173.4489746094</ele>
        <time>2017-10-08T05:03:57Z</time>
      </trkpt>
      <trkpt lat="45.32289" lon="5.8829">
        <ele>1175.4489746094</ele>
        <time>2017-10-08T05:04:01Z</time>
      </trkpt>
      <trkpt lat="45.3229" lon="5.88298">
        <ele>1172.4489746094</ele>
        <time>2017-10-08T05:04:04Z</time>
      </trkpt>
      <trkpt lat="45.32293" lon="5.88307">
        <ele>1171.4489746094</ele>
        <time>2017-10-08T05:04:09Z</time>
      </trkpt>
      <trkpt lat="45.32295" lon="5.88315">
        <ele>1170.4489746094</ele>
        <time>2017-10-08T05:04:11Z</time>
      </trkpt>
      <trkpt lat="45.32292" lon="5.88323">
        <ele>1171.4489746094</ele>
        <time>2017-10-08T05:04:14Z</time>
      </trkpt>
      <trkpt lat="45.32292" lon="5.8833">
        <ele>1173.4489746094</ele>
        <time>2017-10-08T05:04:17Z</time>
      </trkpt>
      <trkpt lat="45.32294" lon="5.88337">
        <ele>1172.4489746094</ele>
        <time>2017-10-08T05:04:20Z</time>
      </trkpt>
      <trkpt lat="45.32292" lon="5.88345">
        <ele>1173.4489746094</ele>
        <time>2017-10-08T05:04:23Z</time>
      </trkpt>
      <trkpt lat="45.32295" lon="5.88357">
        <ele>1173.4489746094</ele>
        <time>2017-10-08T05:04:32Z</time>
      </trkpt>
      <trkpt lat="45.32295" lon="5.88364">
        <ele>1170.4489746094</ele>
        <time>2017-10-08T05:04:36Z</time>
      </trkpt>
      <trkpt lat="45.32294" lon="5.88371">
        <ele>1169.4489746094</ele>
        <time>2017-10-08T05:04:40Z</time>
      </trkpt>
      <trkpt lat="45.32293" lon="5.88377">
        <ele>1171.4489746094</ele>
        <time>2017-10-08T05:04:45Z</time>
      </trkpt>
      <trkpt lat="45.32292" lon="5.88388">
        <ele>1172.4489746094</ele>
        <time>2017-10-08T05:04:49Z</time>
      </trkpt>
      <trkpt lat="45.32293" lon="5.88394">
        <ele>1173.4489746094</ele>
        <time>2017-10-08T05:04:53Z</time>
      </trkpt>
      <trkpt lat="45.32294" lon="5.88402">
        <ele>1173.4489746094</ele>
        <time>2017-10-08T05:04:57Z</time>
      </trkpt>
      <trkpt lat="45.32294" lon="5.88409">
        <ele>1175.4489746094</ele>
        <time>2017-10-08T05:05:02Z</time>
      </trkpt>
      <trkpt lat="45.32296" lon="5.88416">
        <ele>1173.4489746094</ele>
        <time>2017-10-08T05:05:05Z</time>
      </trkpt>
      <trkpt lat="45.32301" lon="5.88421">
        <ele>1173.4489746094</ele>
        <time>2017-10-08T05:05:11Z</time>
      </trkpt>
      <trkpt lat="45.32305" lon="5.88424">
        <ele>1173.4489746094</ele>
        <time>2017-10-08T05:05:14Z</time>
      </trkpt>
      <trkpt lat="45.32308" lon="5.88429">
        <ele>1179.4489746094</ele>
        <time>2017-10-08T05:05:19Z</time>
      </trkpt>
      <trkpt lat="45.32311" lon="5.88434">
        <ele>1181.4489746094</ele>
        <time>2017-10-08T05:05:23Z</time>
      </trkpt>
      <trkpt lat="45.32316" lon="5.88438">
        <ele>1190.4489746094</ele>
        <time>2017-10-08T05:05:30Z</time>
      </trkpt>
      <trkpt lat="45.32321" lon="5.88439">
        <ele>1195.4489746094</ele>
        <time>2017-10-08T05:05:32Z</time>
      </trkpt>
      <trkpt lat="45.32328" lon="5.88439">
        <ele>1196.4489746094</ele>
        <time>2017-10-08T05:05:34Z</time>
      </trkpt>
      <trkpt lat="45.32335" lon="5.8844">
        <ele>1199.4489746094</ele>
        <time>2017-10-08T05:05:37Z</time>
      </trkpt>
      <trkpt lat="45.32339" lon="5.88443">
        <ele>1201.4489746094</ele>
        <time>2017-10-08T05:05:39Z</time>
      </trkpt>
      <trkpt lat="45.32344" lon="5.8844">
        <ele>1200.4489746094</ele>
        <time>2017-10-08T05:05:41Z</time>
      </trkpt>
      <trkpt lat="45.32348" lon="5.8844">
        <ele>1202.4489746094</ele>
        <time>2017-10-08T05:05:44Z</time>
      </trkpt>
      <trkpt lat="45.32354" lon="5.88443">
        <ele>1204.4489746094</ele>
        <time>2017-10-08T05:05:48Z</time>
      </trkpt>
      <trkpt lat="45.32359" lon="5.88442">
        <ele>1205.4489746094</ele>
        <time>2017-10-08T05:05:51Z</time>
      </trkpt>
      <trkpt lat="45.32364" lon="5.88444">
        <ele>1207.4489746094</ele>
        <time>2017-10-08T05:05:53Z</time>
      </trkpt>
      <trkpt lat="45.32369" lon="5.8844">
        <ele>1208.4489746094</ele>
        <time>2017-10-08T05:05:57Z</time>
      </trkpt>
      <trkpt lat="45.32374" lon="5.88442">
        <ele>1208.4489746094</ele>
        <time>2017-10-08T05:06:00Z</time>
      </trkpt>
      <trkpt lat="45.32379" lon="5.88439">
        <ele>1210.4489746094</ele>
        <time>2017-10-08T05:06:05Z</time>
      </trkpt>
      <trkpt lat="45.32384" lon="5.8844">
        <ele>1213.4489746094</ele>
        <time>2017-10-08T05:06:09Z</time>
      </trkpt>
      <trkpt lat="45.32389" lon="5.88435">
        <ele>1214.4489746094</ele>
        <time>2017-10-08T05:06:16Z</time>
      </trkpt>
      <trkpt lat="45.32394" lon="5.88433">
        <ele>1216.4489746094</ele>
        <time>2017-10-08T05:06:20Z</time>
      </trkpt>
      <trkpt lat="45.32399" lon="5.88433">
        <ele>1216.4489746094</ele>
        <time>2017-10-08T05:06:22Z</time>
      </trkpt>
      <trkpt lat="45.32404" lon="5.88435">
        <ele>1218.4489746094</ele>
        <time>2017-10-08T05:06:27Z</time>
      </trkpt>
      <trkpt lat="45.3241" lon="5.88437">
        <ele>1219.4489746094</ele>
        <time>2017-10-08T05:06:31Z</time>
      </trkpt>
      <trkpt lat="45.32415" lon="5.88439">
        <ele>1222.4489746094</ele>
        <time>2017-10-08T05:06:38Z</time>
      </trkpt>
      <trkpt lat="45.3242" lon="5.8844">
        <ele>1226.4489746094</ele>
        <time>2017-10-08T05:06:44Z</time>
      </trkpt>
      <trkpt lat="45.32425" lon="5.88439">
        <ele>1226.4489746094</ele>
        <time>2017-10-08T05:06:51Z</time>
      </trkpt>
      <trkpt lat="45.32431" lon="5.88437">
        <ele>1229.4489746094</ele>
        <time>2017-10-08T05:06:57Z</time>
      </trkpt>
      <trkpt lat="45.32436" lon="5.88435">
        <ele>1230.4489746094</ele>
        <time>2017-10-08T05:07:03Z</time>
      </trkpt>
      <trkpt lat="45.32443" lon="5.88434">
        <ele>1234.4489746094</ele>
        <time>2017-10-08T05:07:08Z</time>
      </trkpt>
      <trkpt lat="45.32447" lon="5.88431">
        <ele>1238.4489746094</ele>
        <time>2017-10-08T05:07:12Z</time>
      </trkpt>
      <trkpt lat="45.32451" lon="5.88425">
        <ele>1240.4489746094</ele>
        <time>2017-10-08T05:07:18Z</time>
      </trkpt>
      <trkpt lat="45.32455" lon="5.88427">
        <ele>1244.4489746094</ele>
        <time>2017-10-08T05:07:23Z</time>
      </trkpt>
      <trkpt lat="45.3246" lon="5.88426">
        <ele>1244.4489746094</ele>
        <time>2017-10-08T05:07:26Z</time>
      </trkpt>
      <trkpt lat="45.32465" lon="5.88419">
        <ele>1238.4489746094</ele>
        <time>2017-10-08T05:07:31Z</time>
      </trkpt>
      <trkpt lat="45.32471" lon="5.88416">
        <ele>1237.4489746094</ele>
        <time>2017-10-08T05:07:34Z</time>
      </trkpt>
      <trkpt lat="45.32474" lon="5.88411">
        <ele>1197.4489746094</ele>
        <time>2017-10-08T05:07:40Z</time>
      </trkpt>
      <trkpt lat="45.32474" lon="5.88403">
        <ele>1215.4489746094</ele>
        <time>2017-10-08T05:07:43Z</time>
      </trkpt>
      <trkpt lat="45.32477" lon="5.88397">
        <ele>1227.4489746094</ele>
        <time>2017-10-08T05:07:49Z</time>
      </trkpt>
      <trkpt lat="45.32477" lon="5.88391">
        <ele>1226.4489746094</ele>
        <time>2017-10-08T05:07:54Z</time>
      </trkpt>
      <trkpt lat="45.32477" lon="5.88384">
        <ele>1229.4489746094</ele>
        <time>2017-10-08T05:07:59Z</time>
      </trkpt>
      <trkpt lat="45.32479" lon="5.88375">
        <ele>1230.4489746094</ele>
        <time>2017-10-08T05:08:02Z</time>
      </trkpt>
      <trkpt lat="45.32484" lon="5.88368">
        <ele>1231.4489746094</ele>
        <time>2017-10-08T05:08:04Z</time>
      </trkpt>
      <trkpt lat="45.32478" lon="5.88359">
        <ele>1230.4489746094</ele>
        <time>2017-10-08T05:08:07Z</time>
      </trkpt>
      <trkpt lat="45.32482" lon="5.88351">
        <ele>1230.4489746094</ele>
        <time>2017-10-08T05:08:09Z</time>
      </trkpt>
      <trkpt lat="45.32476" lon="5.88352">
        <ele>1238.4489746094</ele>
        <time>2017-10-08T05:08:19Z</time>
      </trkpt>
      <trkpt lat="45.32478" lon="5.88346">
        <ele>1240.4489746094</ele>
        <time>2017-10-08T05:08:24Z</time>
      </trkpt>
      <trkpt lat="45.32483" lon="5.88345">
        <ele>1243.4489746094</ele>
        <time>2017-10-08T05:08:28Z</time>
      </trkpt>
      <trkpt lat="45.32481" lon="5.88338">
        <ele>1242.4489746094</ele>
        <time>2017-10-08T05:08:33Z</time>
      </trkpt>
      <trkpt lat="45.32486" lon="5.88336">
        <ele>1242.4489746094</ele>
        <time>2017-10-08T05:08:37Z</time>
      </trkpt>
      <trkpt lat="45.32491" lon="5.88334">
        <ele>1244.4489746094</ele>
        <time>2017-10-08T05:08:39Z</time>
      </trkpt>
      <trkpt lat="45.32486" lon="5.88332">
        <ele>1247.4489746094</ele>
        <time>2017-10-08T05:08:50Z</time>
      </trkpt>
      <trkpt lat="45.32486" lon="5.88325">
        <ele>1249.4489746094</ele>
        <time>2017-10-08T05:09:07Z</time>
      </trkpt>
      <trkpt lat="45.32483" lon="5.8832">
        <ele>1254.4489746094</ele>
        <time>2017-10-08T05:09:12Z</time>
      </trkpt>
      <trkpt lat="45.32481" lon="5.88312">
        <ele>1252.4489746094</ele>
        <time>2017-10-08T05:09:16Z</time>
      </trkpt>
      <trkpt lat="45.32479" lon="5.88306">
        <ele>1255.4489746094</ele>
        <time>2017-10-08T05:09:20Z</time>
      </trkpt>
      <trkpt lat="45.32481" lon="5.88299">
        <ele>1258.4489746094</ele>
        <time>2017-10-08T05:09:27Z</time>
      </trkpt>
      <trkpt lat="45.32479" lon="5.88292">
        <ele>1260.4489746094</ele>
        <time>2017-10-08T05:09:32Z</time>
      </trkpt>
      <trkpt lat="45.32481" lon="5.88285">
        <ele>1263.4489746094</ele>
        <time>2017-10-08T05:09:38Z</time>
      </trkpt>
      <trkpt lat="45.32484" lon="5.88279">
        <ele>1263.4489746094</ele>
        <time>2017-10-08T05:09:46Z</time>
      </trkpt>
      <trkpt lat="45.32487" lon="5.88271">
        <ele>1264.4489746094</ele>
        <time>2017-10-08T05:09:49Z</time>
      </trkpt>
      <trkpt lat="45.32488" lon="5.88265">
        <ele>1265.4489746094</ele>
        <time>2017-10-08T05:09:53Z</time>
      </trkpt>
      <trkpt lat="45.32491" lon="5.88261">
        <ele>1268.4489746094</ele>
        <time>2017-10-08T05:09:56Z</time>
      </trkpt>
      <trkpt lat="45.32494" lon="5.88256">
        <ele>1269.4489746094</ele>
        <time>2017-10-08T05:09:59Z</time>
      </trkpt>
      <trkpt lat="45.32497" lon="5.88249">
        <ele>1268.4489746094</ele>
        <time>2017-10-08T05:10:02Z</time>
      </trkpt>
      <trkpt lat="45.325" lon="5.88242">
        <ele>1271.4489746094</ele>
        <time>2017-10-08T05:10:05Z</time>
      </trkpt>
      <trkpt lat="45.32503" lon="5.88237">
        <ele>1273.4489746094</ele>
        <time>2017-10-08T05:10:09Z</time>
      </trkpt>
      <trkpt lat="45.32507" lon="5.88231">
        <ele>1273.4489746094</ele>
        <time>2017-10-08T05:10:13Z</time>
      </trkpt>
      <trkpt lat="45.32511" lon="5.88226">
        <ele>1274.4489746094</ele>
        <time>2017-10-08T05:10:17Z</time>
      </trkpt>
      <trkpt lat="45.32513" lon="5.88219">
        <ele>1273.4489746094</ele>
        <time>2017-10-08T05:10:21Z</time>
      </trkpt>
      <trkpt lat="45.32514" lon="5.88212">
        <ele>1274.4489746094</ele>
        <time>2017-10-08T05:10:25Z</time>
      </trkpt>
      <trkpt lat="45.32517" lon="5.88207">
        <ele>1274.4489746094</ele>
        <time>2017-10-08T05:10:29Z</time>
      </trkpt>
      <trkpt lat="45.32518" lon="5.88199">
        <ele>1275.4489746094</ele>
        <time>2017-10-08T05:10:35Z</time>
      </trkpt>
      <trkpt lat="45.32521" lon="5.88193">
        <ele>1274.4489746094</ele>
        <time>2017-10-08T05:10:38Z</time>
      </trkpt>
      <trkpt lat="45.3252" lon="5.88184">
        <ele>1275.4489746094</ele>
        <time>2017-10-08T05:10:41Z</time>
      </trkpt>
      <trkpt lat="45.32522" lon="5.88175">
        <ele>1273.4489746094</ele>
        <time>2017-10-08T05:10:44Z</time>
      </trkpt>
      <trkpt lat="45.32528" lon="5.88169">
        <ele>1274.4489746094</ele>
        <time>2017-10-08T05:10:46Z</time>
      </trkpt>
      <trkpt lat="45.32537" lon="5.88164">
        <ele>1275.4489746094</ele>
        <time>2017-10-08T05:10:48Z</time>
      </trkpt>
      <trkpt lat="45.32541" lon="5.88154">
        <ele>1274.4489746094</ele>
        <time>2017-10-08T05:10:51Z</time>
      </trkpt>
      <trkpt lat="45.32544" lon="5.88149">
        <ele>1272.4489746094</ele>
        <time>2017-10-08T05:10:54Z</time>
      </trkpt>
      <trkpt lat="45.32549" lon="5.88143">
        <ele>1271.4489746094</ele>
        <time>2017-10-08T05:10:57Z</time>
      </trkpt>
      <trkpt lat="45.32544" lon="5.88139">
        <ele>1267.4489746094</ele>
        <time>2017-10-08T05:11:01Z</time>
      </trkpt>
      <trkpt lat="45.32545" lon="5.88131">
        <ele>1269.4489746094</ele>
        <time>2017-10-08T05:11:04Z</time>
      </trkpt>
      <trkpt lat="45.32547" lon="5.88125">
        <ele>1271.4489746094</ele>
        <time>2017-10-08T05:11:08Z</time>
      </trkpt>
      <trkpt lat="45.3255" lon="5.8811">
        <ele>1270.4489746094</ele>
        <time>2017-10-08T05:11:11Z</time>
      </trkpt>
      <trkpt lat="45.32552" lon="5.88101">
        <ele>1272.4489746094</ele>
        <time>2017-10-08T05:11:15Z</time>
      </trkpt>
      <trkpt lat="45.32551" lon="5.88093">
        <ele>1273.4489746094</ele>
        <time>2017-10-08T05:11:20Z</time>
      </trkpt>
      <trkpt lat="45.32551" lon="5.88084">
        <ele>1275.4489746094</ele>
        <time>2017-10-08T05:11:25Z</time>
      </trkpt>
      <trkpt lat="45.32548" lon="5.88079">
        <ele>1280.4489746094</ele>
        <time>2017-10-08T05:11:39Z</time>
      </trkpt>
      <trkpt lat="45.32554" lon="5.88077">
        <ele>1289.4489746094</ele>
        <time>2017-10-08T05:11:49Z</time>
      </trkpt>
      <trkpt lat="45.32557" lon="5.88073">
        <ele>1289.4489746094</ele>
        <time>2017-10-08T05:11:54Z</time>
      </trkpt>
      <trkpt lat="45.32562" lon="5.88074">
        <ele>1290.4489746094</ele>
        <time>2017-10-08T05:11:59Z</time>
      </trkpt>
      <trkpt lat="45.32568" lon="5.88077">
        <ele>1292.4489746094</ele>
        <time>2017-10-08T05:12:07Z</time>
      </trkpt>
      <trkpt lat="45.32573" lon="5.88076">
        <ele>1292.4489746094</ele>
        <time>2017-10-08T05:12:10Z</time>
      </trkpt>
      <trkpt lat="45.32574" lon="5.8807">
        <ele>1293.4489746094</ele>
        <time>2017-10-08T05:12:22Z</time>
      </trkpt>
      <trkpt lat="45.32579" lon="5.88067">
        <ele>1296.4489746094</ele>
        <time>2017-10-08T05:13:10Z</time>
      </trkpt>
      <trkpt lat="45.32586" lon="5.88066">
        <ele>1295.4489746094</ele>
        <time>2017-10-08T05:13:13Z</time>
      </trkpt>
      <trkpt lat="45.3259" lon="5.88061">
        <ele>1298.4489746094</ele>
        <time>2017-10-08T05:13:17Z</time>
      </trkpt>
      <trkpt lat="45.32591" lon="5.88055">
        <ele>1302.4489746094</ele>
        <time>2017-10-08T05:13:23Z</time>
      </trkpt>
      <trkpt lat="45.32596" lon="5.88049">
        <ele>1305.4489746094</ele>
        <time>2017-10-08T05:13:41Z</time>
      </trkpt>
      <trkpt lat="45.32598" lon="5.88042">
        <ele>1306.4489746094</ele>
        <time>2017-10-08T05:13:44Z</time>
      </trkpt>
      <trkpt lat="45.32604" lon="5.88035">
        <ele>1308.4489746094</ele>
        <time>2017-10-08T05:13:48Z</time>
      </trkpt>
      <trkpt lat="45.32606" lon="5.88028">
        <ele>1308.4489746094</ele>
        <time>2017-10-08T05:13:50Z</time>
      </trkpt>
      <trkpt lat="45.32611" lon="5.88027">
        <ele>1308.4489746094</ele>
        <time>2017-10-08T05:13:54Z</time>
      </trkpt>
      <trkpt lat="45.32613" lon="5.88021">
        <ele>1317.4489746094</ele>
        <time>2017-10-08T05:14:06Z</time>
      </trkpt>
      <trkpt lat="45.32616" lon="5.88012">
        <ele>1319.4489746094</ele>
        <time>2017-10-08T05:14:24Z</time>
      </trkpt>
      <trkpt lat="45.32614" lon="5.88004">
        <ele>1321.4489746094</ele>
        <time>2017-10-08T05:14:26Z</time>
      </trkpt>
      <trkpt lat="45.32616" lon="5.87998">
        <ele>1326.4489746094</ele>
        <time>2017-10-08T05:14:31Z</time>
      </trkpt>
      <trkpt lat="45.32618" lon="5.87991">
        <ele>1328.4489746094</ele>
        <time>2017-10-08T05:14:34Z</time>
      </trkpt>
      <trkpt lat="45.32613" lon="5.8799">
        <ele>1330.4489746094</ele>
        <time>2017-10-08T05:14:38Z</time>
      </trkpt>
      <trkpt lat="45.32609" lon="5.87985">
        <ele>1332.4489746094</ele>
        <time>2017-10-08T05:14:42Z</time>
      </trkpt>
      <trkpt lat="45.32607" lon="5.8798">
        <ele>1329.4489746094</ele>
        <time>2017-10-08T05:14:48Z</time>
      </trkpt>
      <trkpt lat="45.32603" lon="5.87974">
        <ele>1328.4489746094</ele>
        <time>2017-10-08T05:14:51Z</time>
      </trkpt>
      <trkpt lat="45.32599" lon="5.8797">
        <ele>1329.4489746094</ele>
        <time>2017-10-08T05:15:02Z</time>
      </trkpt>
      <trkpt lat="45.32597" lon="5.87962">
        <ele>1336.4489746094</ele>
        <time>2017-10-08T05:15:39Z</time>
      </trkpt>
      <trkpt lat="45.32595" lon="5.87955">
        <ele>1339.4489746094</ele>
        <time>2017-10-08T05:15:42Z</time>
      </trkpt>
      <trkpt lat="45.32597" lon="5.87947">
        <ele>1340.4489746094</ele>
        <time>2017-10-08T05:15:46Z</time>
      </trkpt>
      <trkpt lat="45.32596" lon="5.87941">
        <ele>1346.4489746094</ele>
        <time>2017-10-08T05:15:54Z</time>
      </trkpt>
      <trkpt lat="45.32596" lon="5.87933">
        <ele>1346.4489746094</ele>
        <time>2017-10-08T05:16:07Z</time>
      </trkpt>
      <trkpt lat="45.32595" lon="5.87922">
        <ele>1346.4489746094</ele>
        <time>2017-10-08T05:16:10Z</time>
      </trkpt>
      <trkpt lat="45.32597" lon="5.87914">
        <ele>1346.4489746094</ele>
        <time>2017-10-08T05:16:14Z</time>
      </trkpt>
      <trkpt lat="45.32595" lon="5.87908">
        <ele>1350.4489746094</ele>
        <time>2017-10-08T05:16:17Z</time>
      </trkpt>
      <trkpt lat="45.32591" lon="5.87904">
        <ele>1354.4489746094</ele>
        <time>2017-10-08T05:16:20Z</time>
      </trkpt>
      <trkpt lat="45.32593" lon="5.87897">
        <ele>1356.4489746094</ele>
        <time>2017-10-08T05:16:25Z</time>
      </trkpt>
      <trkpt lat="45.32594" lon="5.8789">
        <ele>1356.4489746094</ele>
        <time>2017-10-08T05:16:29Z</time>
      </trkpt>
      <trkpt lat="45.32598" lon="5.87885">
        <ele>1360.4489746094</ele>
        <time>2017-10-08T05:16:33Z</time>
      </trkpt>
      <trkpt lat="45.32599" lon="5.87877">
        <ele>1361.4489746094</ele>
        <time>2017-10-08T05:16:40Z</time>
      </trkpt>
      <trkpt lat="45.32599" lon="5.8787">
        <ele>1362.4489746094</ele>
        <time>2017-10-08T05:16:49Z</time>
      </trkpt>
      <trkpt lat="45.32603" lon="5.87865">
        <ele>1364.4489746094</ele>
        <time>2017-10-08T05:17:10Z</time>
      </trkpt>
      <trkpt lat="45.32604" lon="5.87858">
        <ele>1364.4489746094</ele>
        <time>2017-10-08T05:17:16Z</time>
      </trkpt>
      <trkpt lat="45.32608" lon="5.87855">
        <ele>1363.4489746094</ele>
        <time>2017-10-08T05:17:20Z</time>
      </trkpt>
      <trkpt lat="45.32607" lon="5.87848">
        <ele>1362.4489746094</ele>
        <time>2017-10-08T05:17:29Z</time>
      </trkpt>
      <trkpt lat="45.32611" lon="5.87841">
        <ele>1365.4489746094</ele>
        <time>2017-10-08T05:18:04Z</time>
      </trkpt>
      <trkpt lat="45.32614" lon="5.87834">
        <ele>1362.4489746094</ele>
        <time>2017-10-08T05:18:07Z</time>
      </trkpt>
      <trkpt lat="45.32619" lon="5.87831">
        <ele>1365.4489746094</ele>
        <time>2017-10-08T05:18:10Z</time>
      </trkpt>
      <trkpt lat="45.32623" lon="5.87826">
        <ele>1362.4489746094</ele>
        <time>2017-10-08T05:18:15Z</time>
      </trkpt>
      <trkpt lat="45.32628" lon="5.87821">
        <ele>1366.4489746094</ele>
        <time>2017-10-08T05:18:21Z</time>
      </trkpt>
      <trkpt lat="45.32634" lon="5.87823">
        <ele>1386.4489746094</ele>
        <time>2017-10-08T05:18:45Z</time>
      </trkpt>
      <trkpt lat="45.32639" lon="5.87825">
        <ele>1394.4489746094</ele>
        <time>2017-10-08T05:18:48Z</time>
      </trkpt>
      <trkpt lat="45.32642" lon="5.87831">
        <ele>1401.4489746094</ele>
        <time>2017-10-08T05:18:53Z</time>
      </trkpt>
      <trkpt lat="45.32646" lon="5.87834">
        <ele>1409.4489746094</ele>
        <time>2017-10-08T05:19:05Z</time>
      </trkpt>
      <trkpt lat="45.32647" lon="5.8784">
        <ele>1411.4489746094</ele>
        <time>2017-10-08T05:19:14Z</time>
      </trkpt>
      <trkpt lat="45.32649" lon="5.87847">
        <ele>1417.4489746094</ele>
        <time>2017-10-08T05:19:21Z</time>
      </trkpt>
      <trkpt lat="45.32654" lon="5.8785">
        <ele>1418.4489746094</ele>
        <time>2017-10-08T05:19:53Z</time>
      </trkpt>
      <trkpt lat="45.32659" lon="5.87846">
        <ele>1425.4489746094</ele>
        <time>2017-10-08T05:19:58Z</time>
      </trkpt>
      <trkpt lat="45.32661" lon="5.87841">
        <ele>1425.4489746094</ele>
        <time>2017-10-08T05:20:06Z</time>
      </trkpt>
      <trkpt lat="45.32663" lon="5.87834">
        <ele>1423.4489746094</ele>
        <time>2017-10-08T05:20:13Z</time>
      </trkpt>
      <trkpt lat="45.32668" lon="5.87832">
        <ele>1425.4489746094</ele>
        <time>2017-10-08T05:20:20Z</time>
      </trkpt>
      <trkpt lat="45.32671" lon="5.87827">
        <ele>1423.4489746094</ele>
        <time>2017-10-08T05:20:26Z</time>
      </trkpt>
      <trkpt lat="45.32675" lon="5.87822">
        <ele>1426.4489746094</ele>
        <time>2017-10-08T05:20:29Z</time>
      </trkpt>
      <trkpt lat="45.3268" lon="5.87819">
        <ele>1426.4489746094</ele>
        <time>2017-10-08T05:20:32Z</time>
      </trkpt>
      <trkpt lat="45.32684" lon="5.87812">
        <ele>1429.4489746094</ele>
        <time>2017-10-08T05:20:34Z</time>
      </trkpt>
      <trkpt lat="45.32685" lon="5.8782">
        <ele>1432.4489746094</ele>
        <time>2017-10-08T05:20:40Z</time>
      </trkpt>
      <trkpt lat="45.32678" lon="5.87824">
        <ele>1436.4489746094</ele>
        <time>2017-10-08T05:20:46Z</time>
      </trkpt>
      <trkpt lat="45.32684" lon="5.87826">
        <ele>1439.4489746094</ele>
        <time>2017-10-08T05:20:53Z</time>
      </trkpt>
      <trkpt lat="45.32687" lon="5.8783">
        <ele>1443.4489746094</ele>
        <time>2017-10-08T05:21:06Z</time>
      </trkpt>
      <trkpt lat="45.3269" lon="5.87823">
        <ele>1442.4489746094</ele>
        <time>2017-10-08T05:21:12Z</time>
      </trkpt>
      <trkpt lat="45.32691" lon="5.87816">
        <ele>1440.4489746094</ele>
        <time>2017-10-08T05:21:22Z</time>
      </trkpt>
      <trkpt lat="45.32696" lon="5.87813">
        <ele>1441.4489746094</ele>
        <time>2017-10-08T05:21:25Z</time>
      </trkpt>
      <trkpt lat="45.32694" lon="5.87819">
        <ele>1403.4489746094</ele>
        <time>2017-10-08T05:22:08Z</time>
      </trkpt>
      <trkpt lat="45.32696" lon="5.87826">
        <ele>1449.4489746094</ele>
        <time>2017-10-08T05:22:18Z</time>
      </trkpt>
      <trkpt lat="45.32702" lon="5.87827">
        <ele>1450.4489746094</ele>
        <time>2017-10-08T05:22:22Z</time>
      </trkpt>
      <trkpt lat="45.32706" lon="5.87832">
        <ele>1456.4489746094</ele>
        <time>2017-10-08T05:22:30Z</time>
      </trkpt>
      <trkpt lat="45.3271" lon="5.87829">
        <ele>1459.4489746094</ele>
        <time>2017-10-08T05:22:36Z</time>
      </trkpt>
      <trkpt lat="45.32713" lon="5.87824">
        <ele>1458.4489746094</ele>
        <time>2017-10-08T05:22:43Z</time>
      </trkpt>
      <trkpt lat="45.32718" lon="5.87824">
        <ele>1463.4489746094</ele>
        <time>2017-10-08T05:22:52Z</time>
      </trkpt>
      <trkpt lat="45.32721" lon="5.87829">
        <ele>1468.4489746094</ele>
        <time>2017-10-08T05:23:04Z</time>
      </trkpt>
      <trkpt lat="45.32725" lon="5.87824">
        <ele>1468.4489746094</ele>
        <time>2017-10-08T05:23:08Z</time>
      </trkpt>
      <trkpt lat="45.32727" lon="5.87817">
        <ele>1469.4489746094</ele>
        <time>2017-10-08T05:23:16Z</time>
      </trkpt>
      <trkpt lat="45.3273" lon="5.87813">
        <ele>1476.4489746094</ele>
        <time>2017-10-08T05:23:33Z</time>
      </trkpt>
      <trkpt lat="45.32731" lon="5.87805">
        <ele>1396.4489746094</ele>
        <time>2017-10-08T05:24:14Z</time>
      </trkpt>
      <trkpt lat="45.32732" lon="5.87799">
        <ele>1407.4489746094</ele>
        <time>2017-10-08T05:24:18Z</time>
      </trkpt>
      <trkpt lat="45.32731" lon="5.87791">
        <ele>1424.4489746094</ele>
        <time>2017-10-08T05:24:20Z</time>
      </trkpt>
      <trkpt lat="45.32732" lon="5.87785">
        <ele>1427.4489746094</ele>
        <time>2017-10-08T05:24:24Z</time>
      </trkpt>
      <trkpt lat="45.32735" lon="5.87779">
        <ele>1428.4489746094</ele>
        <time>2017-10-08T05:24:27Z</time>
      </trkpt>
      <trkpt lat="45.32738" lon="5.87772">
        <ele>1130.4489746094</ele>
        <time>2017-10-08T05:24:34Z</time>
      </trkpt>
      <trkpt lat="45.32739" lon="5.87765">
        <ele>1397.4489746094</ele>
        <time>2017-10-08T05:24:46Z</time>
      </trkpt>
      <trkpt lat="45.32739" lon="5.87757">
        <ele>1384.4489746094</ele>
        <time>2017-10-08T05:24:49Z</time>
      </trkpt>
      <trkpt lat="45.32741" lon="5.87752">
        <ele>1385.4489746094</ele>
        <time>2017-10-08T05:24:53Z</time>
      </trkpt>
      <trkpt lat="45.32741" lon="5.87744">
        <ele>1441.4489746094</ele>
        <time>2017-10-08T05:25:00Z</time>
      </trkpt>
      <trkpt lat="45.32742" lon="5.87736">
        <ele>1449.4489746094</ele>
        <time>2017-10-08T05:25:04Z</time>
      </trkpt>
      <trkpt lat="45.32742" lon="5.87728">
        <ele>1452.4489746094</ele>
        <time>2017-10-08T05:25:09Z</time>
      </trkpt>
      <trkpt lat="45.32742" lon="5.8772">
        <ele>1448.4489746094</ele>
        <time>2017-10-08T05:25:13Z</time>
      </trkpt>
      <trkpt lat="45.32743" lon="5.87726">
        <ele>1219.4489746094</ele>
        <time>2017-10-08T05:29:22Z</time>
      </trkpt>
      <trkpt lat="45.32742" lon="5.87734">
        <ele>1331.4489746094</ele>
        <time>2017-10-08T05:29:25Z</time>
      </trkpt>
      <trkpt lat="45.32745" lon="5.8774">
        <ele>1369.4489746094</ele>
        <time>2017-10-08T05:29:28Z</time>
      </trkpt>
      <trkpt lat="45.32742" lon="5.87746">
        <ele>1389.4489746094</ele>
        <time>2017-10-08T05:29:31Z</time>
      </trkpt>
      <trkpt lat="45.32741" lon="5.87753">
        <ele>1417.4489746094</ele>
        <time>2017-10-08T05:29:35Z</time>
      </trkpt>
      <trkpt lat="45.32738" lon="5.87761">
        <ele>1426.4489746094</ele>
        <time>2017-10-08T05:29:37Z</time>
      </trkpt>
      <trkpt lat="45.32737" lon="5.87768">
        <ele>1431.4489746094</ele>
        <time>2017-10-08T05:29:39Z</time>
      </trkpt>
      <trkpt lat="45.32734" lon="5.87777">
        <ele>1442.4489746094</ele>
        <time>2017-10-08T05:29:41Z</time>
      </trkpt>
      <trkpt lat="45.32731" lon="5.87782">
        <ele>1443.4489746094</ele>
        <time>2017-10-08T05:29:43Z</time>
      </trkpt>
      <trkpt lat="45.32731" lon="5.87789">
        <ele>1450.4489746094</ele>
        <time>2017-10-08T05:29:45Z</time>
      </trkpt>
      <trkpt lat="45.32729" lon="5.87798">
        <ele>1458.4489746094</ele>
        <time>2017-10-08T05:29:48Z</time>
      </trkpt>
      <trkpt lat="45.32727" lon="5.87806">
        <ele>1463.4489746094</ele>
        <time>2017-10-08T05:29:50Z</time>
      </trkpt>
      <trkpt lat="45.32727" lon="5.87815">
        <ele>1468.4489746094</ele>
        <time>2017-10-08T05:29:53Z</time>
      </trkpt>
      <trkpt lat="45.32723" lon="5.87819">
        <ele>1468.4489746094</ele>
        <time>2017-10-08T05:29:55Z</time>
      </trkpt>
      <trkpt lat="45.32721" lon="5.87812">
        <ele>1458.4489746094</ele>
        <time>2017-10-08T05:30:00Z</time>
      </trkpt>
      <trkpt lat="45.32716" lon="5.87816">
        <ele>1461.4489746094</ele>
        <time>2017-10-08T05:30:02Z</time>
      </trkpt>
      <trkpt lat="45.32716" lon="5.87824">
        <ele>1460.4489746094</ele>
        <time>2017-10-08T05:30:04Z</time>
      </trkpt>
      <trkpt lat="45.32714" lon="5.8783">
        <ele>1460.4489746094</ele>
        <time>2017-10-08T05:30:06Z</time>
      </trkpt>
      <trkpt lat="45.32709" lon="5.87827">
        <ele>1456.4489746094</ele>
        <time>2017-10-08T05:30:14Z</time>
      </trkpt>
      <trkpt lat="45.32708" lon="5.8782">
        <ele>1452.4489746094</ele>
        <time>2017-10-08T05:30:18Z</time>
      </trkpt>
      <trkpt lat="45.32705" lon="5.87816">
        <ele>1448.4489746094</ele>
        <time>2017-10-08T05:30:24Z</time>
      </trkpt>
      <trkpt lat="45.327" lon="5.87818">
        <ele>1449.4489746094</ele>
        <time>2017-10-08T05:30:49Z</time>
      </trkpt>
      <trkpt lat="45.32694" lon="5.87825">
        <ele>1447.4489746094</ele>
        <time>2017-10-08T05:30:51Z</time>
      </trkpt>
      <trkpt lat="45.3269" lon="5.8783">
        <ele>1446.4489746094</ele>
        <time>2017-10-08T05:30:53Z</time>
      </trkpt>
      <trkpt lat="45.32686" lon="5.87834">
        <ele>1442.4489746094</ele>
        <time>2017-10-08T05:30:55Z</time>
      </trkpt>
      <trkpt lat="45.32681" lon="5.87838">
        <ele>1440.4489746094</ele>
        <time>2017-10-08T05:30:57Z</time>
      </trkpt>
      <trkpt lat="45.32675" lon="5.87841">
        <ele>1439.4489746094</ele>
        <time>2017-10-08T05:30:59Z</time>
      </trkpt>
      <trkpt lat="45.32671" lon="5.87848">
        <ele>1437.4489746094</ele>
        <time>2017-10-08T05:31:02Z</time>
      </trkpt>
      <trkpt lat="45.32665" lon="5.87852">
        <ele>1436.4489746094</ele>
        <time>2017-10-08T05:31:04Z</time>
      </trkpt>
      <trkpt lat="45.32661" lon="5.87854">
        <ele>1432.4489746094</ele>
        <time>2017-10-08T05:31:08Z</time>
      </trkpt>
      <trkpt lat="45.32656" lon="5.87852">
        <ele>1428.4489746094</ele>
        <time>2017-10-08T05:31:12Z</time>
      </trkpt>
      <trkpt lat="45.32652" lon="5.87847">
        <ele>1424.4489746094</ele>
        <time>2017-10-08T05:31:21Z</time>
      </trkpt>
      <trkpt lat="45.32645" lon="5.87841">
        <ele>1421.4489746094</ele>
        <time>2017-10-08T05:31:30Z</time>
      </trkpt>
      <trkpt lat="45.32643" lon="5.87834">
        <ele>1418.4489746094</ele>
        <time>2017-10-08T05:31:33Z</time>
      </trkpt>
      <trkpt lat="45.32639" lon="5.87829">
        <ele>1413.4489746094</ele>
        <time>2017-10-08T05:31:37Z</time>
      </trkpt>
      <trkpt lat="45.32636" lon="5.87823">
        <ele>1412.4489746094</ele>
        <time>2017-10-08T05:31:43Z</time>
      </trkpt>
      <trkpt lat="45.32631" lon="5.87823">
        <ele>1409.4489746094</ele>
        <time>2017-10-08T05:31:52Z</time>
      </trkpt>
      <trkpt lat="45.32627" lon="5.8783">
        <ele>1404.4489746094</ele>
        <time>2017-10-08T05:32:07Z</time>
      </trkpt>
      <trkpt lat="45.32623" lon="5.87835">
        <ele>1401.4489746094</ele>
        <time>2017-10-08T05:32:09Z</time>
      </trkpt>
      <trkpt lat="45.32615" lon="5.8784">
        <ele>1397.4489746094</ele>
        <time>2017-10-08T05:32:11Z</time>
      </trkpt>
      <trkpt lat="45.3261" lon="5.87844">
        <ele>1393.4489746094</ele>
        <time>2017-10-08T05:32:13Z</time>
      </trkpt>
      <trkpt lat="45.32603" lon="5.87852">
        <ele>1388.4489746094</ele>
        <time>2017-10-08T05:32:18Z</time>
      </trkpt>
      <trkpt lat="45.32598" lon="5.87857">
        <ele>1387.4489746094</ele>
        <time>2017-10-08T05:32:20Z</time>
      </trkpt>
      <trkpt lat="45.326" lon="5.87862">
        <ele>1382.4489746094</ele>
        <time>2017-10-08T05:32:22Z</time>
      </trkpt>
      <trkpt lat="45.32596" lon="5.87869">
        <ele>1379.4489746094</ele>
        <time>2017-10-08T05:32:24Z</time>
      </trkpt>
      <trkpt lat="45.32592" lon="5.87877">
        <ele>1376.4489746094</ele>
        <time>2017-10-08T05:32:26Z</time>
      </trkpt>
      <trkpt lat="45.32593" lon="5.87886">
        <ele>1378.4489746094</ele>
        <time>2017-10-08T05:32:29Z</time>
      </trkpt>
      <trkpt lat="45.32593" lon="5.87893">
        <ele>1376.4489746094</ele>
        <time>2017-10-08T05:32:32Z</time>
      </trkpt>
      <trkpt lat="45.32594" lon="5.879">
        <ele>1372.4489746094</ele>
        <time>2017-10-08T05:32:35Z</time>
      </trkpt>
      <trkpt lat="45.32597" lon="5.87907">
        <ele>1368.4489746094</ele>
        <time>2017-10-08T05:32:38Z</time>
      </trkpt>
      <trkpt lat="45.32597" lon="5.87915">
        <ele>1366.4489746094</ele>
        <time>2017-10-08T05:32:42Z</time>
      </trkpt>
      <trkpt lat="45.326" lon="5.8792">
        <ele>1363.4489746094</ele>
        <time>2017-10-08T05:32:45Z</time>
      </trkpt>
      <trkpt lat="45.32601" lon="5.87929">
        <ele>1359.4489746094</ele>
        <time>2017-10-08T05:32:49Z</time>
      </trkpt>
      <trkpt lat="45.326" lon="5.87948">
        <ele>1358.4489746094</ele>
        <time>2017-10-08T05:32:52Z</time>
      </trkpt>
      <trkpt lat="45.32599" lon="5.87955">
        <ele>1358.4489746094</ele>
        <time>2017-10-08T05:32:54Z</time>
      </trkpt>
      <trkpt lat="45.32602" lon="5.87966">
        <ele>1358.4489746094</ele>
        <time>2017-10-08T05:32:56Z</time>
      </trkpt>
      <trkpt lat="45.32608" lon="5.87971">
        <ele>1349.4489746094</ele>
        <time>2017-10-08T05:33:02Z</time>
      </trkpt>
      <trkpt lat="45.32612" lon="5.87968">
        <ele>1344.4489746094</ele>
        <time>2017-10-08T05:33:05Z</time>
      </trkpt>
      <trkpt lat="45.32614" lon="5.87975">
        <ele>1036.4489746094</ele>
        <time>2017-10-08T05:33:10Z</time>
      </trkpt>
      <trkpt lat="45.32616" lon="5.87983">
        <ele>1152.4489746094</ele>
        <time>2017-10-08T05:33:14Z</time>
      </trkpt>
      <trkpt lat="45.32615" lon="5.8799">
        <ele>1200.4489746094</ele>
        <time>2017-10-08T05:33:16Z</time>
      </trkpt>
      <trkpt lat="45.32614" lon="5.87997">
        <ele>1226.4489746094</ele>
        <time>2017-10-08T05:33:18Z</time>
      </trkpt>
      <trkpt lat="45.32616" lon="5.88005">
        <ele>1278.4489746094</ele>
        <time>2017-10-08T05:33:25Z</time>
      </trkpt>
      <trkpt lat="45.32614" lon="5.88014">
        <ele>1289.4489746094</ele>
        <time>2017-10-08T05:33:28Z</time>
      </trkpt>
      <trkpt lat="45.3261" lon="5.88021">
        <ele>1300.4489746094</ele>
        <time>2017-10-08T05:33:32Z</time>
      </trkpt>
      <trkpt lat="45.32605" lon="5.88024">
        <ele>1301.4489746094</ele>
        <time>2017-10-08T05:33:34Z</time>
      </trkpt>
      <trkpt lat="45.32602" lon="5.88031">
        <ele>1309.4489746094</ele>
        <time>2017-10-08T05:33:37Z</time>
      </trkpt>
      <trkpt lat="45.32597" lon="5.88035">
        <ele>1311.4489746094</ele>
        <time>2017-10-08T05:33:43Z</time>
      </trkpt>
      <trkpt lat="45.32593" lon="5.8804">
        <ele>1311.4489746094</ele>
        <time>2017-10-08T05:33:46Z</time>
      </trkpt>
      <trkpt lat="45.3259" lon="5.88046">
        <ele>1303.4489746094</ele>
        <time>2017-10-08T05:33:51Z</time>
      </trkpt>
      <trkpt lat="45.32588" lon="5.88053">
        <ele>1301.4489746094</ele>
        <time>2017-10-08T05:33:53Z</time>
      </trkpt>
      <trkpt lat="45.32587" lon="5.8806">
        <ele>1302.4489746094</ele>
        <time>2017-10-08T05:33:55Z</time>
      </trkpt>
      <trkpt lat="45.32583" lon="5.88066">
        <ele>1305.4489746094</ele>
        <time>2017-10-08T05:33:58Z</time>
      </trkpt>
      <trkpt lat="45.32579" lon="5.88065">
        <ele>1308.4489746094</ele>
        <time>2017-10-08T05:34:06Z</time>
      </trkpt>
      <trkpt lat="45.32573" lon="5.88071">
        <ele>1306.4489746094</ele>
        <time>2017-10-08T05:34:14Z</time>
      </trkpt>
      <trkpt lat="45.32568" lon="5.88084">
        <ele>1303.4489746094</ele>
        <time>2017-10-08T05:34:17Z</time>
      </trkpt>
      <trkpt lat="45.32564" lon="5.8809">
        <ele>1300.4489746094</ele>
        <time>2017-10-08T05:34:20Z</time>
      </trkpt>
      <trkpt lat="45.32561" lon="5.88098">
        <ele>1299.4489746094</ele>
        <time>2017-10-08T05:34:22Z</time>
      </trkpt>
      <trkpt lat="45.32559" lon="5.88104">
        <ele>1297.4489746094</ele>
        <time>2017-10-08T05:34:24Z</time>
      </trkpt>
      <trkpt lat="45.32555" lon="5.88115">
        <ele>1294.4489746094</ele>
        <time>2017-10-08T05:34:26Z</time>
      </trkpt>
      <trkpt lat="45.32549" lon="5.88136">
        <ele>1291.4489746094</ele>
        <time>2017-10-08T05:34:30Z</time>
      </trkpt>
      <trkpt lat="45.32544" lon="5.88146">
        <ele>1288.4489746094</ele>
        <time>2017-10-08T05:34:33Z</time>
      </trkpt>
      <trkpt lat="45.3254" lon="5.88152">
        <ele>1286.4489746094</ele>
        <time>2017-10-08T05:34:35Z</time>
      </trkpt>
      <trkpt lat="45.32538" lon="5.8816">
        <ele>1285.4489746094</ele>
        <time>2017-10-08T05:34:37Z</time>
      </trkpt>
      <trkpt lat="45.32535" lon="5.88165">
        <ele>1285.4489746094</ele>
        <time>2017-10-08T05:34:38Z</time>
      </trkpt>
      <trkpt lat="45.32528" lon="5.8818">
        <ele>1283.4489746094</ele>
        <time>2017-10-08T05:34:41Z</time>
      </trkpt>
      <trkpt lat="45.32525" lon="5.88188">
        <ele>1281.4489746094</ele>
        <time>2017-10-08T05:34:43Z</time>
      </trkpt>
      <trkpt lat="45.3252" lon="5.88195">
        <ele>1278.4489746094</ele>
        <time>2017-10-08T05:34:45Z</time>
      </trkpt>
      <trkpt lat="45.32511" lon="5.8821">
        <ele>1275.4489746094</ele>
        <time>2017-10-08T05:34:48Z</time>
      </trkpt>
      <trkpt lat="45.32507" lon="5.88219">
        <ele>1272.4489746094</ele>
        <time>2017-10-08T05:34:50Z</time>
      </trkpt>
      <trkpt lat="45.32505" lon="5.88228">
        <ele>1273.4489746094</ele>
        <time>2017-10-08T05:34:52Z</time>
      </trkpt>
      <trkpt lat="45.325" lon="5.88236">
        <ele>1268.4489746094</ele>
        <time>2017-10-08T05:34:55Z</time>
      </trkpt>
      <trkpt lat="45.32493" lon="5.88242">
        <ele>1267.4489746094</ele>
        <time>2017-10-08T05:34:57Z</time>
      </trkpt>
      <trkpt lat="45.32487" lon="5.88248">
        <ele>1267.4489746094</ele>
        <time>2017-10-08T05:34:59Z</time>
      </trkpt>
      <trkpt lat="45.32486" lon="5.88255">
        <ele>1268.4489746094</ele>
        <time>2017-10-08T05:35:01Z</time>
      </trkpt>
      <trkpt lat="45.32484" lon="5.88262">
        <ele>1271.4489746094</ele>
        <time>2017-10-08T05:35:03Z</time>
      </trkpt>
      <trkpt lat="45.32484" lon="5.8827">
        <ele>1268.4489746094</ele>
        <time>2017-10-08T05:35:07Z</time>
      </trkpt>
      <trkpt lat="45.32483" lon="5.88278">
        <ele>1262.4489746094</ele>
        <time>2017-10-08T05:35:13Z</time>
      </trkpt>
      <trkpt lat="45.32485" lon="5.88284">
        <ele>1262.4489746094</ele>
        <time>2017-10-08T05:35:18Z</time>
      </trkpt>
      <trkpt lat="45.32483" lon="5.88291">
        <ele>1261.4489746094</ele>
        <time>2017-10-08T05:35:20Z</time>
      </trkpt>
      <trkpt lat="45.3248" lon="5.88298">
        <ele>1258.4489746094</ele>
        <time>2017-10-08T05:35:23Z</time>
      </trkpt>
      <trkpt lat="45.32481" lon="5.88304">
        <ele>1257.4489746094</ele>
        <time>2017-10-08T05:35:26Z</time>
      </trkpt>
      <trkpt lat="45.32483" lon="5.88312">
        <ele>1251.4489746094</ele>
        <time>2017-10-08T05:35:29Z</time>
      </trkpt>
      <trkpt lat="45.32478" lon="5.88313">
        <ele>1247.4489746094</ele>
        <time>2017-10-08T05:35:32Z</time>
      </trkpt>
      <trkpt lat="45.32476" lon="5.88319">
        <ele>1246.4489746094</ele>
        <time>2017-10-08T05:35:34Z</time>
      </trkpt>
      <trkpt lat="45.32478" lon="5.88328">
        <ele>1244.4489746094</ele>
        <time>2017-10-08T05:35:36Z</time>
      </trkpt>
      <trkpt lat="45.32481" lon="5.88336">
        <ele>1243.4489746094</ele>
        <time>2017-10-08T05:35:39Z</time>
      </trkpt>
      <trkpt lat="45.32481" lon="5.88343">
        <ele>1239.4489746094</ele>
        <time>2017-10-08T05:35:42Z</time>
      </trkpt>
      <trkpt lat="45.32481" lon="5.88351">
        <ele>1235.4489746094</ele>
        <time>2017-10-08T05:35:47Z</time>
      </trkpt>
      <trkpt lat="45.32479" lon="5.88357">
        <ele>1232.4489746094</ele>
        <time>2017-10-08T05:35:51Z</time>
      </trkpt>
      <trkpt lat="45.32475" lon="5.88367">
        <ele>1231.4489746094</ele>
        <time>2017-10-08T05:35:53Z</time>
      </trkpt>
      <trkpt lat="45.32466" lon="5.88381">
        <ele>1228.4489746094</ele>
        <time>2017-10-08T05:35:56Z</time>
      </trkpt>
      <trkpt lat="45.32458" lon="5.88392">
        <ele>1226.4489746094</ele>
        <time>2017-10-08T05:35:58Z</time>
      </trkpt>
      <trkpt lat="45.32453" lon="5.88395">
        <ele>1225.4489746094</ele>
        <time>2017-10-08T05:35:59Z</time>
      </trkpt>
      <trkpt lat="45.32447" lon="5.88398">
        <ele>1224.4489746094</ele>
        <time>2017-10-08T05:36:00Z</time>
      </trkpt>
      <trkpt lat="45.32442" lon="5.88405">
        <ele>1216.4489746094</ele>
        <time>2017-10-08T05:36:06Z</time>
      </trkpt>
      <trkpt lat="45.32437" lon="5.88406">
        <ele>1213.4489746094</ele>
        <time>2017-10-08T05:36:09Z</time>
      </trkpt>
      <trkpt lat="45.32431" lon="5.8841">
        <ele>1210.4489746094</ele>
        <time>2017-10-08T05:36:14Z</time>
      </trkpt>
      <trkpt lat="45.32428" lon="5.88414">
        <ele>1212.4489746094</ele>
        <time>2017-10-08T05:36:17Z</time>
      </trkpt>
      <trkpt lat="45.32422" lon="5.88418">
        <ele>1209.4489746094</ele>
        <time>2017-10-08T05:36:19Z</time>
      </trkpt>
      <trkpt lat="45.3241" lon="5.88422">
        <ele>1208.4489746094</ele>
        <time>2017-10-08T05:36:21Z</time>
      </trkpt>
      <trkpt lat="45.32401" lon="5.88423">
        <ele>1208.4489746094</ele>
        <time>2017-10-08T05:36:23Z</time>
      </trkpt>
      <trkpt lat="45.3239" lon="5.88425">
        <ele>1206.4489746094</ele>
        <time>2017-10-08T05:36:24Z</time>
      </trkpt>
      <trkpt lat="45.32382" lon="5.88434">
        <ele>1203.4489746094</ele>
        <time>2017-10-08T05:36:28Z</time>
      </trkpt>
      <trkpt lat="45.32376" lon="5.88438">
        <ele>1206.4489746094</ele>
        <time>2017-10-08T05:36:32Z</time>
      </trkpt>
      <trkpt lat="45.32364" lon="5.88439">
        <ele>1204.4489746094</ele>
        <time>2017-10-08T05:36:37Z</time>
      </trkpt>
      <trkpt lat="45.32355" lon="5.88441">
        <ele>1201.4489746094</ele>
        <time>2017-10-08T05:36:39Z</time>
      </trkpt>
      <trkpt lat="45.32348" lon="5.88442">
        <ele>1199.4489746094</ele>
        <time>2017-10-08T05:36:41Z</time>
      </trkpt>
      <trkpt lat="45.32338" lon="5.88441">
        <ele>1197.4489746094</ele>
        <time>2017-10-08T05:36:43Z</time>
      </trkpt>
      <trkpt lat="45.32332" lon="5.8844">
        <ele>1194.4489746094</ele>
        <time>2017-10-08T05:36:44Z</time>
      </trkpt>
      <trkpt lat="45.32326" lon="5.88438">
        <ele>1189.4489746094</ele>
        <time>2017-10-08T05:36:48Z</time>
      </trkpt>
      <trkpt lat="45.32322" lon="5.88433">
        <ele>1186.4489746094</ele>
        <time>2017-10-08T05:36:50Z</time>
      </trkpt>
      <trkpt lat="45.32318" lon="5.88425">
        <ele>1184.4489746094</ele>
        <time>2017-10-08T05:36:53Z</time>
      </trkpt>
      <trkpt lat="45.32313" lon="5.88418">
        <ele>1181.4489746094</ele>
        <time>2017-10-08T05:36:57Z</time>
      </trkpt>
      <trkpt lat="45.32308" lon="5.88418">
        <ele>1180.4489746094</ele>
        <time>2017-10-08T05:36:58Z</time>
      </trkpt>
      <trkpt lat="45.32304" lon="5.88412">
        <ele>1176.4489746094</ele>
        <time>2017-10-08T05:37:00Z</time>
      </trkpt>
      <trkpt lat="45.32302" lon="5.88406">
        <ele>1174.4489746094</ele>
        <time>2017-10-08T05:37:04Z</time>
      </trkpt>
      <trkpt lat="45.32298" lon="5.88402">
        <ele>1174.4489746094</ele>
        <time>2017-10-08T05:37:06Z</time>
      </trkpt>
      <trkpt lat="45.32294" lon="5.88386">
        <ele>1173.4489746094</ele>
        <time>2017-10-08T05:37:08Z</time>
      </trkpt>
      <trkpt lat="45.32291" lon="5.88357">
        <ele>1170.4489746094</ele>
        <time>2017-10-08T05:37:10Z</time>
      </trkpt>
      <trkpt lat="45.32293" lon="5.88346">
        <ele>1169.4489746094</ele>
        <time>2017-10-08T05:37:12Z</time>
      </trkpt>
      <trkpt lat="45.32296" lon="5.88339">
        <ele>1167.4489746094</ele>
        <time>2017-10-08T05:37:15Z</time>
      </trkpt>
      <trkpt lat="45.32298" lon="5.88323">
        <ele>1164.4489746094</ele>
        <time>2017-10-08T05:37:18Z</time>
      </trkpt>
      <trkpt lat="45.32295" lon="5.88312">
        <ele>1160.4489746094</ele>
        <time>2017-10-08T05:37:21Z</time>
      </trkpt>
      <trkpt lat="45.32293" lon="5.88303">
        <ele>1159.4489746094</ele>
        <time>2017-10-08T05:37:24Z</time>
      </trkpt>
      <trkpt lat="45.32293" lon="5.88294">
        <ele>1157.4489746094</ele>
        <time>2017-10-08T05:37:26Z</time>
      </trkpt>
      <trkpt lat="45.32295" lon="5.88287">
        <ele>1156.4489746094</ele>
        <time>2017-10-08T05:37:28Z</time>
      </trkpt>
      <trkpt lat="45.32296" lon="5.88281">
        <ele>1155.4489746094</ele>
        <time>2017-10-08T05:37:30Z</time>
      </trkpt>
      <trkpt lat="45.32295" lon="5.88274">
        <ele>1152.4489746094</ele>
        <time>2017-10-08T05:37:33Z</time>
      </trkpt>
      <trkpt lat="45.32292" lon="5.88265">
        <ele>1150.4489746094</ele>
        <time>2017-10-08T05:37:35Z</time>
      </trkpt>
      <trkpt lat="45.32293" lon="5.88257">
        <ele>1149.4489746094</ele>
        <time>2017-10-08T05:37:38Z</time>
      </trkpt>
      <trkpt lat="45.32293" lon="5.88243">
        <ele>1146.4489746094</ele>
        <time>2017-10-08T05:37:40Z</time>
      </trkpt>
      <trkpt lat="45.32296" lon="5.88229">
        <ele>1146.4489746094</ele>
        <time>2017-10-08T05:37:42Z</time>
      </trkpt>
      <trkpt lat="45.32295" lon="5.8822">
        <ele>1143.4489746094</ele>
        <time>2017-10-08T05:37:44Z</time>
      </trkpt>
      <trkpt lat="45.32296" lon="5.8821">
        <ele>1143.4489746094</ele>
        <time>2017-10-08T05:37:46Z</time>
      </trkpt>
      <trkpt lat="45.32296" lon="5.88191">
        <ele>1143.4489746094</ele>
        <time>2017-10-08T05:37:48Z</time>
      </trkpt>
      <trkpt lat="45.32292" lon="5.88185">
        <ele>1141.4489746094</ele>
        <time>2017-10-08T05:37:51Z</time>
      </trkpt>
      <trkpt lat="45.32292" lon="5.88179">
        <ele>1143.4489746094</ele>
        <time>2017-10-08T05:37:53Z</time>
      </trkpt>
      <trkpt lat="45.3229" lon="5.88169">
        <ele>1144.4489746094</ele>
        <time>2017-10-08T05:37:55Z</time>
      </trkpt>
      <trkpt lat="45.32286" lon="5.88163">
        <ele>1141.4489746094</ele>
        <time>2017-10-08T05:37:57Z</time>
      </trkpt>
      <trkpt lat="45.32279" lon="5.88156">
        <ele>1139.4489746094</ele>
        <time>2017-10-08T05:37:59Z</time>
      </trkpt>
      <trkpt lat="45.32276" lon="5.88148">
        <ele>1136.4489746094</ele>
        <time>2017-10-08T05:38:02Z</time>
      </trkpt>
      <trkpt lat="45.32268" lon="5.88146">
        <ele>1134.4489746094</ele>
        <time>2017-10-08T05:38:06Z</time>
      </trkpt>
      <trkpt lat="45.32262" lon="5.88141">
        <ele>1131.4489746094</ele>
        <time>2017-10-08T05:38:10Z</time>
      </trkpt>
      <trkpt lat="45.32256" lon="5.88138">
        <ele>1131.4489746094</ele>
        <time>2017-10-08T05:38:13Z</time>
      </trkpt>
      <trkpt lat="45.32251" lon="5.88132">
        <ele>1128.4489746094</ele>
        <time>2017-10-08T05:38:15Z</time>
      </trkpt>
      <trkpt lat="45.32244" lon="5.88133">
        <ele>1128.4489746094</ele>
        <time>2017-10-08T05:38:16Z</time>
      </trkpt>
      <trkpt lat="45.32234" lon="5.88132">
        <ele>1129.4489746094</ele>
        <time>2017-10-08T05:38:19Z</time>
      </trkpt>
      <trkpt lat="45.3223" lon="5.88133">
        <ele>1130.4489746094</ele>
        <time>2017-10-08T05:38:22Z</time>
      </trkpt>
      <trkpt lat="45.32224" lon="5.88135">
        <ele>1128.4489746094</ele>
        <time>2017-10-08T05:38:27Z</time>
      </trkpt>
      <trkpt lat="45.32219" lon="5.88135">
        <ele>1128.4489746094</ele>
        <time>2017-10-08T05:38:29Z</time>
      </trkpt>
      <trkpt lat="45.32214" lon="5.88132">
        <ele>1126.4489746094</ele>
        <time>2017-10-08T05:38:32Z</time>
      </trkpt>
      <trkpt lat="45.32205" lon="5.88128">
        <ele>1125.4489746094</ele>
        <time>2017-10-08T05:38:34Z</time>
      </trkpt>
      <trkpt lat="45.32199" lon="5.88131">
        <ele>1127.4489746094</ele>
        <time>2017-10-08T05:38:38Z</time>
      </trkpt>
      <trkpt lat="45.32192" lon="5.8813">
        <ele>1125.4479980469</ele>
        <time>2017-10-08T05:38:40Z</time>
      </trkpt>
      <trkpt lat="45.32186" lon="5.88128">
        <ele>1124.4479980469</ele>
        <time>2017-10-08T05:38:43Z</time>
      </trkpt>
      <trkpt lat="45.3218" lon="5.88128">
        <ele>1124.4479980469</ele>
        <time>2017-10-08T05:38:45Z</time>
      </trkpt>
      <trkpt lat="45.32176" lon="5.88128">
        <ele>1122.4479980469</ele>
        <time>2017-10-08T05:38:50Z</time>
      </trkpt>
      <trkpt lat="45.32168" lon="5.88132">
        <ele>1120.4479980469</ele>
        <time>2017-10-08T05:39:00Z</time>
      </trkpt>
      <trkpt lat="45.32162" lon="5.88139">
        <ele>1120.4479980469</ele>
        <time>2017-10-08T05:39:02Z</time>
      </trkpt>
      <trkpt lat="45.32157" lon="5.88141">
        <ele>1120.4479980469</ele>
        <time>2017-10-08T05:39:03Z</time>
      </trkpt>
      <trkpt lat="45.3215" lon="5.88145">
        <ele>1121.4479980469</ele>
        <time>2017-10-08T05:39:05Z</time>
      </trkpt>
      <trkpt lat="45.32139" lon="5.88151">
        <ele>1113.4479980469</ele>
        <time>2017-10-08T05:39:08Z</time>
      </trkpt>
      <trkpt lat="45.32134" lon="5.88159">
        <ele>1111.4479980469</ele>
        <time>2017-10-08T05:39:11Z</time>
      </trkpt>
      <trkpt lat="45.3213" lon="5.88164">
        <ele>1109.4479980469</ele>
        <time>2017-10-08T05:39:13Z</time>
      </trkpt>
      <trkpt lat="45.32127" lon="5.88175">
        <ele>1107.4479980469</ele>
        <time>2017-10-08T05:39:15Z</time>
      </trkpt>
      <trkpt lat="45.32122" lon="5.88181">
        <ele>1110.4479980469</ele>
        <time>2017-10-08T05:39:17Z</time>
      </trkpt>
      <trkpt lat="45.32118" lon="5.88185">
        <ele>1106.4479980469</ele>
        <time>2017-10-08T05:39:20Z</time>
      </trkpt>
      <trkpt lat="45.32113" lon="5.8819">
        <ele>1104.4479980469</ele>
        <time>2017-10-08T05:39:23Z</time>
      </trkpt>
      <trkpt lat="45.3211" lon="5.88196">
        <ele>1101.4479980469</ele>
        <time>2017-10-08T05:39:25Z</time>
      </trkpt>
      <trkpt lat="45.32106" lon="5.88202">
        <ele>1097.4479980469</ele>
        <time>2017-10-08T05:39:27Z</time>
      </trkpt>
      <trkpt lat="45.32099" lon="5.88215">
        <ele>1097.4479980469</ele>
        <time>2017-10-08T05:39:30Z</time>
      </trkpt>
      <trkpt lat="45.32094" lon="5.88223">
        <ele>1098.4479980469</ele>
        <time>2017-10-08T05:39:32Z</time>
      </trkpt>
      <trkpt lat="45.32088" lon="5.88233">
        <ele>1099.4479980469</ele>
        <time>2017-10-08T05:39:34Z</time>
      </trkpt>
      <trkpt lat="45.32083" lon="5.88239">
        <ele>1098.4479980469</ele>
        <time>2017-10-08T05:39:36Z</time>
      </trkpt>
      <trkpt lat="45.3208" lon="5.88245">
        <ele>1097.4479980469</ele>
        <time>2017-10-08T05:39:38Z</time>
      </trkpt>
      <trkpt lat="45.32076" lon="5.88252">
        <ele>1094.4479980469</ele>
        <time>2017-10-08T05:39:40Z</time>
      </trkpt>
      <trkpt lat="45.32071" lon="5.88257">
        <ele>1096.4479980469</ele>
        <time>2017-10-08T05:39:42Z</time>
      </trkpt>
      <trkpt lat="45.32066" lon="5.88257">
        <ele>1094.4479980469</ele>
        <time>2017-10-08T05:39:45Z</time>
      </trkpt>
      <trkpt lat="45.32062" lon="5.88252">
        <ele>1090.4479980469</ele>
        <time>2017-10-08T05:39:48Z</time>
      </trkpt>
      <trkpt lat="45.32059" lon="5.88245">
        <ele>1086.4479980469</ele>
        <time>2017-10-08T05:39:52Z</time>
      </trkpt>
      <trkpt lat="45.32054" lon="5.8825">
        <ele>1086.4479980469</ele>
        <time>2017-10-08T05:39:55Z</time>
      </trkpt>
      <trkpt lat="45.32049" lon="5.88254">
        <ele>1086.4479980469</ele>
        <time>2017-10-08T05:39:57Z</time>
      </trkpt>
      <trkpt lat="45.32042" lon="5.88258">
        <ele>1082.4479980469</ele>
        <time>2017-10-08T05:40:00Z</time>
      </trkpt>
      <trkpt lat="45.32035" lon="5.88269">
        <ele>1075.4479980469</ele>
        <time>2017-10-08T05:40:03Z</time>
      </trkpt>
      <trkpt lat="45.3203" lon="5.88273">
        <ele>1073.4479980469</ele>
        <time>2017-10-08T05:40:05Z</time>
      </trkpt>
      <trkpt lat="45.32019" lon="5.88281">
        <ele>1072.4479980469</ele>
        <time>2017-10-08T05:40:09Z</time>
      </trkpt>
      <trkpt lat="45.32013" lon="5.8828">
        <ele>1072.4479980469</ele>
        <time>2017-10-08T05:40:12Z</time>
      </trkpt>
      <trkpt lat="45.32008" lon="5.88286">
        <ele>1069.4479980469</ele>
        <time>2017-10-08T05:40:14Z</time>
      </trkpt>
      <trkpt lat="45.32002" lon="5.88289">
        <ele>1068.4479980469</ele>
        <time>2017-10-08T05:40:16Z</time>
      </trkpt>
      <trkpt lat="45.31997" lon="5.88291">
        <ele>1065.4479980469</ele>
        <time>2017-10-08T05:40:18Z</time>
      </trkpt>
      <trkpt lat="45.31987" lon="5.88307">
        <ele>1063.4479980469</ele>
        <time>2017-10-08T05:40:20Z</time>
      </trkpt>
      <trkpt lat="45.31977" lon="5.88316">
        <ele>1063.4479980469</ele>
        <time>2017-10-08T05:40:23Z</time>
      </trkpt>
      <trkpt lat="45.31972" lon="5.88321">
        <ele>1062.4479980469</ele>
        <time>2017-10-08T05:40:25Z</time>
      </trkpt>
      <trkpt lat="45.31965" lon="5.88326">
        <ele>1060.4479980469</ele>
        <time>2017-10-08T05:40:27Z</time>
      </trkpt>
      <trkpt lat="45.3196" lon="5.88332">
        <ele>1059.4479980469</ele>
        <time>2017-10-08T05:40:29Z</time>
      </trkpt>
      <trkpt lat="45.31955" lon="5.88336">
        <ele>1057.4479980469</ele>
        <time>2017-10-08T05:40:32Z</time>
      </trkpt>
      <trkpt lat="45.31951" lon="5.8834">
        <ele>1058.4479980469</ele>
        <time>2017-10-08T05:40:34Z</time>
      </trkpt>
      <trkpt lat="45.31945" lon="5.88344">
        <ele>1054.4479980469</ele>
        <time>2017-10-08T05:40:37Z</time>
      </trkpt>
      <trkpt lat="45.3194" lon="5.88346">
        <ele>1053.4479980469</ele>
        <time>2017-10-08T05:40:39Z</time>
      </trkpt>
      <trkpt lat="45.31937" lon="5.88352">
        <ele>1051.4479980469</ele>
        <time>2017-10-08T05:40:41Z</time>
      </trkpt>
      <trkpt lat="45.31931" lon="5.88359">
        <ele>1048.4479980469</ele>
        <time>2017-10-08T05:40:43Z</time>
      </trkpt>
      <trkpt lat="45.31928" lon="5.88365">
        <ele>1047.4479980469</ele>
        <time>2017-10-08T05:40:45Z</time>
      </trkpt>
      <trkpt lat="45.31922" lon="5.8837">
        <ele>1045.4479980469</ele>
        <time>2017-10-08T05:40:47Z</time>
      </trkpt>
      <trkpt lat="45.31918" lon="5.88373">
        <ele>1043.4479980469</ele>
        <time>2017-10-08T05:40:49Z</time>
      </trkpt>
      <trkpt lat="45.31912" lon="5.88377">
        <ele>1039.4479980469</ele>
        <time>2017-10-08T05:40:51Z</time>
      </trkpt>
      <trkpt lat="45.31903" lon="5.88381">
        <ele>1037.4479980469</ele>
        <time>2017-10-08T05:40:53Z</time>
      </trkpt>
      <trkpt lat="45.31893" lon="5.88389">
        <ele>1032.4479980469</ele>
        <time>2017-10-08T05:40:56Z</time>
      </trkpt>
      <trkpt lat="45.31888" lon="5.88394">
        <ele>1032.4479980469</ele>
        <time>2017-10-08T05:40:58Z</time>
      </trkpt>
      <trkpt lat="45.31882" lon="5.88401">
        <ele>1031.4479980469</ele>
        <time>2017-10-08T05:41:00Z</time>
      </trkpt>
      <trkpt lat="45.31873" lon="5.88403">
        <ele>1027.4479980469</ele>
        <time>2017-10-08T05:41:02Z</time>
      </trkpt>
      <trkpt lat="45.31864" lon="5.88409">
        <ele>1029.4479980469</ele>
        <time>2017-10-08T05:41:04Z</time>
      </trkpt>
      <trkpt lat="45.31857" lon="5.88412">
        <ele>1029.4479980469</ele>
        <time>2017-10-08T05:41:06Z</time>
      </trkpt>
      <trkpt lat="45.31852" lon="5.88416">
        <ele>1027.4479980469</ele>
        <time>2017-10-08T05:41:08Z</time>
      </trkpt>
      <trkpt lat="45.31846" lon="5.88421">
        <ele>1026.4479980469</ele>
        <time>2017-10-08T05:41:09Z</time>
      </trkpt>
      <trkpt lat="45.31842" lon="5.88428">
        <ele>1024.4479980469</ele>
        <time>2017-10-08T05:41:11Z</time>
      </trkpt>
      <trkpt lat="45.31837" lon="5.88438">
        <ele>1022.4479980469</ele>
        <time>2017-10-08T05:41:13Z</time>
      </trkpt>
      <trkpt lat="45.31829" lon="5.88454">
        <ele>1020.4479980469</ele>
        <time>2017-10-08T05:41:15Z</time>
      </trkpt>
      <trkpt lat="45.31818" lon="5.88464">
        <ele>1019.4479980469</ele>
        <time>2017-10-08T05:41:18Z</time>
      </trkpt>
      <trkpt lat="45.31817" lon="5.8847">
        <ele>1017.4479980469</ele>
        <time>2017-10-08T05:41:20Z</time>
      </trkpt>
      <trkpt lat="45.31812" lon="5.88475">
        <ele>1019.4479980469</ele>
        <time>2017-10-08T05:41:22Z</time>
      </trkpt>
      <trkpt lat="45.31806" lon="5.8848">
        <ele>1017.4479980469</ele>
        <time>2017-10-08T05:41:24Z</time>
      </trkpt>
      <trkpt lat="45.31802" lon="5.88484">
        <ele>1014.4479980469</ele>
        <time>2017-10-08T05:41:26Z</time>
      </trkpt>
      <trkpt lat="45.31795" lon="5.88495">
        <ele>1011.4479980469</ele>
        <time>2017-10-08T05:41:29Z</time>
      </trkpt>
      <trkpt lat="45.3179" lon="5.885">
        <ele>1010.4479980469</ele>
        <time>2017-10-08T05:41:31Z</time>
      </trkpt>
      <trkpt lat="45.31783" lon="5.88505">
        <ele>1009.4479980469</ele>
        <time>2017-10-08T05:41:33Z</time>
      </trkpt>
      <trkpt lat="45.31778" lon="5.88505">
        <ele>1009.4479980469</ele>
        <time>2017-10-08T05:41:35Z</time>
      </trkpt>
      <trkpt lat="45.31769" lon="5.88509">
        <ele>1005.4479980469</ele>
        <time>2017-10-08T05:41:37Z</time>
      </trkpt>
      <trkpt lat="45.31769" lon="5.88518">
        <ele>1006.4479980469</ele>
        <time>2017-10-08T05:41:40Z</time>
      </trkpt>
      <trkpt lat="45.31766" lon="5.88525">
        <ele>1005.4479980469</ele>
        <time>2017-10-08T05:41:42Z</time>
      </trkpt>
      <trkpt lat="45.31757" lon="5.88538">
        <ele>1003.4479980469</ele>
        <time>2017-10-08T05:41:45Z</time>
      </trkpt>
      <trkpt lat="45.31753" lon="5.88547">
        <ele>1000.4479980469</ele>
        <time>2017-10-08T05:41:48Z</time>
      </trkpt>
      <trkpt lat="45.3175" lon="5.88555">
        <ele>999.44799804688</ele>
        <time>2017-10-08T05:41:50Z</time>
      </trkpt>
      <trkpt lat="45.31746" lon="5.88562">
        <ele>997.44799804688</ele>
        <time>2017-10-08T05:41:52Z</time>
      </trkpt>
      <trkpt lat="45.31745" lon="5.88572">
        <ele>994.44799804688</ele>
        <time>2017-10-08T05:41:55Z</time>
      </trkpt>
      <trkpt lat="45.3174" lon="5.8858">
        <ele>994.44799804688</ele>
        <time>2017-10-08T05:41:57Z</time>
      </trkpt>
      <trkpt lat="45.31735" lon="5.88585">
        <ele>991.44799804688</ele>
        <time>2017-10-08T05:42:00Z</time>
      </trkpt>
      <trkpt lat="45.31729" lon="5.88589">
        <ele>989.44799804688</ele>
        <time>2017-10-08T05:42:03Z</time>
      </trkpt>
      <trkpt lat="45.31722" lon="5.88592">
        <ele>987.44799804688</ele>
        <time>2017-10-08T05:42:06Z</time>
      </trkpt>
      <trkpt lat="45.31718" lon="5.88594">
        <ele>987.44799804688</ele>
        <time>2017-10-08T05:42:07Z</time>
      </trkpt>
      <trkpt lat="45.31706" lon="5.886">
        <ele>986.44799804688</ele>
        <time>2017-10-08T05:42:10Z</time>
      </trkpt>
      <trkpt lat="45.31699" lon="5.88603">
        <ele>986.44799804688</ele>
        <time>2017-10-08T05:42:12Z</time>
      </trkpt>
      <trkpt lat="45.31694" lon="5.88605">
        <ele>985.44799804688</ele>
        <time>2017-10-08T05:42:13Z</time>
      </trkpt>
      <trkpt lat="45.31685" lon="5.88612">
        <ele>985.44799804688</ele>
        <time>2017-10-08T05:42:15Z</time>
      </trkpt>
      <trkpt lat="45.3168" lon="5.88617">
        <ele>985.44799804688</ele>
        <time>2017-10-08T05:42:17Z</time>
      </trkpt>
      <trkpt lat="45.31674" lon="5.8862">
        <ele>983.44799804688</ele>
        <time>2017-10-08T05:42:19Z</time>
      </trkpt>
      <trkpt lat="45.31668" lon="5.88623">
        <ele>981.44799804688</ele>
        <time>2017-10-08T05:42:21Z</time>
      </trkpt>
      <trkpt lat="45.31663" lon="5.88626">
        <ele>981.44799804688</ele>
        <time>2017-10-08T05:42:23Z</time>
      </trkpt>
      <trkpt lat="45.31655" lon="5.88615">
        <ele>978.44799804688</ele>
        <time>2017-10-08T05:42:27Z</time>
      </trkpt>
      <trkpt lat="45.31657" lon="5.88608">
        <ele>976.44799804688</ele>
        <time>2017-10-08T05:42:29Z</time>
      </trkpt>
      <trkpt lat="45.31658" lon="5.88598">
        <ele>975.44799804688</ele>
        <time>2017-10-08T05:42:33Z</time>
      </trkpt>
      <trkpt lat="45.31661" lon="5.88589">
        <ele>976.44799804688</ele>
        <time>2017-10-08T05:42:35Z</time>
      </trkpt>
      <trkpt lat="45.31657" lon="5.88591">
        <ele>976.44799804688</ele>
        <time>2017-10-08T05:42:36Z</time>
      </trkpt>
      <trkpt lat="45.31649" lon="5.88592">
        <ele>973.44799804688</ele>
        <time>2017-10-08T05:42:38Z</time>
      </trkpt>
      <trkpt lat="45.31643" lon="5.88588">
        <ele>975.44799804688</ele>
        <time>2017-10-08T05:42:41Z</time>
      </trkpt>
      <trkpt lat="45.31632" lon="5.88584">
        <ele>973.44799804688</ele>
        <time>2017-10-08T05:42:44Z</time>
      </trkpt>
      <trkpt lat="45.31626" lon="5.88582">
        <ele>973.44799804688</ele>
        <time>2017-10-08T05:42:46Z</time>
      </trkpt>
      <trkpt lat="45.31621" lon="5.88582">
        <ele>973.44799804688</ele>
        <time>2017-10-08T05:42:48Z</time>
      </trkpt>
      <trkpt lat="45.31612" lon="5.88578">
        <ele>972.44799804688</ele>
        <time>2017-10-08T05:42:50Z</time>
      </trkpt>
      <trkpt lat="45.31607" lon="5.88577">
        <ele>973.44799804688</ele>
        <time>2017-10-08T05:42:52Z</time>
      </trkpt>
      <trkpt lat="45.31601" lon="5.88575">
        <ele>972.44799804688</ele>
        <time>2017-10-08T05:42:54Z</time>
      </trkpt>
      <trkpt lat="45.31596" lon="5.88575">
        <ele>973.44799804688</ele>
        <time>2017-10-08T05:42:56Z</time>
      </trkpt>
      <trkpt lat="45.31589" lon="5.88576">
        <ele>973.44799804688</ele>
        <time>2017-10-08T05:42:59Z</time>
      </trkpt>
      <trkpt lat="45.31581" lon="5.88579">
        <ele>975.44799804688</ele>
        <time>2017-10-08T05:43:01Z</time>
      </trkpt>
      <trkpt lat="45.31574" lon="5.88582">
        <ele>977.44799804688</ele>
        <time>2017-10-08T05:43:03Z</time>
      </trkpt>
      <trkpt lat="45.31569" lon="5.88586">
        <ele>977.44799804688</ele>
        <time>2017-10-08T05:43:06Z</time>
      </trkpt>
      <trkpt lat="45.31564" lon="5.88588">
        <ele>973.44799804688</ele>
        <time>2017-10-08T05:43:10Z</time>
      </trkpt>
      <trkpt lat="45.31558" lon="5.88593">
        <ele>973.44799804688</ele>
        <time>2017-10-08T05:43:16Z</time>
      </trkpt>
      <trkpt lat="45.31553" lon="5.88594">
        <ele>971.44799804688</ele>
        <time>2017-10-08T05:43:18Z</time>
      </trkpt>
      <trkpt lat="45.31548" lon="5.88593">
        <ele>971.44799804688</ele>
        <time>2017-10-08T05:43:20Z</time>
      </trkpt>
      <trkpt lat="45.31541" lon="5.88593">
        <ele>969.44799804688</ele>
        <time>2017-10-08T05:43:23Z</time>
      </trkpt>
      <trkpt lat="45.31536" lon="5.88593">
        <ele>968.44799804688</ele>
        <time>2017-10-08T05:43:25Z</time>
      </trkpt>
      <trkpt lat="45.31531" lon="5.88592">
        <ele>968.44799804688</ele>
        <time>2017-10-08T05:43:27Z</time>
      </trkpt>
      <trkpt lat="45.31524" lon="5.88589">
        <ele>967.44799804688</ele>
        <time>2017-10-08T05:43:29Z</time>
      </trkpt>
      <trkpt lat="45.31513" lon="5.88588">
        <ele>969.44799804688</ele>
        <time>2017-10-08T05:43:32Z</time>
      </trkpt>
      <trkpt lat="45.31508" lon="5.88588">
        <ele>969.44799804688</ele>
        <time>2017-10-08T05:43:34Z</time>
      </trkpt>
      <trkpt lat="45.31501" lon="5.88587">
        <ele>969.44799804688</ele>
        <time>2017-10-08T05:43:36Z</time>
      </trkpt>
      <trkpt lat="45.31496" lon="5.88588">
        <ele>968.44799804688</ele>
        <time>2017-10-08T05:43:38Z</time>
      </trkpt>
      <trkpt lat="45.31489" lon="5.88589">
        <ele>971.44799804688</ele>
        <time>2017-10-08T05:43:40Z</time>
      </trkpt>
      <trkpt lat="45.31484" lon="5.8859">
        <ele>971.44799804688</ele>
        <time>2017-10-08T05:43:42Z</time>
      </trkpt>
      <trkpt lat="45.31478" lon="5.88589">
        <ele>968.44799804688</ele>
        <time>2017-10-08T05:43:44Z</time>
      </trkpt>
      <trkpt lat="45.31469" lon="5.88591">
        <ele>970.44799804688</ele>
        <time>2017-10-08T05:43:46Z</time>
      </trkpt>
      <trkpt lat="45.31462" lon="5.88591">
        <ele>969.44799804688</ele>
        <time>2017-10-08T05:43:48Z</time>
      </trkpt>
      <trkpt lat="45.31455" lon="5.88593">
        <ele>970.44799804688</ele>
        <time>2017-10-08T05:43:50Z</time>
      </trkpt>
      <trkpt lat="45.31449" lon="5.88593">
        <ele>970.44799804688</ele>
        <time>2017-10-08T05:43:52Z</time>
      </trkpt>
      <trkpt lat="45.3144" lon="5.88595">
        <ele>970.44799804688</ele>
        <time>2017-10-08T05:43:54Z</time>
      </trkpt>
      <trkpt lat="45.31433" lon="5.88595">
        <ele>968.44799804688</ele>
        <time>2017-10-08T05:43:56Z</time>
      </trkpt>
      <trkpt lat="45.31427" lon="5.88594">
        <ele>968.44799804688</ele>
        <time>2017-10-08T05:43:59Z</time>
      </trkpt>
      <trkpt lat="45.31421" lon="5.88595">
        <ele>969.44799804688</ele>
        <time>2017-10-08T05:44:01Z</time>
      </trkpt>
      <trkpt lat="45.31415" lon="5.88594">
        <ele>969.44799804688</ele>
        <time>2017-10-08T05:44:03Z</time>
      </trkpt>
      <trkpt lat="45.31409" lon="5.88595">
        <ele>969.44799804688</ele>
        <time>2017-10-08T05:44:05Z</time>
      </trkpt>
      <trkpt lat="45.31403" lon="5.88595">
        <ele>970.44702148438</ele>
        <time>2017-10-08T05:44:07Z</time>
      </trkpt>
      <trkpt lat="45.31395" lon="5.88597">
        <ele>969.44702148438</ele>
        <time>2017-10-08T05:44:09Z</time>
      </trkpt>
      <trkpt lat="45.31389" lon="5.88598">
        <ele>968.44702148438</ele>
        <time>2017-10-08T05:44:11Z</time>
      </trkpt>
      <trkpt lat="45.31377" lon="5.88599">
        <ele>968.44702148438</ele>
        <time>2017-10-08T05:44:14Z</time>
      </trkpt>
      <trkpt lat="45.31373" lon="5.88599">
        <ele>967.44702148438</ele>
        <time>2017-10-08T05:44:16Z</time>
      </trkpt>
      <trkpt lat="45.31366" lon="5.88601">
        <ele>965.44702148438</ele>
        <time>2017-10-08T05:44:19Z</time>
      </trkpt>
      <trkpt lat="45.31362" lon="5.88602">
        <ele>964.44702148438</ele>
        <time>2017-10-08T05:44:22Z</time>
      </trkpt>
      <trkpt lat="45.31356" lon="5.88603">
        <ele>965.44702148438</ele>
        <time>2017-10-08T05:44:24Z</time>
      </trkpt>
      <trkpt lat="45.3135" lon="5.88603">
        <ele>965.44702148438</ele>
        <time>2017-10-08T05:44:26Z</time>
      </trkpt>
      <trkpt lat="45.31345" lon="5.88598">
        <ele>965.44702148438</ele>
        <time>2017-10-08T05:44:29Z</time>
      </trkpt>
      <trkpt lat="45.31343" lon="5.88593">
        <ele>961.44702148438</ele>
        <time>2017-10-08T05:44:31Z</time>
      </trkpt>
      <trkpt lat="45.31335" lon="5.88589">
        <ele>962.44702148438</ele>
        <time>2017-10-08T05:44:33Z</time>
      </trkpt>
      <trkpt lat="45.31328" lon="5.88591">
        <ele>962.44702148438</ele>
        <time>2017-10-08T05:44:35Z</time>
      </trkpt>
      <trkpt lat="45.31324" lon="5.88596">
        <ele>962.44702148438</ele>
        <time>2017-10-08T05:44:37Z</time>
      </trkpt>
      <trkpt lat="45.3132" lon="5.886">
        <ele>960.44702148438</ele>
        <time>2017-10-08T05:44:39Z</time>
      </trkpt>
      <trkpt lat="45.31314" lon="5.88604">
        <ele>960.44702148438</ele>
        <time>2017-10-08T05:44:41Z</time>
      </trkpt>
      <trkpt lat="45.31306" lon="5.8861">
        <ele>959.44702148438</ele>
        <time>2017-10-08T05:44:43Z</time>
      </trkpt>
      <trkpt lat="45.31302" lon="5.88615">
        <ele>958.44702148438</ele>
        <time>2017-10-08T05:44:45Z</time>
      </trkpt>
      <trkpt lat="45.31298" lon="5.88621">
        <ele>959.44702148438</ele>
        <time>2017-10-08T05:44:47Z</time>
      </trkpt>
      <trkpt lat="45.31296" lon="5.88631">
        <ele>961.44702148438</ele>
        <time>2017-10-08T05:44:49Z</time>
      </trkpt>
      <trkpt lat="45.31291" lon="5.88639">
        <ele>958.44702148438</ele>
        <time>2017-10-08T05:44:51Z</time>
      </trkpt>
      <trkpt lat="45.31288" lon="5.88644">
        <ele>957.44702148438</ele>
        <time>2017-10-08T05:44:53Z</time>
      </trkpt>
      <trkpt lat="45.31286" lon="5.88654">
        <ele>958.44702148438</ele>
        <time>2017-10-08T05:44:55Z</time>
      </trkpt>
      <trkpt lat="45.31283" lon="5.88662">
        <ele>961.44702148438</ele>
        <time>2017-10-08T05:44:57Z</time>
      </trkpt>
      <trkpt lat="45.31281" lon="5.8867">
        <ele>963.44702148438</ele>
        <time>2017-10-08T05:44:59Z</time>
      </trkpt>
      <trkpt lat="45.31275" lon="5.8868">
        <ele>962.44702148438</ele>
        <time>2017-10-08T05:45:01Z</time>
      </trkpt>
      <trkpt lat="45.31272" lon="5.88689">
        <ele>960.44702148438</ele>
        <time>2017-10-08T05:45:03Z</time>
      </trkpt>
      <trkpt lat="45.31269" lon="5.887">
        <ele>960.44702148438</ele>
        <time>2017-10-08T05:45:05Z</time>
      </trkpt>
      <trkpt lat="45.31262" lon="5.88708">
        <ele>959.44702148438</ele>
        <time>2017-10-08T05:45:07Z</time>
      </trkpt>
      <trkpt lat="45.31256" lon="5.88717">
        <ele>959.44702148438</ele>
        <time>2017-10-08T05:45:09Z</time>
      </trkpt>
      <trkpt lat="45.3125" lon="5.88723">
        <ele>958.44702148438</ele>
        <time>2017-10-08T05:45:11Z</time>
      </trkpt>
      <trkpt lat="45.31244" lon="5.88729">
        <ele>958.44702148438</ele>
        <time>2017-10-08T05:45:13Z</time>
      </trkpt>
      <trkpt lat="45.31239" lon="5.88734">
        <ele>958.44702148438</ele>
        <time>2017-10-08T05:45:15Z</time>
      </trkpt>
      <trkpt lat="45.31231" lon="5.88736">
        <ele>959.44702148438</ele>
        <time>2017-10-08T05:45:17Z</time>
      </trkpt>
      <trkpt lat="45.31222" lon="5.88737">
        <ele>959.44702148438</ele>
        <time>2017-10-08T05:45:19Z</time>
      </trkpt>
      <trkpt lat="45.31217" lon="5.88737">
        <ele>960.44702148438</ele>
        <time>2017-10-08T05:45:21Z</time>
      </trkpt>
      <trkpt lat="45.31211" lon="5.88743">
        <ele>964.44702148438</ele>
        <time>2017-10-08T05:45:23Z</time>
      </trkpt>
      <trkpt lat="45.31206" lon="5.88745">
        <ele>963.44702148438</ele>
        <time>2017-10-08T05:45:25Z</time>
      </trkpt>
      <trkpt lat="45.31199" lon="5.88746">
        <ele>962.44702148438</ele>
        <time>2017-10-08T05:45:27Z</time>
      </trkpt>
      <trkpt lat="45.31193" lon="5.88747">
        <ele>963.44702148438</ele>
        <time>2017-10-08T05:45:29Z</time>
      </trkpt>
      <trkpt lat="45.31189" lon="5.88748">
        <ele>963.44702148438</ele>
        <time>2017-10-08T05:45:31Z</time>
      </trkpt>
      <trkpt lat="45.31182" lon="5.88748">
        <ele>963.44702148438</ele>
        <time>2017-10-08T05:45:33Z</time>
      </trkpt>
      <trkpt lat="45.31176" lon="5.88748">
        <ele>961.44702148438</ele>
        <time>2017-10-08T05:45:35Z</time>
      </trkpt>
      <trkpt lat="45.3117" lon="5.88748">
        <ele>959.44702148438</ele>
        <time>2017-10-08T05:45:37Z</time>
      </trkpt>
      <trkpt lat="45.31164" lon="5.88748">
        <ele>961.44702148438</ele>
        <time>2017-10-08T05:45:39Z</time>
      </trkpt>
      <trkpt lat="45.31158" lon="5.88747">
        <ele>960.44702148438</ele>
        <time>2017-10-08T05:45:41Z</time>
      </trkpt>
      <trkpt lat="45.31152" lon="5.88746">
        <ele>960.44702148438</ele>
        <time>2017-10-08T05:45:43Z</time>
      </trkpt>
      <trkpt lat="45.31146" lon="5.88745">
        <ele>961.44702148438</ele>
        <time>2017-10-08T05:45:46Z</time>
      </trkpt>
      <trkpt lat="45.3114" lon="5.88746">
        <ele>963.44702148438</ele>
        <time>2017-10-08T05:45:48Z</time>
      </trkpt>
      <trkpt lat="45.31133" lon="5.88745">
        <ele>962.44702148438</ele>
        <time>2017-10-08T05:45:51Z</time>
      </trkpt>
      <trkpt lat="45.31128" lon="5.88746">
        <ele>963.44702148438</ele>
        <time>2017-10-08T05:45:53Z</time>
      </trkpt>
      <trkpt lat="45.31121" lon="5.88745">
        <ele>963.44702148438</ele>
        <time>2017-10-08T05:45:55Z</time>
      </trkpt>
      <trkpt lat="45.31115" lon="5.88745">
        <ele>963.44702148438</ele>
        <time>2017-10-08T05:45:58Z</time>
      </trkpt>
      <trkpt lat="45.31107" lon="5.88745">
        <ele>963.44702148438</ele>
        <time>2017-10-08T05:46:01Z</time>
      </trkpt>
      <trkpt lat="45.31101" lon="5.88743">
        <ele>964.44702148438</ele>
        <time>2017-10-08T05:46:03Z</time>
      </trkpt>
      <trkpt lat="45.31091" lon="5.88739">
        <ele>964.44702148438</ele>
        <time>2017-10-08T05:46:07Z</time>
      </trkpt>
      <trkpt lat="45.31085" lon="5.88739">
        <ele>965.44702148438</ele>
        <time>2017-10-08T05:46:09Z</time>
      </trkpt>
      <trkpt lat="45.3108" lon="5.88739">
        <ele>966.44702148438</ele>
        <time>2017-10-08T05:46:11Z</time>
      </trkpt>
      <trkpt lat="45.31074" lon="5.88742">
        <ele>968.44702148438</ele>
        <time>2017-10-08T05:46:14Z</time>
      </trkpt>
      <trkpt lat="45.31067" lon="5.88742">
        <ele>969.44702148438</ele>
        <time>2017-10-08T05:46:16Z</time>
      </trkpt>
      <trkpt lat="45.31062" lon="5.88741">
        <ele>969.44702148438</ele>
        <time>2017-10-08T05:46:18Z</time>
      </trkpt>
      <trkpt lat="45.31055" lon="5.88738">
        <ele>970.44702148438</ele>
        <time>2017-10-08T05:46:21Z</time>
      </trkpt>
      <trkpt lat="45.3105" lon="5.88738">
        <ele>971.44702148438</ele>
        <time>2017-10-08T05:46:23Z</time>
      </trkpt>
      <trkpt lat="45.3104" lon="5.8874">
        <ele>972.44702148438</ele>
        <time>2017-10-08T05:46:27Z</time>
      </trkpt>
      <trkpt lat="45.31034" lon="5.88741">
        <ele>972.44702148438</ele>
        <time>2017-10-08T05:46:29Z</time>
      </trkpt>
      <trkpt lat="45.31029" lon="5.88743">
        <ele>972.44702148438</ele>
        <time>2017-10-08T05:46:31Z</time>
      </trkpt>
      <trkpt lat="45.31023" lon="5.88746">
        <ele>971.44702148438</ele>
        <time>2017-10-08T05:46:34Z</time>
      </trkpt>
      <trkpt lat="45.31018" lon="5.88743">
        <ele>971.44702148438</ele>
        <time>2017-10-08T05:46:36Z</time>
      </trkpt>
      <trkpt lat="45.31013" lon="5.88741">
        <ele>971.44702148438</ele>
        <time>2017-10-08T05:46:39Z</time>
      </trkpt>
      <trkpt lat="45.31007" lon="5.88738">
        <ele>972.44702148438</ele>
        <time>2017-10-08T05:46:42Z</time>
      </trkpt>
      <trkpt lat="45.31002" lon="5.88732">
        <ele>973.44702148438</ele>
        <time>2017-10-08T05:46:45Z</time>
      </trkpt>
      <trkpt lat="45.30996" lon="5.88725">
        <ele>971.44702148438</ele>
        <time>2017-10-08T05:46:48Z</time>
      </trkpt>
      <trkpt lat="45.30993" lon="5.8872">
        <ele>971.44702148438</ele>
        <time>2017-10-08T05:46:50Z</time>
      </trkpt>
      <trkpt lat="45.30988" lon="5.88717">
        <ele>972.44702148438</ele>
        <time>2017-10-08T05:46:52Z</time>
      </trkpt>
      <trkpt lat="45.3098" lon="5.88718">
        <ele>972.44702148438</ele>
        <time>2017-10-08T05:46:55Z</time>
      </trkpt>
      <trkpt lat="45.30975" lon="5.88722">
        <ele>972.44702148438</ele>
        <time>2017-10-08T05:46:57Z</time>
      </trkpt>
      <trkpt lat="45.30973" lon="5.88728">
        <ele>973.44702148438</ele>
        <time>2017-10-08T05:46:59Z</time>
      </trkpt>
      <trkpt lat="45.30975" lon="5.88736">
        <ele>973.44702148438</ele>
        <time>2017-10-08T05:47:01Z</time>
      </trkpt>
      <trkpt lat="45.30975" lon="5.88744">
        <ele>972.44702148438</ele>
        <time>2017-10-08T05:47:04Z</time>
      </trkpt>
      <trkpt lat="45.30969" lon="5.8875">
        <ele>970.44702148438</ele>
        <time>2017-10-08T05:47:07Z</time>
      </trkpt>
      <trkpt lat="45.30964" lon="5.88755">
        <ele>969.44702148438</ele>
        <time>2017-10-08T05:47:09Z</time>
      </trkpt>
      <trkpt lat="45.3096" lon="5.88759">
        <ele>968.44702148438</ele>
        <time>2017-10-08T05:47:11Z</time>
      </trkpt>
      <trkpt lat="45.30955" lon="5.88765">
        <ele>968.44702148438</ele>
        <time>2017-10-08T05:47:13Z</time>
      </trkpt>
      <trkpt lat="45.30951" lon="5.88768">
        <ele>967.44702148438</ele>
        <time>2017-10-08T05:47:15Z</time>
      </trkpt>
      <trkpt lat="45.30944" lon="5.88769">
        <ele>966.44702148438</ele>
        <time>2017-10-08T05:47:17Z</time>
      </trkpt>
      <trkpt lat="45.30937" lon="5.88771">
        <ele>966.44702148438</ele>
        <time>2017-10-08T05:47:19Z</time>
      </trkpt>
      <trkpt lat="45.30931" lon="5.88774">
        <ele>967.44702148438</ele>
        <time>2017-10-08T05:47:21Z</time>
      </trkpt>
      <trkpt lat="45.30926" lon="5.88776">
        <ele>968.44702148438</ele>
        <time>2017-10-08T05:47:24Z</time>
      </trkpt>
      <trkpt lat="45.30917" lon="5.88774">
        <ele>966.44702148438</ele>
        <time>2017-10-08T05:47:26Z</time>
      </trkpt>
      <trkpt lat="45.30911" lon="5.88772">
        <ele>964.44702148438</ele>
        <time>2017-10-08T05:47:28Z</time>
      </trkpt>
      <trkpt lat="45.30905" lon="5.88769">
        <ele>965.44702148438</ele>
        <time>2017-10-08T05:47:30Z</time>
      </trkpt>
      <trkpt lat="45.30899" lon="5.88767">
        <ele>964.44702148438</ele>
        <time>2017-10-08T05:47:32Z</time>
      </trkpt>
      <trkpt lat="45.30893" lon="5.88759">
        <ele>962.44702148438</ele>
        <time>2017-10-08T05:47:34Z</time>
      </trkpt>
      <trkpt lat="45.30889" lon="5.8875">
        <ele>962.44702148438</ele>
        <time>2017-10-08T05:47:36Z</time>
      </trkpt>
      <trkpt lat="45.30882" lon="5.88741">
        <ele>959.44702148438</ele>
        <time>2017-10-08T05:47:39Z</time>
      </trkpt>
      <trkpt lat="45.30876" lon="5.88736">
        <ele>960.44702148438</ele>
        <time>2017-10-08T05:47:41Z</time>
      </trkpt>
      <trkpt lat="45.30871" lon="5.88739">
        <ele>957.44702148438</ele>
        <time>2017-10-08T05:47:44Z</time>
      </trkpt>
      <trkpt lat="45.30867" lon="5.88742">
        <ele>958.44702148438</ele>
        <time>2017-10-08T05:47:46Z</time>
      </trkpt>
      <trkpt lat="45.30862" lon="5.88747">
        <ele>957.44702148438</ele>
        <time>2017-10-08T05:47:48Z</time>
      </trkpt>
      <trkpt lat="45.30861" lon="5.88755">
        <ele>955.44702148438</ele>
        <time>2017-10-08T05:47:50Z</time>
      </trkpt>
      <trkpt lat="45.30859" lon="5.88765">
        <ele>954.44702148438</ele>
        <time>2017-10-08T05:47:53Z</time>
      </trkpt>
      <trkpt lat="45.30857" lon="5.88774">
        <ele>953.44702148438</ele>
        <time>2017-10-08T05:47:55Z</time>
      </trkpt>
      <trkpt lat="45.30857" lon="5.88782">
        <ele>951.44702148438</ele>
        <time>2017-10-08T05:47:57Z</time>
      </trkpt>
      <trkpt lat="45.30857" lon="5.88789">
        <ele>950.44702148438</ele>
        <time>2017-10-08T05:47:59Z</time>
      </trkpt>
      <trkpt lat="45.30858" lon="5.88795">
        <ele>950.44702148438</ele>
        <time>2017-10-08T05:48:02Z</time>
      </trkpt>
      <trkpt lat="45.3086" lon="5.88805">
        <ele>948.44702148438</ele>
        <time>2017-10-08T05:48:05Z</time>
      </trkpt>
      <trkpt lat="45.30862" lon="5.88811">
        <ele>949.44702148438</ele>
        <time>2017-10-08T05:48:07Z</time>
      </trkpt>
      <trkpt lat="45.30864" lon="5.88819">
        <ele>948.44702148438</ele>
        <time>2017-10-08T05:48:09Z</time>
      </trkpt>
      <trkpt lat="45.30866" lon="5.88829">
        <ele>946.44702148438</ele>
        <time>2017-10-08T05:48:12Z</time>
      </trkpt>
      <trkpt lat="45.30866" lon="5.88838">
        <ele>947.44702148438</ele>
        <time>2017-10-08T05:48:14Z</time>
      </trkpt>
      <trkpt lat="45.30865" lon="5.88848">
        <ele>944.44702148438</ele>
        <time>2017-10-08T05:48:17Z</time>
      </trkpt>
      <trkpt lat="45.30864" lon="5.88856">
        <ele>943.44702148438</ele>
        <time>2017-10-08T05:48:19Z</time>
      </trkpt>
      <trkpt lat="45.30866" lon="5.88863">
        <ele>942.44702148438</ele>
        <time>2017-10-08T05:48:21Z</time>
      </trkpt>
      <trkpt lat="45.30869" lon="5.8887">
        <ele>941.44702148438</ele>
        <time>2017-10-08T05:48:24Z</time>
      </trkpt>
      <trkpt lat="45.30868" lon="5.88876">
        <ele>936.44702148438</ele>
        <time>2017-10-08T05:48:27Z</time>
      </trkpt>
      <trkpt lat="45.30863" lon="5.88879">
        <ele>931.44702148438</ele>
        <time>2017-10-08T05:48:31Z</time>
      </trkpt>
      <trkpt lat="45.30859" lon="5.88885">
        <ele>931.44702148438</ele>
        <time>2017-10-08T05:48:33Z</time>
      </trkpt>
      <trkpt lat="45.30857" lon="5.88891">
        <ele>931.44702148438</ele>
        <time>2017-10-08T05:48:36Z</time>
      </trkpt>
      <trkpt lat="45.30857" lon="5.88898">
        <ele>931.44702148438</ele>
        <time>2017-10-08T05:48:38Z</time>
      </trkpt>
      <trkpt lat="45.30858" lon="5.88906">
        <ele>929.44702148438</ele>
        <time>2017-10-08T05:48:41Z</time>
      </trkpt>
      <trkpt lat="45.30858" lon="5.88912">
        <ele>927.44702148438</ele>
        <time>2017-10-08T05:48:43Z</time>
      </trkpt>
      <trkpt lat="45.30859" lon="5.88921">
        <ele>926.44702148438</ele>
        <time>2017-10-08T05:48:45Z</time>
      </trkpt>
      <trkpt lat="45.30858" lon="5.88931">
        <ele>925.44702148438</ele>
        <time>2017-10-08T05:48:48Z</time>
      </trkpt>
      <trkpt lat="45.30861" lon="5.88939">
        <ele>923.44702148438</ele>
        <time>2017-10-08T05:48:51Z</time>
      </trkpt>
      <trkpt lat="45.30863" lon="5.88949">
        <ele>922.44702148438</ele>
        <time>2017-10-08T05:48:56Z</time>
      </trkpt>
      <trkpt lat="45.30864" lon="5.88957">
        <ele>921.44702148438</ele>
        <time>2017-10-08T05:48:58Z</time>
      </trkpt>
      <trkpt lat="45.30866" lon="5.88967">
        <ele>919.44702148438</ele>
        <time>2017-10-08T05:49:00Z</time>
      </trkpt>
      <trkpt lat="45.30868" lon="5.88973">
        <ele>919.44702148438</ele>
        <time>2017-10-08T05:49:02Z</time>
      </trkpt>
      <trkpt lat="45.30868" lon="5.88982">
        <ele>918.44702148438</ele>
        <time>2017-10-08T05:49:04Z</time>
      </trkpt>
      <trkpt lat="45.30868" lon="5.88989">
        <ele>917.44702148438</ele>
        <time>2017-10-08T05:49:06Z</time>
      </trkpt>
      <trkpt lat="45.30868" lon="5.88999">
        <ele>916.44702148438</ele>
        <time>2017-10-08T05:49:09Z</time>
      </trkpt>
      <trkpt lat="45.3087" lon="5.89007">
        <ele>915.44702148438</ele>
        <time>2017-10-08T05:49:12Z</time>
      </trkpt>
      <trkpt lat="45.30867" lon="5.8902">
        <ele>914.44702148438</ele>
        <time>2017-10-08T05:49:14Z</time>
      </trkpt>
      <trkpt lat="45.30867" lon="5.89027">
        <ele>913.44702148438</ele>
        <time>2017-10-08T05:49:16Z</time>
      </trkpt>
      <trkpt lat="45.30868" lon="5.89034">
        <ele>912.44702148438</ele>
        <time>2017-10-08T05:49:18Z</time>
      </trkpt>
      <trkpt lat="45.30868" lon="5.89042">
        <ele>910.44702148438</ele>
        <time>2017-10-08T05:49:20Z</time>
      </trkpt>
      <trkpt lat="45.30868" lon="5.8905">
        <ele>912.44702148438</ele>
        <time>2017-10-08T05:49:22Z</time>
      </trkpt>
      <trkpt lat="45.30868" lon="5.89059">
        <ele>911.44702148438</ele>
        <time>2017-10-08T05:49:24Z</time>
      </trkpt>
      <trkpt lat="45.30867" lon="5.89065">
        <ele>910.44702148438</ele>
        <time>2017-10-08T05:49:26Z</time>
      </trkpt>
      <trkpt lat="45.30867" lon="5.89073">
        <ele>908.44702148438</ele>
        <time>2017-10-08T05:49:28Z</time>
      </trkpt>
      <trkpt lat="45.30866" lon="5.89083">
        <ele>907.44702148438</ele>
        <time>2017-10-08T05:49:30Z</time>
      </trkpt>
      <trkpt lat="45.30864" lon="5.8909">
        <ele>905.44702148438</ele>
        <time>2017-10-08T05:49:32Z</time>
      </trkpt>
      <trkpt lat="45.30862" lon="5.89097">
        <ele>905.44702148438</ele>
        <time>2017-10-08T05:49:34Z</time>
      </trkpt>
      <trkpt lat="45.3086" lon="5.89104">
        <ele>904.44702148438</ele>
        <time>2017-10-08T05:49:36Z</time>
      </trkpt>
      <trkpt lat="45.30857" lon="5.89112">
        <ele>902.44702148438</ele>
        <time>2017-10-08T05:49:39Z</time>
      </trkpt>
      <trkpt lat="45.30857" lon="5.8912">
        <ele>901.44702148438</ele>
        <time>2017-10-08T05:49:42Z</time>
      </trkpt>
      <trkpt lat="45.30854" lon="5.89127">
        <ele>899.44702148438</ele>
        <time>2017-10-08T05:49:44Z</time>
      </trkpt>
      <trkpt lat="45.30851" lon="5.89133">
        <ele>898.44702148438</ele>
        <time>2017-10-08T05:49:47Z</time>
      </trkpt>
      <trkpt lat="45.30842" lon="5.89137">
        <ele>896.44702148438</ele>
        <time>2017-10-08T05:49:51Z</time>
      </trkpt>
      <trkpt lat="45.30837" lon="5.89134">
        <ele>896.44702148438</ele>
        <time>2017-10-08T05:49:53Z</time>
      </trkpt>
      <trkpt lat="45.30834" lon="5.89128">
        <ele>895.44702148438</ele>
        <time>2017-10-08T05:49:55Z</time>
      </trkpt>
      <trkpt lat="45.3083" lon="5.89118">
        <ele>893.44702148438</ele>
        <time>2017-10-08T05:49:57Z</time>
      </trkpt>
      <trkpt lat="45.30825" lon="5.89115">
        <ele>890.44702148438</ele>
        <time>2017-10-08T05:50:00Z</time>
      </trkpt>
      <trkpt lat="45.30822" lon="5.8911">
        <ele>886.44702148438</ele>
        <time>2017-10-08T05:50:02Z</time>
      </trkpt>
      <trkpt lat="45.30818" lon="5.89104">
        <ele>886.44702148438</ele>
        <time>2017-10-08T05:50:05Z</time>
      </trkpt>
      <trkpt lat="45.30815" lon="5.89096">
        <ele>887.44702148438</ele>
        <time>2017-10-08T05:50:08Z</time>
      </trkpt>
      <trkpt lat="45.30814" lon="5.89089">
        <ele>886.44702148438</ele>
        <time>2017-10-08T05:50:10Z</time>
      </trkpt>
      <trkpt lat="45.30812" lon="5.89082">
        <ele>886.44702148438</ele>
        <time>2017-10-08T05:50:13Z</time>
      </trkpt>
      <trkpt lat="45.30809" lon="5.89074">
        <ele>886.44702148438</ele>
        <time>2017-10-08T05:50:19Z</time>
      </trkpt>
      <trkpt lat="45.30807" lon="5.89067">
        <ele>886.44702148438</ele>
        <time>2017-10-08T05:50:23Z</time>
      </trkpt>
      <trkpt lat="45.30802" lon="5.89067">
        <ele>884.44702148438</ele>
        <time>2017-10-08T05:50:26Z</time>
      </trkpt>
      <trkpt lat="45.30798" lon="5.89062">
        <ele>882.44702148438</ele>
        <time>2017-10-08T05:50:29Z</time>
      </trkpt>
      <trkpt lat="45.30794" lon="5.89056">
        <ele>880.44702148438</ele>
        <time>2017-10-08T05:50:32Z</time>
      </trkpt>
      <trkpt lat="45.3079" lon="5.8905">
        <ele>879.44702148438</ele>
        <time>2017-10-08T05:50:38Z</time>
      </trkpt>
      <trkpt lat="45.30788" lon="5.89042">
        <ele>876.44702148438</ele>
        <time>2017-10-08T05:50:41Z</time>
      </trkpt>
      <trkpt lat="45.30786" lon="5.89036">
        <ele>875.44702148438</ele>
        <time>2017-10-08T05:50:44Z</time>
      </trkpt>
      <trkpt lat="45.30783" lon="5.8903">
        <ele>874.44702148438</ele>
        <time>2017-10-08T05:50:46Z</time>
      </trkpt>
      <trkpt lat="45.30778" lon="5.89022">
        <ele>873.44702148438</ele>
        <time>2017-10-08T05:50:48Z</time>
      </trkpt>
      <trkpt lat="45.30775" lon="5.89005">
        <ele>870.44702148438</ele>
        <time>2017-10-08T05:50:52Z</time>
      </trkpt>
      <trkpt lat="45.30769" lon="5.89">
        <ele>870.44702148438</ele>
        <time>2017-10-08T05:50:55Z</time>
      </trkpt>
      <trkpt lat="45.30767" lon="5.88991">
        <ele>870.44702148438</ele>
        <time>2017-10-08T05:50:57Z</time>
      </trkpt>
      <trkpt lat="45.30766" lon="5.88978">
        <ele>869.44702148438</ele>
        <time>2017-10-08T05:50:59Z</time>
      </trkpt>
      <trkpt lat="45.30763" lon="5.88969">
        <ele>868.44702148438</ele>
        <time>2017-10-08T05:51:01Z</time>
      </trkpt>
      <trkpt lat="45.30756" lon="5.88962">
        <ele>871.44702148438</ele>
        <time>2017-10-08T05:51:04Z</time>
      </trkpt>
      <trkpt lat="45.3075" lon="5.88959">
        <ele>871.44702148438</ele>
        <time>2017-10-08T05:51:07Z</time>
      </trkpt>
      <trkpt lat="45.30745" lon="5.88955">
        <ele>872.44702148438</ele>
        <time>2017-10-08T05:51:09Z</time>
      </trkpt>
      <trkpt lat="45.30741" lon="5.88951">
        <ele>874.44702148438</ele>
        <time>2017-10-08T05:51:11Z</time>
      </trkpt>
      <trkpt lat="45.30735" lon="5.88934">
        <ele>874.44702148438</ele>
        <time>2017-10-08T05:51:14Z</time>
      </trkpt>
      <trkpt lat="45.30734" lon="5.88926">
        <ele>874.44702148438</ele>
        <time>2017-10-08T05:51:15Z</time>
      </trkpt>
      <trkpt lat="45.30735" lon="5.8892">
        <ele>874.44702148438</ele>
        <time>2017-10-08T05:51:16Z</time>
      </trkpt>
      <trkpt lat="45.30732" lon="5.88926">
        <ele>864.44702148438</ele>
        <time>2017-10-08T05:51:35Z</time>
      </trkpt>
      <trkpt lat="45.30734" lon="5.88931">
        <ele>861.44702148438</ele>
        <time>2017-10-08T05:51:38Z</time>
      </trkpt>
      <trkpt lat="45.30731" lon="5.88925">
        <ele>860.44702148438</ele>
        <time>2017-10-08T05:51:40Z</time>
      </trkpt>
      <trkpt lat="45.3073" lon="5.88932">
        <ele>857.44702148438</ele>
        <time>2017-10-08T05:51:51Z</time>
      </trkpt>
      <trkpt lat="45.30726" lon="5.8894">
        <ele>856.44702148438</ele>
        <time>2017-10-08T05:51:54Z</time>
      </trkpt>
      <trkpt lat="45.30727" lon="5.88934">
        <ele>854.44702148438</ele>
        <time>2017-10-08T05:51:55Z</time>
      </trkpt>
      <trkpt lat="45.30724" lon="5.88941">
        <ele>853.44702148438</ele>
        <time>2017-10-08T05:51:59Z</time>
      </trkpt>
      <trkpt lat="45.30729" lon="5.88943">
        <ele>847.44702148438</ele>
        <time>2017-10-08T05:52:03Z</time>
      </trkpt>
      <trkpt lat="45.30725" lon="5.88948">
        <ele>844.44702148438</ele>
        <time>2017-10-08T05:52:09Z</time>
      </trkpt>
      <trkpt lat="45.30726" lon="5.88955">
        <ele>842.44702148438</ele>
        <time>2017-10-08T05:52:15Z</time>
      </trkpt>
      <trkpt lat="45.30727" lon="5.88961">
        <ele>716.44702148438</ele>
        <time>2017-10-08T05:52:20Z</time>
      </trkpt>
      <trkpt lat="45.30728" lon="5.88968">
        <ele>744.44702148438</ele>
        <time>2017-10-08T05:52:24Z</time>
      </trkpt>
      <trkpt lat="45.3073" lon="5.88974">
        <ele>772.44702148438</ele>
        <time>2017-10-08T05:52:26Z</time>
      </trkpt>
      <trkpt lat="45.30735" lon="5.8898">
        <ele>786.44702148438</ele>
        <time>2017-10-08T05:52:29Z</time>
      </trkpt>
      <trkpt lat="45.30738" lon="5.88989">
        <ele>794.44702148438</ele>
        <time>2017-10-08T05:52:32Z</time>
      </trkpt>
      <trkpt lat="45.3074" lon="5.88998">
        <ele>799.44702148438</ele>
        <time>2017-10-08T05:52:34Z</time>
      </trkpt>
      <trkpt lat="45.30743" lon="5.89004">
        <ele>805.44702148438</ele>
        <time>2017-10-08T05:52:37Z</time>
      </trkpt>
      <trkpt lat="45.30746" lon="5.8901">
        <ele>810.44702148438</ele>
        <time>2017-10-08T05:52:41Z</time>
      </trkpt>
      <trkpt lat="45.30749" lon="5.89015">
        <ele>814.44702148438</ele>
        <time>2017-10-08T05:52:46Z</time>
      </trkpt>
      <trkpt lat="45.30752" lon="5.89021">
        <ele>814.44702148438</ele>
        <time>2017-10-08T05:52:50Z</time>
      </trkpt>
      <trkpt lat="45.30753" lon="5.89032">
        <ele>816.44702148438</ele>
        <time>2017-10-08T05:52:54Z</time>
      </trkpt>
      <trkpt lat="45.30754" lon="5.89042">
        <ele>815.44702148438</ele>
        <time>2017-10-08T05:52:57Z</time>
      </trkpt>
      <trkpt lat="45.30752" lon="5.89048">
        <ele>815.44702148438</ele>
        <time>2017-10-08T05:52:59Z</time>
      </trkpt>
      <trkpt lat="45.30755" lon="5.89054">
        <ele>816.44702148438</ele>
        <time>2017-10-08T05:53:02Z</time>
      </trkpt>
      <trkpt lat="45.30755" lon="5.89063">
        <ele>814.44702148438</ele>
        <time>2017-10-08T05:53:04Z</time>
      </trkpt>
      <trkpt lat="45.30756" lon="5.89071">
        <ele>815.44702148438</ele>
        <time>2017-10-08T05:53:06Z</time>
      </trkpt>
      <trkpt lat="45.30756" lon="5.8908">
        <ele>815.44702148438</ele>
        <time>2017-10-08T05:53:08Z</time>
      </trkpt>
      <trkpt lat="45.30758" lon="5.89087">
        <ele>817.44702148438</ele>
        <time>2017-10-08T05:53:10Z</time>
      </trkpt>
      <trkpt lat="45.30763" lon="5.89087">
        <ele>815.44702148438</ele>
        <time>2017-10-08T05:53:12Z</time>
      </trkpt>
      <trkpt lat="45.30769" lon="5.89091">
        <ele>817.44702148438</ele>
        <time>2017-10-08T05:53:15Z</time>
      </trkpt>
      <trkpt lat="45.30771" lon="5.89097">
        <ele>818.44702148438</ele>
        <time>2017-10-08T05:53:18Z</time>
      </trkpt>
      <trkpt lat="45.30776" lon="5.89105">
        <ele>816.44702148438</ele>
        <time>2017-10-08T05:53:20Z</time>
      </trkpt>
      <trkpt lat="45.30777" lon="5.89112">
        <ele>816.44702148438</ele>
        <time>2017-10-08T05:53:22Z</time>
      </trkpt>
      <trkpt lat="45.30781" lon="5.89118">
        <ele>813.44702148438</ele>
        <time>2017-10-08T05:53:24Z</time>
      </trkpt>
      <trkpt lat="45.30783" lon="5.89124">
        <ele>811.44702148438</ele>
        <time>2017-10-08T05:53:26Z</time>
      </trkpt>
      <trkpt lat="45.30783" lon="5.89131">
        <ele>812.44702148438</ele>
        <time>2017-10-08T05:53:28Z</time>
      </trkpt>
      <trkpt lat="45.30784" lon="5.89139">
        <ele>694.44702148438</ele>
        <time>2017-10-08T05:53:31Z</time>
      </trkpt>
      <trkpt lat="45.30789" lon="5.89142">
        <ele>728.44702148438</ele>
        <time>2017-10-08T05:53:34Z</time>
      </trkpt>
      <trkpt lat="45.30788" lon="5.8915">
        <ele>760.44702148438</ele>
        <time>2017-10-08T05:53:37Z</time>
      </trkpt>
      <trkpt lat="45.30791" lon="5.89156">
        <ele>763.44702148438</ele>
        <time>2017-10-08T05:53:40Z</time>
      </trkpt>
      <trkpt lat="45.30791" lon="5.89164">
        <ele>766.44702148438</ele>
        <time>2017-10-08T05:53:43Z</time>
      </trkpt>
      <trkpt lat="45.3079" lon="5.89171">
        <ele>775.44702148438</ele>
        <time>2017-10-08T05:53:47Z</time>
      </trkpt>
      <trkpt lat="45.30793" lon="5.89176">
        <ele>786.44702148438</ele>
        <time>2017-10-08T05:53:51Z</time>
      </trkpt>
      <trkpt lat="45.30793" lon="5.89183">
        <ele>785.44702148438</ele>
        <time>2017-10-08T05:53:54Z</time>
      </trkpt>
      <trkpt lat="45.30794" lon="5.89176">
        <ele>783.44702148438</ele>
        <time>2017-10-08T05:54:19Z</time>
      </trkpt>
      <trkpt lat="45.30796" lon="5.89169">
        <ele>778.44702148438</ele>
        <time>2017-10-08T05:54:21Z</time>
      </trkpt>
      <trkpt lat="45.30791" lon="5.89161">
        <ele>776.44702148438</ele>
        <time>2017-10-08T05:54:24Z</time>
      </trkpt>
      <trkpt lat="45.30787" lon="5.89149">
        <ele>771.44702148438</ele>
        <time>2017-10-08T05:54:28Z</time>
      </trkpt>
      <trkpt lat="45.30783" lon="5.89144">
        <ele>768.44702148438</ele>
        <time>2017-10-08T05:54:30Z</time>
      </trkpt>
      <trkpt lat="45.30779" lon="5.8914">
        <ele>766.44702148438</ele>
        <time>2017-10-08T05:54:32Z</time>
      </trkpt>
      <trkpt lat="45.30773" lon="5.89135">
        <ele>763.44702148438</ele>
        <time>2017-10-08T05:54:34Z</time>
      </trkpt>
      <trkpt lat="45.30764" lon="5.89125">
        <ele>761.44702148438</ele>
        <time>2017-10-08T05:54:38Z</time>
      </trkpt>
      <trkpt lat="45.3076" lon="5.89119">
        <ele>757.44702148438</ele>
        <time>2017-10-08T05:54:41Z</time>
      </trkpt>
      <trkpt lat="45.30754" lon="5.89114">
        <ele>759.44702148438</ele>
        <time>2017-10-08T05:54:43Z</time>
      </trkpt>
      <trkpt lat="45.30748" lon="5.89109">
        <ele>757.44702148438</ele>
        <time>2017-10-08T05:54:45Z</time>
      </trkpt>
      <trkpt lat="45.3074" lon="5.89106">
        <ele>756.44702148438</ele>
        <time>2017-10-08T05:54:47Z</time>
      </trkpt>
      <trkpt lat="45.30732" lon="5.89104">
        <ele>756.44702148438</ele>
        <time>2017-10-08T05:54:49Z</time>
      </trkpt>
      <trkpt lat="45.30726" lon="5.89102">
        <ele>753.44702148438</ele>
        <time>2017-10-08T05:54:51Z</time>
      </trkpt>
      <trkpt lat="45.30721" lon="5.89101">
        <ele>749.44702148438</ele>
        <time>2017-10-08T05:54:55Z</time>
      </trkpt>
      <trkpt lat="45.30715" lon="5.89103">
        <ele>748.44702148438</ele>
        <time>2017-10-08T05:54:59Z</time>
      </trkpt>
      <trkpt lat="45.30709" lon="5.89109">
        <ele>752.44702148438</ele>
        <time>2017-10-08T05:55:02Z</time>
      </trkpt>
      <trkpt lat="45.30706" lon="5.89117">
        <ele>754.44702148438</ele>
        <time>2017-10-08T05:55:04Z</time>
      </trkpt>
      <trkpt lat="45.30705" lon="5.89125">
        <ele>752.44702148438</ele>
        <time>2017-10-08T05:55:07Z</time>
      </trkpt>
      <trkpt lat="45.30705" lon="5.89133">
        <ele>749.44702148438</ele>
        <time>2017-10-08T05:55:11Z</time>
      </trkpt>
      <trkpt lat="45.30706" lon="5.89141">
        <ele>747.44702148438</ele>
        <time>2017-10-08T05:55:14Z</time>
      </trkpt>
      <trkpt lat="45.30705" lon="5.89149">
        <ele>746.44702148438</ele>
        <time>2017-10-08T05:55:17Z</time>
      </trkpt>
      <trkpt lat="45.30705" lon="5.89155">
        <ele>742.44702148438</ele>
        <time>2017-10-08T05:55:19Z</time>
      </trkpt>
      <trkpt lat="45.30704" lon="5.89165">
        <ele>741.44702148438</ele>
        <time>2017-10-08T05:55:23Z</time>
      </trkpt>
      <trkpt lat="45.30703" lon="5.89173">
        <ele>741.44702148438</ele>
        <time>2017-10-08T05:55:25Z</time>
      </trkpt>
      <trkpt lat="45.30704" lon="5.8918">
        <ele>739.44702148438</ele>
        <time>2017-10-08T05:55:27Z</time>
      </trkpt>
      <trkpt lat="45.30705" lon="5.89187">
        <ele>737.44702148438</ele>
        <time>2017-10-08T05:55:29Z</time>
      </trkpt>
      <trkpt lat="45.30706" lon="5.89195">
        <ele>735.44702148438</ele>
        <time>2017-10-08T05:55:31Z</time>
      </trkpt>
      <trkpt lat="45.30705" lon="5.89203">
        <ele>735.44702148438</ele>
        <time>2017-10-08T05:55:33Z</time>
      </trkpt>
      <trkpt lat="45.30704" lon="5.89213">
        <ele>735.44702148438</ele>
        <time>2017-10-08T05:55:36Z</time>
      </trkpt>
      <trkpt lat="45.30703" lon="5.89222">
        <ele>732.44702148438</ele>
        <time>2017-10-08T05:55:39Z</time>
      </trkpt>
      <trkpt lat="45.30703" lon="5.89229">
        <ele>732.44702148438</ele>
        <time>2017-10-08T05:55:41Z</time>
      </trkpt>
      <trkpt lat="45.30705" lon="5.89238">
        <ele>729.44702148438</ele>
        <time>2017-10-08T05:55:44Z</time>
      </trkpt>
      <trkpt lat="45.30705" lon="5.89247">
        <ele>728.44702148438</ele>
        <time>2017-10-08T05:55:47Z</time>
      </trkpt>
      <trkpt lat="45.30706" lon="5.89254">
        <ele>728.44702148438</ele>
        <time>2017-10-08T05:55:49Z</time>
      </trkpt>
      <trkpt lat="45.30705" lon="5.89261">
        <ele>728.44702148438</ele>
        <time>2017-10-08T05:55:51Z</time>
      </trkpt>
      <trkpt lat="45.30704" lon="5.89269">
        <ele>727.44702148438</ele>
        <time>2017-10-08T05:55:54Z</time>
      </trkpt>
      <trkpt lat="45.30703" lon="5.89278">
        <ele>726.44702148438</ele>
        <time>2017-10-08T05:55:56Z</time>
      </trkpt>
      <trkpt lat="45.30704" lon="5.89288">
        <ele>723.44702148438</ele>
        <time>2017-10-08T05:56:00Z</time>
      </trkpt>
      <trkpt lat="45.30704" lon="5.89297">
        <ele>722.44702148438</ele>
        <time>2017-10-08T05:56:03Z</time>
      </trkpt>
      <trkpt lat="45.30703" lon="5.89305">
        <ele>721.44702148438</ele>
        <time>2017-10-08T05:56:05Z</time>
      </trkpt>
      <trkpt lat="45.30702" lon="5.89312">
        <ele>718.44702148438</ele>
        <time>2017-10-08T05:56:09Z</time>
      </trkpt>
      <trkpt lat="45.30702" lon="5.89319">
        <ele>716.44702148438</ele>
        <time>2017-10-08T05:56:12Z</time>
      </trkpt>
      <trkpt lat="45.30704" lon="5.89327">
        <ele>715.44702148438</ele>
        <time>2017-10-08T05:56:16Z</time>
      </trkpt>
      <trkpt lat="45.30704" lon="5.89334">
        <ele>713.44702148438</ele>
        <time>2017-10-08T05:56:20Z</time>
      </trkpt>
      <trkpt lat="45.30704" lon="5.89342">
        <ele>712.44702148438</ele>
        <time>2017-10-08T05:56:24Z</time>
      </trkpt>
      <trkpt lat="45.30704" lon="5.89349">
        <ele>711.44702148438</ele>
        <time>2017-10-08T05:56:27Z</time>
      </trkpt>
      <trkpt lat="45.30706" lon="5.89357">
        <ele>709.44702148438</ele>
        <time>2017-10-08T05:56:36Z</time>
      </trkpt>
      <trkpt lat="45.30702" lon="5.8935">
        <ele>699.44702148438</ele>
        <time>2017-10-08T05:56:51Z</time>
      </trkpt>
      <trkpt lat="45.30699" lon="5.89345">
        <ele>693.44702148438</ele>
        <time>2017-10-08T05:56:57Z</time>
      </trkpt>
      <trkpt lat="45.30697" lon="5.89352">
        <ele>691.44702148438</ele>
        <time>2017-10-08T05:56:59Z</time>
      </trkpt>
      <trkpt lat="45.30693" lon="5.89361">
        <ele>688.44702148438</ele>
        <time>2017-10-08T05:57:02Z</time>
      </trkpt>
      <trkpt lat="45.30688" lon="5.89359">
        <ele>684.44702148438</ele>
        <time>2017-10-08T05:57:05Z</time>
      </trkpt>
      <trkpt lat="45.30684" lon="5.89356">
        <ele>680.44702148438</ele>
        <time>2017-10-08T05:57:10Z</time>
      </trkpt>
      <trkpt lat="45.30679" lon="5.89355">
        <ele>676.44702148438</ele>
        <time>2017-10-08T05:57:14Z</time>
      </trkpt>
      <trkpt lat="45.30674" lon="5.89356">
        <ele>675.44702148438</ele>
        <time>2017-10-08T05:57:24Z</time>
      </trkpt>
      <trkpt lat="45.30668" lon="5.89352">
        <ele>671.44702148438</ele>
        <time>2017-10-08T05:57:46Z</time>
      </trkpt>
      <trkpt lat="45.30662" lon="5.89349">
        <ele>669.44702148438</ele>
        <time>2017-10-08T05:57:48Z</time>
      </trkpt>
      <trkpt lat="45.30657" lon="5.89346">
        <ele>668.44702148438</ele>
        <time>2017-10-08T05:57:51Z</time>
      </trkpt>
      <trkpt lat="45.30652" lon="5.89343">
        <ele>668.44702148438</ele>
        <time>2017-10-08T05:57:54Z</time>
      </trkpt>
      <trkpt lat="45.30648" lon="5.89339">
        <ele>665.44702148438</ele>
        <time>2017-10-08T05:57:59Z</time>
      </trkpt>
      <trkpt lat="45.30646" lon="5.89333">
        <ele>662.44702148438</ele>
        <time>2017-10-08T05:58:03Z</time>
      </trkpt>
      <trkpt lat="45.30642" lon="5.89328">
        <ele>659.44702148438</ele>
        <time>2017-10-08T05:58:10Z</time>
      </trkpt>
      <trkpt lat="45.30638" lon="5.89323">
        <ele>658.44702148438</ele>
        <time>2017-10-08T05:58:14Z</time>
      </trkpt>
      <trkpt lat="45.30632" lon="5.89321">
        <ele>657.44702148438</ele>
        <time>2017-10-08T05:58:17Z</time>
      </trkpt>
      <trkpt lat="45.30628" lon="5.89324">
        <ele>655.44702148438</ele>
        <time>2017-10-08T05:58:21Z</time>
      </trkpt>
      <trkpt lat="45.30627" lon="5.89332">
        <ele>654.44702148438</ele>
        <time>2017-10-08T05:58:25Z</time>
      </trkpt>
      <trkpt lat="45.30626" lon="5.8934">
        <ele>653.44702148438</ele>
        <time>2017-10-08T05:58:28Z</time>
      </trkpt>
      <trkpt lat="45.30625" lon="5.89348">
        <ele>652.44702148438</ele>
        <time>2017-10-08T05:58:30Z</time>
      </trkpt>
      <trkpt lat="45.30619" lon="5.89359">
        <ele>651.44702148438</ele>
        <time>2017-10-08T05:58:33Z</time>
      </trkpt>
      <trkpt lat="45.30617" lon="5.89352">
        <ele>648.44702148438</ele>
        <time>2017-10-08T05:58:38Z</time>
      </trkpt>
      <trkpt lat="45.30613" lon="5.89347">
        <ele>646.44702148438</ele>
        <time>2017-10-08T05:58:40Z</time>
      </trkpt>
      <trkpt lat="45.30608" lon="5.89349">
        <ele>642.44702148438</ele>
        <time>2017-10-08T05:58:43Z</time>
      </trkpt>
      <trkpt lat="45.30606" lon="5.89357">
        <ele>642.44702148438</ele>
        <time>2017-10-08T05:58:46Z</time>
      </trkpt>
      <trkpt lat="45.30604" lon="5.89364">
        <ele>642.44702148438</ele>
        <time>2017-10-08T05:58:48Z</time>
      </trkpt>
      <trkpt lat="45.30602" lon="5.89373">
        <ele>641.44702148438</ele>
        <time>2017-10-08T05:58:51Z</time>
      </trkpt>
      <trkpt lat="45.30601" lon="5.8938">
        <ele>641.44702148438</ele>
        <time>2017-10-08T05:58:53Z</time>
      </trkpt>
      <trkpt lat="45.306" lon="5.89388">
        <ele>640.44702148438</ele>
        <time>2017-10-08T05:58:55Z</time>
      </trkpt>
      <trkpt lat="45.306" lon="5.89396">
        <ele>640.44702148438</ele>
        <time>2017-10-08T05:58:57Z</time>
      </trkpt>
      <trkpt lat="45.30602" lon="5.89403">
        <ele>638.44702148438</ele>
        <time>2017-10-08T05:59:00Z</time>
      </trkpt>
      <trkpt lat="45.30602" lon="5.8941">
        <ele>639.44702148438</ele>
        <time>2017-10-08T05:59:03Z</time>
      </trkpt>
      <trkpt lat="45.30599" lon="5.89416">
        <ele>637.44702148438</ele>
        <time>2017-10-08T05:59:07Z</time>
      </trkpt>
      <trkpt lat="45.30598" lon="5.89423">
        <ele>631.44702148438</ele>
        <time>2017-10-08T05:59:12Z</time>
      </trkpt>
      <trkpt lat="45.30594" lon="5.8943">
        <ele>631.44702148438</ele>
        <time>2017-10-08T05:59:16Z</time>
      </trkpt>
      <trkpt lat="45.30591" lon="5.89437">
        <ele>617.44702148438</ele>
        <time>2017-10-08T05:59:27Z</time>
      </trkpt>
      <trkpt lat="45.30587" lon="5.89439">
        <ele>614.44702148438</ele>
        <time>2017-10-08T05:59:32Z</time>
      </trkpt>
      <trkpt lat="45.30582" lon="5.89437">
        <ele>613.44702148438</ele>
        <time>2017-10-08T05:59:36Z</time>
      </trkpt>
      <trkpt lat="45.30576" lon="5.89432">
        <ele>612.44702148438</ele>
        <time>2017-10-08T05:59:39Z</time>
      </trkpt>
      <trkpt lat="45.30579" lon="5.89426">
        <ele>609.44702148438</ele>
        <time>2017-10-08T05:59:43Z</time>
      </trkpt>
      <trkpt lat="45.30578" lon="5.89418">
        <ele>608.44702148438</ele>
        <time>2017-10-08T05:59:50Z</time>
      </trkpt>
      <trkpt lat="45.30576" lon="5.8941">
        <ele>607.44702148438</ele>
        <time>2017-10-08T05:59:54Z</time>
      </trkpt>
      <trkpt lat="45.30572" lon="5.89403">
        <ele>443.4469909668</ele>
        <time>2017-10-08T05:59:57Z</time>
      </trkpt>
      <trkpt lat="45.30568" lon="5.89398">
        <ele>742.44702148438</ele>
        <time>2017-10-08T06:00:01Z</time>
      </trkpt>
      <trkpt lat="45.30562" lon="5.89396">
        <ele>696.44702148438</ele>
        <time>2017-10-08T06:00:03Z</time>
      </trkpt>
      <trkpt lat="45.30558" lon="5.89393">
        <ele>667.44702148438</ele>
        <time>2017-10-08T06:00:05Z</time>
      </trkpt>
      <trkpt lat="45.30554" lon="5.8939">
        <ele>627.44702148438</ele>
        <time>2017-10-08T06:00:09Z</time>
      </trkpt>
      <trkpt lat="45.30551" lon="5.89383">
        <ele>623.44702148438</ele>
        <time>2017-10-08T06:00:13Z</time>
      </trkpt>
      <trkpt lat="45.30552" lon="5.89376">
        <ele>601.44702148438</ele>
        <time>2017-10-08T06:00:24Z</time>
      </trkpt>
      <trkpt lat="45.30551" lon="5.89369">
        <ele>594.44702148438</ele>
        <time>2017-10-08T06:00:35Z</time>
      </trkpt>
      <trkpt lat="45.3055" lon="5.89362">
        <ele>595.44702148438</ele>
        <time>2017-10-08T06:00:39Z</time>
      </trkpt>
      <trkpt lat="45.30548" lon="5.89355">
        <ele>593.44702148438</ele>
        <time>2017-10-08T06:00:43Z</time>
      </trkpt>
      <trkpt lat="45.30547" lon="5.89349">
        <ele>590.44702148438</ele>
        <time>2017-10-08T06:00:46Z</time>
      </trkpt>
      <trkpt lat="45.30546" lon="5.89341">
        <ele>585.44702148438</ele>
        <time>2017-10-08T06:00:49Z</time>
      </trkpt>
      <trkpt lat="45.30542" lon="5.89338">
        <ele>588.44702148438</ele>
        <time>2017-10-08T06:00:51Z</time>
      </trkpt>
      <trkpt lat="45.30539" lon="5.89331">
        <ele>587.44702148438</ele>
        <time>2017-10-08T06:00:53Z</time>
      </trkpt>
      <trkpt lat="45.30534" lon="5.89324">
        <ele>585.44702148438</ele>
        <time>2017-10-08T06:00:55Z</time>
      </trkpt>
      <trkpt lat="45.3053" lon="5.89319">
        <ele>582.44702148438</ele>
        <time>2017-10-08T06:00:58Z</time>
      </trkpt>
      <trkpt lat="45.30526" lon="5.89315">
        <ele>581.44702148438</ele>
        <time>2017-10-08T06:01:01Z</time>
      </trkpt>
      <trkpt lat="45.30523" lon="5.8931">
        <ele>582.44702148438</ele>
        <time>2017-10-08T06:01:03Z</time>
      </trkpt>
      <trkpt lat="45.30517" lon="5.89308">
        <ele>580.44702148438</ele>
        <time>2017-10-08T06:01:05Z</time>
      </trkpt>
      <trkpt lat="45.30514" lon="5.89304">
        <ele>576.44702148438</ele>
        <time>2017-10-08T06:01:12Z</time>
      </trkpt>
      <trkpt lat="45.30512" lon="5.89297">
        <ele>574.44702148438</ele>
        <time>2017-10-08T06:01:15Z</time>
      </trkpt>
      <trkpt lat="45.3051" lon="5.89291">
        <ele>573.44702148438</ele>
        <time>2017-10-08T06:01:17Z</time>
      </trkpt>
      <trkpt lat="45.30507" lon="5.89283">
        <ele>571.44702148438</ele>
        <time>2017-10-08T06:01:20Z</time>
      </trkpt>
      <trkpt lat="45.30509" lon="5.89274">
        <ele>568.44702148438</ele>
        <time>2017-10-08T06:01:23Z</time>
      </trkpt>
      <trkpt lat="45.30508" lon="5.89268">
        <ele>566.44702148438</ele>
        <time>2017-10-08T06:01:27Z</time>
      </trkpt>
      <trkpt lat="45.30503" lon="5.89264">
        <ele>563.44702148438</ele>
        <time>2017-10-08T06:01:30Z</time>
      </trkpt>
      <trkpt lat="45.30498" lon="5.89266">
        <ele>560.44702148438</ele>
        <time>2017-10-08T06:01:38Z</time>
      </trkpt>
      <trkpt lat="45.30494" lon="5.89265">
        <ele>561.44702148438</ele>
        <time>2017-10-08T06:01:41Z</time>
      </trkpt>
      <trkpt lat="45.30489" lon="5.89265">
        <ele>561.44702148438</ele>
        <time>2017-10-08T06:01:43Z</time>
      </trkpt>
      <trkpt lat="45.30488" lon="5.89258">
        <ele>558.44702148438</ele>
        <time>2017-10-08T06:01:45Z</time>
      </trkpt>
      <trkpt lat="45.30483" lon="5.89261">
        <ele>558.44598388672</ele>
        <time>2017-10-08T06:01:47Z</time>
      </trkpt>
      <trkpt lat="45.30477" lon="5.89259">
        <ele>555.44598388672</ele>
        <time>2017-10-08T06:01:51Z</time>
      </trkpt>
      <trkpt lat="45.30472" lon="5.89256">
        <ele>553.44598388672</ele>
        <time>2017-10-08T06:01:54Z</time>
      </trkpt>
      <trkpt lat="45.3047" lon="5.89249">
        <ele>553.44598388672</ele>
        <time>2017-10-08T06:01:56Z</time>
      </trkpt>
      <trkpt lat="45.30468" lon="5.89243">
        <ele>551.44598388672</ele>
        <time>2017-10-08T06:01:58Z</time>
      </trkpt>
      <trkpt lat="45.30464" lon="5.89234">
        <ele>551.44598388672</ele>
        <time>2017-10-08T06:02:01Z</time>
      </trkpt>
      <trkpt lat="45.30456" lon="5.89225">
        <ele>551.44598388672</ele>
        <time>2017-10-08T06:02:03Z</time>
      </trkpt>
      <trkpt lat="45.30452" lon="5.8922">
        <ele>548.44598388672</ele>
        <time>2017-10-08T06:02:06Z</time>
      </trkpt>
      <trkpt lat="45.30445" lon="5.89216">
        <ele>547.44598388672</ele>
        <time>2017-10-08T06:02:09Z</time>
      </trkpt>
      <trkpt lat="45.30443" lon="5.8921">
        <ele>546.44598388672</ele>
        <time>2017-10-08T06:02:12Z</time>
      </trkpt>
      <trkpt lat="45.30439" lon="5.89207">
        <ele>546.44598388672</ele>
        <time>2017-10-08T06:02:14Z</time>
      </trkpt>
      <trkpt lat="45.30435" lon="5.89205">
        <ele>545.44598388672</ele>
        <time>2017-10-08T06:02:16Z</time>
      </trkpt>
      <trkpt lat="45.3043" lon="5.89202">
        <ele>546.44598388672</ele>
        <time>2017-10-08T06:02:18Z</time>
      </trkpt>
      <trkpt lat="45.30425" lon="5.89197">
        <ele>544.44598388672</ele>
        <time>2017-10-08T06:02:21Z</time>
      </trkpt>
      <trkpt lat="45.3042" lon="5.89196">
        <ele>542.44598388672</ele>
        <time>2017-10-08T06:02:23Z</time>
      </trkpt>
      <trkpt lat="45.30415" lon="5.89192">
        <ele>541.44598388672</ele>
        <time>2017-10-08T06:02:25Z</time>
      </trkpt>
      <trkpt lat="45.30411" lon="5.89187">
        <ele>541.44598388672</ele>
        <time>2017-10-08T06:02:27Z</time>
      </trkpt>
      <trkpt lat="45.30406" lon="5.89182">
        <ele>541.44598388672</ele>
        <time>2017-10-08T06:02:29Z</time>
      </trkpt>
      <trkpt lat="45.30402" lon="5.89179">
        <ele>538.44598388672</ele>
        <time>2017-10-08T06:02:33Z</time>
      </trkpt>
      <trkpt lat="45.30396" lon="5.89177">
        <ele>534.44598388672</ele>
        <time>2017-10-08T06:03:09Z</time>
      </trkpt>
      <trkpt lat="45.3039" lon="5.89179">
        <ele>531.44598388672</ele>
        <time>2017-10-08T06:03:10Z</time>
      </trkpt>
      <trkpt lat="45.30376" lon="5.8918">
        <ele>529.44598388672</ele>
        <time>2017-10-08T06:03:13Z</time>
      </trkpt>
      <trkpt lat="45.30372" lon="5.89186">
        <ele>525.44598388672</ele>
        <time>2017-10-08T06:03:15Z</time>
      </trkpt>
      <trkpt lat="45.30368" lon="5.89191">
        <ele>520.44598388672</ele>
        <time>2017-10-08T06:03:18Z</time>
      </trkpt>
      <trkpt lat="45.30366" lon="5.89196">
        <ele>519.44598388672</ele>
        <time>2017-10-08T06:03:21Z</time>
      </trkpt>
      <trkpt lat="45.30363" lon="5.89204">
        <ele>516.44598388672</ele>
        <time>2017-10-08T06:03:27Z</time>
      </trkpt>
      <trkpt lat="45.3036" lon="5.89211">
        <ele>516.44598388672</ele>
        <time>2017-10-08T06:03:30Z</time>
      </trkpt>
      <trkpt lat="45.30357" lon="5.89219">
        <ele>517.44598388672</ele>
        <time>2017-10-08T06:03:34Z</time>
      </trkpt>
      <trkpt lat="45.30353" lon="5.89221">
        <ele>514.44598388672</ele>
        <time>2017-10-08T06:03:37Z</time>
      </trkpt>
      <trkpt lat="45.30347" lon="5.89224">
        <ele>510.4460144043</ele>
        <time>2017-10-08T06:03:41Z</time>
      </trkpt>
      <trkpt lat="45.30344" lon="5.8923">
        <ele>509.4460144043</ele>
        <time>2017-10-08T06:03:43Z</time>
      </trkpt>
      <trkpt lat="45.30341" lon="5.89236">
        <ele>507.4460144043</ele>
        <time>2017-10-08T06:03:45Z</time>
      </trkpt>
      <trkpt lat="45.30334" lon="5.8924">
        <ele>509.4460144043</ele>
        <time>2017-10-08T06:03:48Z</time>
      </trkpt>
      <trkpt lat="45.30331" lon="5.89246">
        <ele>510.4460144043</ele>
        <time>2017-10-08T06:03:50Z</time>
      </trkpt>
      <trkpt lat="45.30327" lon="5.89252">
        <ele>510.4460144043</ele>
        <time>2017-10-08T06:03:53Z</time>
      </trkpt>
      <trkpt lat="45.30322" lon="5.89256">
        <ele>509.4460144043</ele>
        <time>2017-10-08T06:03:55Z</time>
      </trkpt>
      <trkpt lat="45.3032" lon="5.89263">
        <ele>508.4460144043</ele>
        <time>2017-10-08T06:03:58Z</time>
      </trkpt>
      <trkpt lat="45.30316" lon="5.89269">
        <ele>504.4460144043</ele>
        <time>2017-10-08T06:04:02Z</time>
      </trkpt>
      <trkpt lat="45.30311" lon="5.89274">
        <ele>501.4460144043</ele>
        <time>2017-10-08T06:04:05Z</time>
      </trkpt>
      <trkpt lat="45.30306" lon="5.89279">
        <ele>492.4460144043</ele>
        <time>2017-10-08T06:04:09Z</time>
      </trkpt>
      <trkpt lat="45.30303" lon="5.89287">
        <ele>487.4460144043</ele>
        <time>2017-10-08T06:04:12Z</time>
      </trkpt>
      <trkpt lat="45.30305" lon="5.89293">
        <ele>486.4460144043</ele>
        <time>2017-10-08T06:04:16Z</time>
      </trkpt>
      <trkpt lat="45.30304" lon="5.893">
        <ele>484.4460144043</ele>
        <time>2017-10-08T06:04:28Z</time>
      </trkpt>
      <trkpt lat="45.30301" lon="5.89307">
        <ele>482.4460144043</ele>
        <time>2017-10-08T06:04:30Z</time>
      </trkpt>
      <trkpt lat="45.30297" lon="5.89313">
        <ele>479.4460144043</ele>
        <time>2017-10-08T06:04:33Z</time>
      </trkpt>
      <trkpt lat="45.30293" lon="5.89318">
        <ele>477.4460144043</ele>
        <time>2017-10-08T06:04:35Z</time>
      </trkpt>
      <trkpt lat="45.3029" lon="5.89326">
        <ele>473.4460144043</ele>
        <time>2017-10-08T06:04:39Z</time>
      </trkpt>
      <trkpt lat="45.30286" lon="5.8933">
        <ele>472.4460144043</ele>
        <time>2017-10-08T06:04:42Z</time>
      </trkpt>
      <trkpt lat="45.30282" lon="5.89336">
        <ele>471.4460144043</ele>
        <time>2017-10-08T06:04:45Z</time>
      </trkpt>
      <trkpt lat="45.30278" lon="5.89341">
        <ele>467.4460144043</ele>
        <time>2017-10-08T06:04:50Z</time>
      </trkpt>
      <trkpt lat="45.30273" lon="5.89346">
        <ele>465.4460144043</ele>
        <time>2017-10-08T06:04:53Z</time>
      </trkpt>
      <trkpt lat="45.30267" lon="5.89352">
        <ele>462.4460144043</ele>
        <time>2017-10-08T06:04:56Z</time>
      </trkpt>
      <trkpt lat="45.30264" lon="5.89357">
        <ele>458.4460144043</ele>
        <time>2017-10-08T06:05:00Z</time>
      </trkpt>
      <trkpt lat="45.30256" lon="5.89361">
        <ele>454.4460144043</ele>
        <time>2017-10-08T06:05:03Z</time>
      </trkpt>
      <trkpt lat="45.30251" lon="5.89367">
        <ele>451.4460144043</ele>
        <time>2017-10-08T06:05:05Z</time>
      </trkpt>
      <trkpt lat="45.30245" lon="5.8937">
        <ele>448.4460144043</ele>
        <time>2017-10-08T06:05:08Z</time>
      </trkpt>
      <trkpt lat="45.30239" lon="5.89372">
        <ele>443.4460144043</ele>
        <time>2017-10-08T06:05:13Z</time>
      </trkpt>
      <trkpt lat="45.30234" lon="5.89373">
        <ele>441.4460144043</ele>
        <time>2017-10-08T06:05:15Z</time>
      </trkpt>
      <trkpt lat="45.30229" lon="5.89373">
        <ele>440.4460144043</ele>
        <time>2017-10-08T06:05:17Z</time>
      </trkpt>
      <trkpt lat="45.30215" lon="5.89374">
        <ele>437.4460144043</ele>
        <time>2017-10-08T06:05:20Z</time>
      </trkpt>
      <trkpt lat="45.3021" lon="5.89372">
        <ele>436.4460144043</ele>
        <time>2017-10-08T06:05:22Z</time>
      </trkpt>
      <trkpt lat="45.30205" lon="5.89373">
        <ele>432.4460144043</ele>
        <time>2017-10-08T06:05:26Z</time>
      </trkpt>
      <trkpt lat="45.30201" lon="5.89374">
        <ele>429.4460144043</ele>
        <time>2017-10-08T06:05:28Z</time>
      </trkpt>
      <trkpt lat="45.30195" lon="5.89374">
        <ele>429.4460144043</ele>
        <time>2017-10-08T06:05:30Z</time>
      </trkpt>
      <trkpt lat="45.30188" lon="5.89375">
        <ele>429.4460144043</ele>
        <time>2017-10-08T06:05:32Z</time>
      </trkpt>
      <trkpt lat="45.30181" lon="5.89374">
        <ele>428.4460144043</ele>
        <time>2017-10-08T06:05:34Z</time>
      </trkpt>
      <trkpt lat="45.30176" lon="5.89373">
        <ele>427.4460144043</ele>
        <time>2017-10-08T06:05:37Z</time>
      </trkpt>
      <trkpt lat="45.3017" lon="5.89372">
        <ele>424.4460144043</ele>
        <time>2017-10-08T06:05:40Z</time>
      </trkpt>
      <trkpt lat="45.30165" lon="5.89371">
        <ele>424.4460144043</ele>
        <time>2017-10-08T06:05:42Z</time>
      </trkpt>
      <trkpt lat="45.3016" lon="5.8937">
        <ele>421.4460144043</ele>
        <time>2017-10-08T06:05:45Z</time>
      </trkpt>
      <trkpt lat="45.30155" lon="5.89369">
        <ele>420.4460144043</ele>
        <time>2017-10-08T06:05:47Z</time>
      </trkpt>
      <trkpt lat="45.30149" lon="5.89368">
        <ele>418.4460144043</ele>
        <time>2017-10-08T06:05:50Z</time>
      </trkpt>
      <trkpt lat="45.30145" lon="5.89371">
        <ele>415.4460144043</ele>
        <time>2017-10-08T06:05:53Z</time>
      </trkpt>
      <trkpt lat="45.3014" lon="5.89368">
        <ele>412.4460144043</ele>
        <time>2017-10-08T06:05:57Z</time>
      </trkpt>
      <trkpt lat="45.30133" lon="5.89368">
        <ele>410.4460144043</ele>
        <time>2017-10-08T06:05:59Z</time>
      </trkpt>
      <trkpt lat="45.30127" lon="5.8937">
        <ele>408.4460144043</ele>
        <time>2017-10-08T06:06:01Z</time>
      </trkpt>
      <trkpt lat="45.30122" lon="5.89373">
        <ele>407.4460144043</ele>
        <time>2017-10-08T06:06:03Z</time>
      </trkpt>
      <trkpt lat="45.30114" lon="5.89371">
        <ele>407.4460144043</ele>
        <time>2017-10-08T06:06:05Z</time>
      </trkpt>
      <trkpt lat="45.30103" lon="5.89367">
        <ele>405.4460144043</ele>
        <time>2017-10-08T06:06:10Z</time>
      </trkpt>
      <trkpt lat="45.30097" lon="5.89362">
        <ele>404.4460144043</ele>
        <time>2017-10-08T06:06:12Z</time>
      </trkpt>
      <trkpt lat="45.30087" lon="5.8936">
        <ele>402.4460144043</ele>
        <time>2017-10-08T06:06:15Z</time>
      </trkpt>
      <trkpt lat="45.30079" lon="5.89361">
        <ele>401.4460144043</ele>
        <time>2017-10-08T06:06:17Z</time>
      </trkpt>
      <trkpt lat="45.30073" lon="5.8936">
        <ele>398.4460144043</ele>
        <time>2017-10-08T06:06:19Z</time>
      </trkpt>
      <trkpt lat="45.30068" lon="5.89359">
        <ele>398.4460144043</ele>
        <time>2017-10-08T06:06:21Z</time>
      </trkpt>
      <trkpt lat="45.30063" lon="5.8936">
        <ele>396.4460144043</ele>
        <time>2017-10-08T06:06:23Z</time>
      </trkpt>
      <trkpt lat="45.30057" lon="5.89359">
        <ele>394.4460144043</ele>
        <time>2017-10-08T06:06:26Z</time>
      </trkpt>
      <trkpt lat="45.3005" lon="5.89366">
        <ele>394.4460144043</ele>
        <time>2017-10-08T06:06:28Z</time>
      </trkpt>
      <trkpt lat="45.30044" lon="5.89372">
        <ele>393.4460144043</ele>
        <time>2017-10-08T06:06:30Z</time>
      </trkpt>
      <trkpt lat="45.30039" lon="5.89378">
        <ele>393.4460144043</ele>
        <time>2017-10-08T06:06:33Z</time>
      </trkpt>
      <trkpt lat="45.30035" lon="5.89382">
        <ele>393.4460144043</ele>
        <time>2017-10-08T06:06:35Z</time>
      </trkpt>
      <trkpt lat="45.30031" lon="5.89387">
        <ele>391.4460144043</ele>
        <time>2017-10-08T06:06:38Z</time>
      </trkpt>
      <trkpt lat="45.30028" lon="5.89392">
        <ele>388.4460144043</ele>
        <time>2017-10-08T06:06:41Z</time>
      </trkpt>
      <trkpt lat="45.30026" lon="5.89398">
        <ele>386.4460144043</ele>
        <time>2017-10-08T06:06:44Z</time>
      </trkpt>
      <trkpt lat="45.30023" lon="5.89404">
        <ele>382.4460144043</ele>
        <time>2017-10-08T06:06:48Z</time>
      </trkpt>
      <trkpt lat="45.3002" lon="5.89411">
        <ele>381.4460144043</ele>
        <time>2017-10-08T06:06:50Z</time>
      </trkpt>
      <trkpt lat="45.30017" lon="5.8942">
        <ele>380.4460144043</ele>
        <time>2017-10-08T06:06:52Z</time>
      </trkpt>
      <trkpt lat="45.30014" lon="5.89427">
        <ele>378.4460144043</ele>
        <time>2017-10-08T06:06:55Z</time>
      </trkpt>
      <trkpt lat="45.3001" lon="5.89435">
        <ele>374.4460144043</ele>
        <time>2017-10-08T06:06:57Z</time>
      </trkpt>
      <trkpt lat="45.30012" lon="5.89442">
        <ele>373.4460144043</ele>
        <time>2017-10-08T06:07:02Z</time>
      </trkpt>
      <trkpt lat="45.30016" lon="5.89449">
        <ele>368.4460144043</ele>
        <time>2017-10-08T06:07:06Z</time>
      </trkpt>
      <trkpt lat="45.3002" lon="5.89454">
        <ele>364.4460144043</ele>
        <time>2017-10-08T06:07:10Z</time>
      </trkpt>
      <trkpt lat="45.30024" lon="5.8946">
        <ele>363.4460144043</ele>
        <time>2017-10-08T06:07:12Z</time>
      </trkpt>
      <trkpt lat="45.3003" lon="5.89465">
        <ele>362.4460144043</ele>
        <time>2017-10-08T06:07:15Z</time>
      </trkpt>
      <trkpt lat="45.30036" lon="5.8947">
        <ele>361.4460144043</ele>
        <time>2017-10-08T06:07:18Z</time>
      </trkpt>
      <trkpt lat="45.30039" lon="5.89474">
        <ele>361.4460144043</ele>
        <time>2017-10-08T06:07:20Z</time>
      </trkpt>
      <trkpt lat="45.30042" lon="5.8948">
        <ele>362.4460144043</ele>
        <time>2017-10-08T06:07:22Z</time>
      </trkpt>
      <trkpt lat="45.30047" lon="5.89487">
        <ele>361.4460144043</ele>
        <time>2017-10-08T06:07:25Z</time>
      </trkpt>
      <trkpt lat="45.30052" lon="5.89492">
        <ele>361.4460144043</ele>
        <time>2017-10-08T06:07:27Z</time>
      </trkpt>
      <trkpt lat="45.30052" lon="5.895">
        <ele>359.4460144043</ele>
        <time>2017-10-08T06:07:30Z</time>
      </trkpt>
      <trkpt lat="45.30053" lon="5.89508">
        <ele>357.4460144043</ele>
        <time>2017-10-08T06:07:33Z</time>
      </trkpt>
      <trkpt lat="45.30054" lon="5.89514">
        <ele>357.4460144043</ele>
        <time>2017-10-08T06:07:35Z</time>
      </trkpt>
      <trkpt lat="45.30056" lon="5.8952">
        <ele>355.4460144043</ele>
        <time>2017-10-08T06:07:37Z</time>
      </trkpt>
      <trkpt lat="45.30059" lon="5.89526">
        <ele>350.4460144043</ele>
        <time>2017-10-08T06:07:40Z</time>
      </trkpt>
      <trkpt lat="45.30063" lon="5.89532">
        <ele>347.4460144043</ele>
        <time>2017-10-08T06:07:44Z</time>
      </trkpt>
      <trkpt lat="45.30064" lon="5.89541">
        <ele>345.4460144043</ele>
        <time>2017-10-08T06:07:47Z</time>
      </trkpt>
      <trkpt lat="45.30063" lon="5.89549">
        <ele>343.4460144043</ele>
        <time>2017-10-08T06:07:49Z</time>
      </trkpt>
      <trkpt lat="45.30064" lon="5.89556">
        <ele>342.4460144043</ele>
        <time>2017-10-08T06:07:51Z</time>
      </trkpt>
      <trkpt lat="45.30063" lon="5.89564">
        <ele>340.4460144043</ele>
        <time>2017-10-08T06:07:53Z</time>
      </trkpt>
      <trkpt lat="45.30064" lon="5.89571">
        <ele>341.4460144043</ele>
        <time>2017-10-08T06:07:55Z</time>
      </trkpt>
      <trkpt lat="45.30065" lon="5.89578">
        <ele>340.4460144043</ele>
        <time>2017-10-08T06:07:59Z</time>
      </trkpt>
      <trkpt lat="45.30068" lon="5.89585">
        <ele>338.4460144043</ele>
        <time>2017-10-08T06:08:02Z</time>
      </trkpt>
      <trkpt lat="45.3007" lon="5.89591">
        <ele>337.4460144043</ele>
        <time>2017-10-08T06:08:04Z</time>
      </trkpt>
      <trkpt lat="45.30075" lon="5.89595">
        <ele>336.4460144043</ele>
        <time>2017-10-08T06:08:06Z</time>
      </trkpt>
      <trkpt lat="45.3008" lon="5.896">
        <ele>334.4460144043</ele>
        <time>2017-10-08T06:08:08Z</time>
      </trkpt>
      <trkpt lat="45.30087" lon="5.89605">
        <ele>331.4460144043</ele>
        <time>2017-10-08T06:08:12Z</time>
      </trkpt>
      <trkpt lat="45.3009" lon="5.8961">
        <ele>330.4460144043</ele>
        <time>2017-10-08T06:08:14Z</time>
      </trkpt>
      <trkpt lat="45.30088" lon="5.89616">
        <ele>328.4460144043</ele>
        <time>2017-10-08T06:08:18Z</time>
      </trkpt>
      <trkpt lat="45.30086" lon="5.89622">
        <ele>326.4460144043</ele>
        <time>2017-10-08T06:08:20Z</time>
      </trkpt>
      <trkpt lat="45.30083" lon="5.89628">
        <ele>324.4460144043</ele>
        <time>2017-10-08T06:08:23Z</time>
      </trkpt>
      <trkpt lat="45.30079" lon="5.89636">
        <ele>323.4460144043</ele>
        <time>2017-10-08T06:08:28Z</time>
      </trkpt>
      <trkpt lat="45.30076" lon="5.89641">
        <ele>320.4460144043</ele>
        <time>2017-10-08T06:08:31Z</time>
      </trkpt>
      <trkpt lat="45.30077" lon="5.89648">
        <ele>321.4460144043</ele>
        <time>2017-10-08T06:08:34Z</time>
      </trkpt>
      <trkpt lat="45.30072" lon="5.89655">
        <ele>321.4460144043</ele>
        <time>2017-10-08T06:08:37Z</time>
      </trkpt>
      <trkpt lat="45.30071" lon="5.89663">
        <ele>319.4460144043</ele>
        <time>2017-10-08T06:08:41Z</time>
      </trkpt>
      <trkpt lat="45.30071" lon="5.89672">
        <ele>313.4460144043</ele>
        <time>2017-10-08T06:08:44Z</time>
      </trkpt>
      <trkpt lat="45.3007" lon="5.89678">
        <ele>310.4460144043</ele>
        <time>2017-10-08T06:08:47Z</time>
      </trkpt>
      <trkpt lat="45.3007" lon="5.89685">
        <ele>309.4460144043</ele>
        <time>2017-10-08T06:08:49Z</time>
      </trkpt>
      <trkpt lat="45.3007" lon="5.89693">
        <ele>308.4460144043</ele>
        <time>2017-10-08T06:08:51Z</time>
      </trkpt>
      <trkpt lat="45.30068" lon="5.89704">
        <ele>307.4460144043</ele>
        <time>2017-10-08T06:08:54Z</time>
      </trkpt>
      <trkpt lat="45.30066" lon="5.8971">
        <ele>302.4460144043</ele>
        <time>2017-10-08T06:08:57Z</time>
      </trkpt>
      <trkpt lat="45.30065" lon="5.89721">
        <ele>302.4460144043</ele>
        <time>2017-10-08T06:08:59Z</time>
      </trkpt>
      <trkpt lat="45.30061" lon="5.89731">
        <ele>301.4460144043</ele>
        <time>2017-10-08T06:09:01Z</time>
      </trkpt>
      <trkpt lat="45.30058" lon="5.8974">
        <ele>300.4460144043</ele>
        <time>2017-10-08T06:09:03Z</time>
      </trkpt>
      <trkpt lat="45.30056" lon="5.89749">
        <ele>300.4460144043</ele>
        <time>2017-10-08T06:09:05Z</time>
      </trkpt>
      <trkpt lat="45.30054" lon="5.89756">
        <ele>298.4460144043</ele>
        <time>2017-10-08T06:09:07Z</time>
      </trkpt>
      <trkpt lat="45.3005" lon="5.89762">
        <ele>299.4460144043</ele>
        <time>2017-10-08T06:09:09Z</time>
      </trkpt>
      <trkpt lat="45.30046" lon="5.8977">
        <ele>298.4460144043</ele>
        <time>2017-10-08T06:09:11Z</time>
      </trkpt>
      <trkpt lat="45.30042" lon="5.89774">
        <ele>296.4460144043</ele>
        <time>2017-10-08T06:09:13Z</time>
      </trkpt>
      <trkpt lat="45.30037" lon="5.89783">
        <ele>294.4460144043</ele>
        <time>2017-10-08T06:09:16Z</time>
      </trkpt>
      <trkpt lat="45.30032" lon="5.89787">
        <ele>294.4460144043</ele>
        <time>2017-10-08T06:09:18Z</time>
      </trkpt>
      <trkpt lat="45.30027" lon="5.89791">
        <ele>293.4460144043</ele>
        <time>2017-10-08T06:09:20Z</time>
      </trkpt>
      <trkpt lat="45.30021" lon="5.89796">
        <ele>295.4460144043</ele>
        <time>2017-10-08T06:09:22Z</time>
      </trkpt>
      <trkpt lat="45.30015" lon="5.89799">
        <ele>292.4460144043</ele>
        <time>2017-10-08T06:09:24Z</time>
      </trkpt>
      <trkpt lat="45.3001" lon="5.89801">
        <ele>291.4460144043</ele>
        <time>2017-10-08T06:09:26Z</time>
      </trkpt>
      <trkpt lat="45.30005" lon="5.89804">
        <ele>284.4460144043</ele>
        <time>2017-10-08T06:09:30Z</time>
      </trkpt>
      <trkpt lat="45.3" lon="5.8981">
        <ele>284.4460144043</ele>
        <time>2017-10-08T06:09:32Z</time>
      </trkpt>
      <trkpt lat="45.29993" lon="5.89813">
        <ele>283.4460144043</ele>
        <time>2017-10-08T06:09:34Z</time>
      </trkpt>
      <trkpt lat="45.29988" lon="5.89813">
        <ele>280.4460144043</ele>
        <time>2017-10-08T06:09:36Z</time>
      </trkpt>
      <trkpt lat="45.29981" lon="5.89817">
        <ele>281.4460144043</ele>
        <time>2017-10-08T06:09:38Z</time>
      </trkpt>
      <trkpt lat="45.29974" lon="5.89822">
        <ele>280.4460144043</ele>
        <time>2017-10-08T06:09:40Z</time>
      </trkpt>
      <trkpt lat="45.29968" lon="5.89827">
        <ele>280.4460144043</ele>
        <time>2017-10-08T06:09:42Z</time>
      </trkpt>
      <trkpt lat="45.29964" lon="5.89832">
        <ele>276.4460144043</ele>
        <time>2017-10-08T06:09:45Z</time>
      </trkpt>
      <trkpt lat="45.29959" lon="5.89835">
        <ele>274.4460144043</ele>
        <time>2017-10-08T06:09:47Z</time>
      </trkpt>
      <trkpt lat="45.29954" lon="5.89841">
        <ele>272.4460144043</ele>
        <time>2017-10-08T06:09:49Z</time>
      </trkpt>
      <trkpt lat="45.29949" lon="5.89844">
        <ele>269.4460144043</ele>
        <time>2017-10-08T06:09:51Z</time>
      </trkpt>
      <trkpt lat="45.29943" lon="5.89849">
        <ele>270.4460144043</ele>
        <time>2017-10-08T06:09:53Z</time>
      </trkpt>
      <trkpt lat="45.29939" lon="5.89853">
        <ele>269.4460144043</ele>
        <time>2017-10-08T06:09:55Z</time>
      </trkpt>
      <trkpt lat="45.29934" lon="5.89857">
        <ele>268.4460144043</ele>
        <time>2017-10-08T06:09:57Z</time>
      </trkpt>
      <trkpt lat="45.29929" lon="5.89861">
        <ele>268.4460144043</ele>
        <time>2017-10-08T06:09:59Z</time>
      </trkpt>
      <trkpt lat="45.29924" lon="5.89865">
        <ele>267.4460144043</ele>
        <time>2017-10-08T06:10:01Z</time>
      </trkpt>
      <trkpt lat="45.29919" lon="5.89868">
        <ele>267.4460144043</ele>
        <time>2017-10-08T06:10:03Z</time>
      </trkpt>
      <trkpt lat="45.29915" lon="5.89871">
        <ele>266.4460144043</ele>
        <time>2017-10-08T06:10:05Z</time>
      </trkpt>
      <trkpt lat="45.2991" lon="5.89874">
        <ele>267.4460144043</ele>
        <time>2017-10-08T06:10:07Z</time>
      </trkpt>
      <trkpt lat="45.29904" lon="5.89879">
        <ele>269.4460144043</ele>
        <time>2017-10-08T06:10:09Z</time>
      </trkpt>
      <trkpt lat="45.29898" lon="5.89882">
        <ele>269.4460144043</ele>
        <time>2017-10-08T06:10:11Z</time>
      </trkpt>
      <trkpt lat="45.29894" lon="5.89883">
        <ele>267.4460144043</ele>
        <time>2017-10-08T06:10:13Z</time>
      </trkpt>
      <trkpt lat="45.2989" lon="5.89886">
        <ele>266.4460144043</ele>
        <time>2017-10-08T06:10:15Z</time>
      </trkpt>
      <trkpt lat="45.29886" lon="5.89891">
        <ele>265.4460144043</ele>
        <time>2017-10-08T06:10:18Z</time>
      </trkpt>
      <trkpt lat="45.29882" lon="5.89895">
        <ele>269.4460144043</ele>
        <time>2017-10-08T06:10:21Z</time>
      </trkpt>
      <trkpt lat="45.29886" lon="5.89896">
        <ele>260.4460144043</ele>
        <time>2017-10-08T06:10:34Z</time>
      </trkpt>
      <trkpt lat="45.29884" lon="5.89905">
        <ele>254.44599914551</ele>
        <time>2017-10-08T06:13:11Z</time>
      </trkpt>
      <trkpt lat="45.29882" lon="5.8992">
        <ele>261.4460144043</ele>
        <time>2017-10-08T06:13:14Z</time>
      </trkpt>
      <trkpt lat="45.29881" lon="5.89934">
        <ele>256.4460144043</ele>
        <time>2017-10-08T06:13:17Z</time>
      </trkpt>
      <trkpt lat="45.29878" lon="5.89941">
        <ele>257.4460144043</ele>
        <time>2017-10-08T06:13:19Z</time>
      </trkpt>
      <trkpt lat="45.29875" lon="5.89946">
        <ele>255.44599914551</ele>
        <time>2017-10-08T06:13:21Z</time>
      </trkpt>
      <trkpt lat="45.29872" lon="5.89951">
        <ele>255.44599914551</ele>
        <time>2017-10-08T06:13:23Z</time>
      </trkpt>
      <trkpt lat="45.29868" lon="5.89962">
        <ele>254.44599914551</ele>
        <time>2017-10-08T06:13:25Z</time>
      </trkpt>
      <trkpt lat="45.29863" lon="5.89973">
        <ele>252.44599914551</ele>
        <time>2017-10-08T06:13:27Z</time>
      </trkpt>
      <trkpt lat="45.29857" lon="5.89988">
        <ele>254.44599914551</ele>
        <time>2017-10-08T06:13:29Z</time>
      </trkpt>
      <trkpt lat="45.29852" lon="5.90008">
        <ele>254.44599914551</ele>
        <time>2017-10-08T06:13:31Z</time>
      </trkpt>
      <trkpt lat="45.29847" lon="5.90023">
        <ele>255.44599914551</ele>
        <time>2017-10-08T06:13:33Z</time>
      </trkpt>
      <trkpt lat="45.29842" lon="5.90038">
        <ele>255.44599914551</ele>
        <time>2017-10-08T06:13:36Z</time>
      </trkpt>
      <trkpt lat="45.29836" lon="5.9004">
        <ele>255.44599914551</ele>
        <time>2017-10-08T06:13:38Z</time>
      </trkpt>
      <trkpt lat="45.29829" lon="5.90037">
        <ele>255.44599914551</ele>
        <time>2017-10-08T06:13:40Z</time>
      </trkpt>
      <trkpt lat="45.29823" lon="5.90021">
        <ele>255.44599914551</ele>
        <time>2017-10-08T06:13:43Z</time>
      </trkpt>
      <trkpt lat="45.29817" lon="5.9001">
        <ele>254.44599914551</ele>
        <time>2017-10-08T06:13:45Z</time>
      </trkpt>
      <trkpt lat="45.29812" lon="5.90001">
        <ele>254.44599914551</ele>
        <time>2017-10-08T06:13:47Z</time>
      </trkpt>
      <trkpt lat="45.29808" lon="5.89993">
        <ele>253.44599914551</ele>
        <time>2017-10-08T06:13:49Z</time>
      </trkpt>
      <trkpt lat="45.29808" lon="5.89985">
        <ele>250.44599914551</ele>
        <time>2017-10-08T06:13:50Z</time>
      </trkpt>
      <trkpt lat="45.29806" lon="5.89975">
        <ele>246.44599914551</ele>
        <time>2017-10-08T06:13:52Z</time>
      </trkpt>
      <trkpt lat="45.298" lon="5.8997">
        <ele>246.44599914551</ele>
        <time>2017-10-08T06:13:54Z</time>
      </trkpt>
      <trkpt lat="45.29792" lon="5.89974">
        <ele>247.44599914551</ele>
        <time>2017-10-08T06:13:56Z</time>
      </trkpt>
      <trkpt lat="45.29788" lon="5.89986">
        <ele>248.44599914551</ele>
        <time>2017-10-08T06:13:58Z</time>
      </trkpt>
      <trkpt lat="45.29776" lon="5.89994">
        <ele>246.44599914551</ele>
        <time>2017-10-08T06:14:01Z</time>
      </trkpt>
      <trkpt lat="45.29772" lon="5.89997">
        <ele>245.44599914551</ele>
        <time>2017-10-08T06:14:02Z</time>
      </trkpt>
      <trkpt lat="45.29761" lon="5.89998">
        <ele>245.44599914551</ele>
        <time>2017-10-08T06:14:04Z</time>
      </trkpt>
      <trkpt lat="45.29752" lon="5.90002">
        <ele>243.44599914551</ele>
        <time>2017-10-08T06:14:06Z</time>
      </trkpt>
      <trkpt lat="45.29745" lon="5.90001">
        <ele>242.44599914551</ele>
        <time>2017-10-08T06:14:08Z</time>
      </trkpt>
      <trkpt lat="45.29739" lon="5.89999">
        <ele>241.44599914551</ele>
        <time>2017-10-08T06:14:10Z</time>
      </trkpt>
      <trkpt lat="45.29734" lon="5.89995">
        <ele>238.44599914551</ele>
        <time>2017-10-08T06:14:12Z</time>
      </trkpt>
      <trkpt lat="45.29722" lon="5.89987">
        <ele>238.44599914551</ele>
        <time>2017-10-08T06:14:15Z</time>
      </trkpt>
      <trkpt lat="45.29717" lon="5.89983">
        <ele>242.44599914551</ele>
        <time>2017-10-08T06:14:19Z</time>
      </trkpt>
      <trkpt lat="45.29715" lon="5.89978">
        <ele>241.44599914551</ele>
        <time>2017-10-08T06:14:23Z</time>
      </trkpt>
      <trkpt lat="45.2971" lon="5.89978">
        <ele>240.44599914551</ele>
        <time>2017-10-08T06:14:25Z</time>
      </trkpt>
      <trkpt lat="45.29699" lon="5.89977">
        <ele>239.44599914551</ele>
        <time>2017-10-08T06:14:27Z</time>
      </trkpt>
      <trkpt lat="45.29691" lon="5.8998">
        <ele>240.44599914551</ele>
        <time>2017-10-08T06:14:29Z</time>
      </trkpt>
      <trkpt lat="45.29683" lon="5.89985">
        <ele>241.44599914551</ele>
        <time>2017-10-08T06:14:31Z</time>
      </trkpt>
      <trkpt lat="45.29675" lon="5.8999">
        <ele>242.44599914551</ele>
        <time>2017-10-08T06:14:33Z</time>
      </trkpt>
      <trkpt lat="45.29666" lon="5.89995">
        <ele>243.44599914551</ele>
        <time>2017-10-08T06:14:35Z</time>
      </trkpt>
      <trkpt lat="45.29656" lon="5.9">
        <ele>243.44599914551</ele>
        <time>2017-10-08T06:14:37Z</time>
      </trkpt>
      <trkpt lat="45.29646" lon="5.90007">
        <ele>242.44599914551</ele>
        <time>2017-10-08T06:14:39Z</time>
      </trkpt>
      <trkpt lat="45.29636" lon="5.90014">
        <ele>242.44599914551</ele>
        <time>2017-10-08T06:14:41Z</time>
      </trkpt>
      <trkpt lat="45.29629" lon="5.90024">
        <ele>241.44599914551</ele>
        <time>2017-10-08T06:14:43Z</time>
      </trkpt>
      <trkpt lat="45.29619" lon="5.90032">
        <ele>238.44599914551</ele>
        <time>2017-10-08T06:14:46Z</time>
      </trkpt>
      <trkpt lat="45.29606" lon="5.9003">
        <ele>241.44599914551</ele>
        <time>2017-10-08T06:14:49Z</time>
      </trkpt>
      <trkpt lat="45.29605" lon="5.90009">
        <ele>242.44599914551</ele>
        <time>2017-10-08T06:14:51Z</time>
      </trkpt>
      <trkpt lat="45.29602" lon="5.9">
        <ele>241.44599914551</ele>
        <time>2017-10-08T06:14:53Z</time>
      </trkpt>
      <trkpt lat="45.29598" lon="5.89992">
        <ele>241.44599914551</ele>
        <time>2017-10-08T06:14:55Z</time>
      </trkpt>
      <trkpt lat="45.29596" lon="5.89985">
        <ele>240.44599914551</ele>
        <time>2017-10-08T06:14:57Z</time>
      </trkpt>
      <trkpt lat="45.29592" lon="5.89967">
        <ele>240.44599914551</ele>
        <time>2017-10-08T06:14:59Z</time>
      </trkpt>
      <trkpt lat="45.29585" lon="5.89951">
        <ele>238.44599914551</ele>
        <time>2017-10-08T06:15:01Z</time>
      </trkpt>
      <trkpt lat="45.29577" lon="5.89942">
        <ele>238.44599914551</ele>
        <time>2017-10-08T06:15:03Z</time>
      </trkpt>
      <trkpt lat="45.29564" lon="5.89936">
        <ele>235.44599914551</ele>
        <time>2017-10-08T06:15:06Z</time>
      </trkpt>
      <trkpt lat="45.29555" lon="5.89937">
        <ele>234.44599914551</ele>
        <time>2017-10-08T06:15:08Z</time>
      </trkpt>
      <trkpt lat="45.29547" lon="5.89935">
        <ele>236.44500732422</ele>
        <time>2017-10-08T06:15:10Z</time>
      </trkpt>
      <trkpt lat="45.29537" lon="5.89927">
        <ele>237.44500732422</ele>
        <time>2017-10-08T06:15:12Z</time>
      </trkpt>
      <trkpt lat="45.29526" lon="5.89926">
        <ele>236.44500732422</ele>
        <time>2017-10-08T06:15:14Z</time>
      </trkpt>
      <trkpt lat="45.29521" lon="5.89923">
        <ele>235.44500732422</ele>
        <time>2017-10-08T06:15:15Z</time>
      </trkpt>
      <trkpt lat="45.29512" lon="5.89916">
        <ele>235.44500732422</ele>
        <time>2017-10-08T06:15:17Z</time>
      </trkpt>
      <trkpt lat="45.29502" lon="5.89903">
        <ele>235.44500732422</ele>
        <time>2017-10-08T06:15:19Z</time>
      </trkpt>
      <trkpt lat="45.29492" lon="5.89893">
        <ele>236.44500732422</ele>
        <time>2017-10-08T06:15:21Z</time>
      </trkpt>
      <trkpt lat="45.29479" lon="5.89882">
        <ele>234.44500732422</ele>
        <time>2017-10-08T06:15:24Z</time>
      </trkpt>
      <trkpt lat="45.29471" lon="5.89871">
        <ele>235.44500732422</ele>
        <time>2017-10-08T06:15:26Z</time>
      </trkpt>
      <trkpt lat="45.29463" lon="5.89862">
        <ele>235.44500732422</ele>
        <time>2017-10-08T06:15:28Z</time>
      </trkpt>
      <trkpt lat="45.29455" lon="5.89854">
        <ele>235.44500732422</ele>
        <time>2017-10-08T06:15:30Z</time>
      </trkpt>
      <trkpt lat="45.29447" lon="5.89847">
        <ele>235.44500732422</ele>
        <time>2017-10-08T06:15:32Z</time>
      </trkpt>
      <trkpt lat="45.29439" lon="5.8984">
        <ele>234.44500732422</ele>
        <time>2017-10-08T06:15:34Z</time>
      </trkpt>
      <trkpt lat="45.2943" lon="5.8983">
        <ele>233.44500732422</ele>
        <time>2017-10-08T06:15:36Z</time>
      </trkpt>
      <trkpt lat="45.29422" lon="5.89823">
        <ele>233.44500732422</ele>
        <time>2017-10-08T06:15:38Z</time>
      </trkpt>
      <trkpt lat="45.29418" lon="5.89817">
        <ele>233.44500732422</ele>
        <time>2017-10-08T06:15:39Z</time>
      </trkpt>
      <trkpt lat="45.29414" lon="5.89812">
        <ele>234.44500732422</ele>
        <time>2017-10-08T06:15:40Z</time>
      </trkpt>
      <trkpt lat="45.29405" lon="5.89804">
        <ele>234.44500732422</ele>
        <time>2017-10-08T06:15:42Z</time>
      </trkpt>
      <trkpt lat="45.29397" lon="5.89797">
        <ele>234.44500732422</ele>
        <time>2017-10-08T06:15:44Z</time>
      </trkpt>
      <trkpt lat="45.29391" lon="5.89793">
        <ele>236.44500732422</ele>
        <time>2017-10-08T06:15:46Z</time>
      </trkpt>
      <trkpt lat="45.29384" lon="5.89785">
        <ele>235.44500732422</ele>
        <time>2017-10-08T06:15:48Z</time>
      </trkpt>
      <trkpt lat="45.29376" lon="5.89777">
        <ele>235.44500732422</ele>
        <time>2017-10-08T06:15:50Z</time>
      </trkpt>
      <trkpt lat="45.29366" lon="5.8977">
        <ele>233.44500732422</ele>
        <time>2017-10-08T06:15:52Z</time>
      </trkpt>
      <trkpt lat="45.29356" lon="5.8976">
        <ele>233.44500732422</ele>
        <time>2017-10-08T06:15:54Z</time>
      </trkpt>
      <trkpt lat="45.29344" lon="5.89754">
        <ele>233.44500732422</ele>
        <time>2017-10-08T06:15:56Z</time>
      </trkpt>
      <trkpt lat="45.29331" lon="5.8975">
        <ele>235.44500732422</ele>
        <time>2017-10-08T06:15:58Z</time>
      </trkpt>
      <trkpt lat="45.29326" lon="5.89748">
        <ele>235.44500732422</ele>
        <time>2017-10-08T06:15:59Z</time>
      </trkpt>
      <trkpt lat="45.29314" lon="5.89746">
        <ele>236.44500732422</ele>
        <time>2017-10-08T06:16:01Z</time>
      </trkpt>
      <trkpt lat="45.29302" lon="5.89745">
        <ele>236.44500732422</ele>
        <time>2017-10-08T06:16:03Z</time>
      </trkpt>
      <trkpt lat="45.2929" lon="5.89743">
        <ele>237.44500732422</ele>
        <time>2017-10-08T06:16:05Z</time>
      </trkpt>
      <trkpt lat="45.29278" lon="5.89742">
        <ele>236.44500732422</ele>
        <time>2017-10-08T06:16:07Z</time>
      </trkpt>
      <trkpt lat="45.29266" lon="5.89739">
        <ele>237.44500732422</ele>
        <time>2017-10-08T06:16:09Z</time>
      </trkpt>
      <trkpt lat="45.29255" lon="5.89735">
        <ele>237.44500732422</ele>
        <time>2017-10-08T06:16:11Z</time>
      </trkpt>
      <trkpt lat="45.29242" lon="5.89732">
        <ele>236.44500732422</ele>
        <time>2017-10-08T06:16:13Z</time>
      </trkpt>
      <trkpt lat="45.29229" lon="5.8973">
        <ele>237.44500732422</ele>
        <time>2017-10-08T06:16:15Z</time>
      </trkpt>
      <trkpt lat="45.29216" lon="5.89727">
        <ele>237.44500732422</ele>
        <time>2017-10-08T06:16:17Z</time>
      </trkpt>
      <trkpt lat="45.29203" lon="5.89725">
        <ele>237.44400024414</ele>
        <time>2017-10-08T06:16:19Z</time>
      </trkpt>
      <trkpt lat="45.2919" lon="5.89722">
        <ele>236.44400024414</ele>
        <time>2017-10-08T06:16:21Z</time>
      </trkpt>
      <trkpt lat="45.29178" lon="5.89718">
        <ele>236.44400024414</ele>
        <time>2017-10-08T06:16:23Z</time>
      </trkpt>
      <trkpt lat="45.29165" lon="5.89715">
        <ele>234.44400024414</ele>
        <time>2017-10-08T06:16:25Z</time>
      </trkpt>
      <trkpt lat="45.29153" lon="5.89713">
        <ele>235.44400024414</ele>
        <time>2017-10-08T06:16:27Z</time>
      </trkpt>
      <trkpt lat="45.29142" lon="5.89709">
        <ele>235.44400024414</ele>
        <time>2017-10-08T06:16:29Z</time>
      </trkpt>
      <trkpt lat="45.2913" lon="5.89706">
        <ele>237.44400024414</ele>
        <time>2017-10-08T06:16:31Z</time>
      </trkpt>
      <trkpt lat="45.29118" lon="5.89703">
        <ele>237.44400024414</ele>
        <time>2017-10-08T06:16:33Z</time>
      </trkpt>
      <trkpt lat="45.29108" lon="5.89702">
        <ele>237.44400024414</ele>
        <time>2017-10-08T06:16:35Z</time>
      </trkpt>
      <trkpt lat="45.29102" lon="5.897">
        <ele>237.44400024414</ele>
        <time>2017-10-08T06:16:36Z</time>
      </trkpt>
      <trkpt lat="45.2909" lon="5.89698">
        <ele>237.44400024414</ele>
        <time>2017-10-08T06:16:38Z</time>
      </trkpt>
      <trkpt lat="45.29078" lon="5.89698">
        <ele>238.44400024414</ele>
        <time>2017-10-08T06:16:40Z</time>
      </trkpt>
      <trkpt lat="45.29066" lon="5.89697">
        <ele>237.44400024414</ele>
        <time>2017-10-08T06:16:42Z</time>
      </trkpt>
      <trkpt lat="45.29054" lon="5.89697">
        <ele>236.44400024414</ele>
        <time>2017-10-08T06:16:44Z</time>
      </trkpt>
      <trkpt lat="45.29042" lon="5.89697">
        <ele>237.44400024414</ele>
        <time>2017-10-08T06:16:46Z</time>
      </trkpt>
      <trkpt lat="45.29031" lon="5.89698">
        <ele>237.44400024414</ele>
        <time>2017-10-08T06:16:48Z</time>
      </trkpt>
      <trkpt lat="45.2902" lon="5.89697">
        <ele>237.44400024414</ele>
        <time>2017-10-08T06:16:50Z</time>
      </trkpt>
      <trkpt lat="45.29009" lon="5.89697">
        <ele>237.44400024414</ele>
        <time>2017-10-08T06:16:52Z</time>
      </trkpt>
      <trkpt lat="45.28999" lon="5.89698">
        <ele>237.44400024414</ele>
        <time>2017-10-08T06:16:54Z</time>
      </trkpt>
      <trkpt lat="45.28992" lon="5.89693">
        <ele>237.44400024414</ele>
        <time>2017-10-08T06:16:56Z</time>
      </trkpt>
      <trkpt lat="45.28991" lon="5.89682">
        <ele>237.44400024414</ele>
        <time>2017-10-08T06:16:58Z</time>
      </trkpt>
      <trkpt lat="45.28996" lon="5.89672">
        <ele>237.44400024414</ele>
        <time>2017-10-08T06:17:00Z</time>
      </trkpt>
      <trkpt lat="45.29002" lon="5.8966">
        <ele>237.44400024414</ele>
        <time>2017-10-08T06:17:02Z</time>
      </trkpt>
      <trkpt lat="45.29006" lon="5.89648">
        <ele>237.44400024414</ele>
        <time>2017-10-08T06:17:04Z</time>
      </trkpt>
      <trkpt lat="45.29011" lon="5.89635">
        <ele>236.44400024414</ele>
        <time>2017-10-08T06:17:06Z</time>
      </trkpt>
      <trkpt lat="45.29017" lon="5.89623">
        <ele>236.44400024414</ele>
        <time>2017-10-08T06:17:08Z</time>
      </trkpt>
      <trkpt lat="45.29021" lon="5.89617">
        <ele>236.44400024414</ele>
        <time>2017-10-08T06:17:09Z</time>
      </trkpt>
      <trkpt lat="45.29027" lon="5.89604">
        <ele>236.44400024414</ele>
        <time>2017-10-08T06:17:11Z</time>
      </trkpt>
      <trkpt lat="45.29034" lon="5.8959">
        <ele>236.44400024414</ele>
        <time>2017-10-08T06:17:13Z</time>
      </trkpt>
      <trkpt lat="45.29039" lon="5.89575">
        <ele>237.44400024414</ele>
        <time>2017-10-08T06:17:15Z</time>
      </trkpt>
      <trkpt lat="45.29045" lon="5.89562">
        <ele>236.44400024414</ele>
        <time>2017-10-08T06:17:17Z</time>
      </trkpt>
      <trkpt lat="45.2905" lon="5.89549">
        <ele>237.44400024414</ele>
        <time>2017-10-08T06:17:19Z</time>
      </trkpt>
      <trkpt lat="45.29055" lon="5.89535">
        <ele>237.44400024414</ele>
        <time>2017-10-08T06:17:21Z</time>
      </trkpt>
      <trkpt lat="45.2906" lon="5.89515">
        <ele>236.44400024414</ele>
        <time>2017-10-08T06:17:24Z</time>
      </trkpt>
      <trkpt lat="45.29059" lon="5.89508">
        <ele>236.44400024414</ele>
        <time>2017-10-08T06:17:25Z</time>
      </trkpt>
      <trkpt lat="45.29058" lon="5.89492">
        <ele>234.44400024414</ele>
        <time>2017-10-08T06:17:27Z</time>
      </trkpt>
      <trkpt lat="45.29057" lon="5.89475">
        <ele>234.44400024414</ele>
        <time>2017-10-08T06:17:29Z</time>
      </trkpt>
      <trkpt lat="45.29054" lon="5.89463">
        <ele>234.44400024414</ele>
        <time>2017-10-08T06:17:31Z</time>
      </trkpt>
      <trkpt lat="45.29055" lon="5.89457">
        <ele>234.44400024414</ele>
        <time>2017-10-08T06:17:32Z</time>
      </trkpt>
      <trkpt lat="45.2905" lon="5.89442">
        <ele>234.44400024414</ele>
        <time>2017-10-08T06:17:34Z</time>
      </trkpt>
      <trkpt lat="45.29044" lon="5.89433">
        <ele>232.44400024414</ele>
        <time>2017-10-08T06:17:36Z</time>
      </trkpt>
      <trkpt lat="45.29035" lon="5.89426">
        <ele>234.44400024414</ele>
        <time>2017-10-08T06:17:38Z</time>
      </trkpt>
      <trkpt lat="45.2903" lon="5.89423">
        <ele>234.44400024414</ele>
        <time>2017-10-08T06:17:39Z</time>
      </trkpt>
      <trkpt lat="45.29021" lon="5.89417">
        <ele>236.44400024414</ele>
        <time>2017-10-08T06:17:41Z</time>
      </trkpt>
      <trkpt lat="45.2901" lon="5.89412">
        <ele>236.44400024414</ele>
        <time>2017-10-08T06:17:43Z</time>
      </trkpt>
      <trkpt lat="45.28996" lon="5.89404">
        <ele>235.44400024414</ele>
        <time>2017-10-08T06:17:46Z</time>
      </trkpt>
      <trkpt lat="45.28986" lon="5.89397">
        <ele>235.44400024414</ele>
        <time>2017-10-08T06:17:48Z</time>
      </trkpt>
      <trkpt lat="45.28976" lon="5.89392">
        <ele>236.44400024414</ele>
        <time>2017-10-08T06:17:50Z</time>
      </trkpt>
      <trkpt lat="45.28967" lon="5.89387">
        <ele>236.44400024414</ele>
        <time>2017-10-08T06:17:52Z</time>
      </trkpt>
      <trkpt lat="45.28958" lon="5.89381">
        <ele>235.44400024414</ele>
        <time>2017-10-08T06:17:54Z</time>
      </trkpt>
      <trkpt lat="45.28949" lon="5.89375">
        <ele>235.44299316406</ele>
        <time>2017-10-08T06:17:56Z</time>
      </trkpt>
      <trkpt lat="45.28939" lon="5.89369">
        <ele>236.44299316406</ele>
        <time>2017-10-08T06:17:58Z</time>
      </trkpt>
      <trkpt lat="45.2893" lon="5.89367">
        <ele>234.44299316406</ele>
        <time>2017-10-08T06:18:00Z</time>
      </trkpt>
      <trkpt lat="45.28919" lon="5.89365">
        <ele>235.44299316406</ele>
        <time>2017-10-08T06:18:02Z</time>
      </trkpt>
      <trkpt lat="45.28909" lon="5.89366">
        <ele>235.44299316406</ele>
        <time>2017-10-08T06:18:04Z</time>
      </trkpt>
      <trkpt lat="45.289" lon="5.89366">
        <ele>235.44299316406</ele>
        <time>2017-10-08T06:18:06Z</time>
      </trkpt>
      <trkpt lat="45.28896" lon="5.89361">
        <ele>235.44299316406</ele>
        <time>2017-10-08T06:18:08Z</time>
      </trkpt>
      <trkpt lat="45.28895" lon="5.89355">
        <ele>238.44299316406</ele>
        <time>2017-10-08T06:18:12Z</time>
      </trkpt>
      <trkpt lat="45.28894" lon="5.89347">
        <ele>236.44299316406</ele>
        <time>2017-10-08T06:18:14Z</time>
      </trkpt>
      <trkpt lat="45.28894" lon="5.89338">
        <ele>235.44299316406</ele>
        <time>2017-10-08T06:18:16Z</time>
      </trkpt>
      <trkpt lat="45.28896" lon="5.8933">
        <ele>236.44299316406</ele>
        <time>2017-10-08T06:18:18Z</time>
      </trkpt>
      <trkpt lat="45.28902" lon="5.89324">
        <ele>235.44299316406</ele>
        <time>2017-10-08T06:18:20Z</time>
      </trkpt>
      <trkpt lat="45.28908" lon="5.89318">
        <ele>235.44299316406</ele>
        <time>2017-10-08T06:18:22Z</time>
      </trkpt>
      <trkpt lat="45.28911" lon="5.89312">
        <ele>235.44299316406</ele>
        <time>2017-10-08T06:18:24Z</time>
      </trkpt>
      <trkpt lat="45.28915" lon="5.89308">
        <ele>235.44299316406</ele>
        <time>2017-10-08T06:18:27Z</time>
      </trkpt>
      <trkpt lat="45.28922" lon="5.89304">
        <ele>234.44299316406</ele>
        <time>2017-10-08T06:18:29Z</time>
      </trkpt>
      <trkpt lat="45.28928" lon="5.89297">
        <ele>234.44299316406</ele>
        <time>2017-10-08T06:18:31Z</time>
      </trkpt>
      <trkpt lat="45.28933" lon="5.89289">
        <ele>236.44299316406</ele>
        <time>2017-10-08T06:18:33Z</time>
      </trkpt>
      <trkpt lat="45.28935" lon="5.8928">
        <ele>237.44299316406</ele>
        <time>2017-10-08T06:18:35Z</time>
      </trkpt>
      <trkpt lat="45.28932" lon="5.89268">
        <ele>239.44299316406</ele>
        <time>2017-10-08T06:18:37Z</time>
      </trkpt>
      <trkpt lat="45.28929" lon="5.89256">
        <ele>239.44299316406</ele>
        <time>2017-10-08T06:18:39Z</time>
      </trkpt>
      <trkpt lat="45.28926" lon="5.89245">
        <ele>239.44299316406</ele>
        <time>2017-10-08T06:18:41Z</time>
      </trkpt>
      <trkpt lat="45.28923" lon="5.89233">
        <ele>239.44299316406</ele>
        <time>2017-10-08T06:18:43Z</time>
      </trkpt>
      <trkpt lat="45.28918" lon="5.89224">
        <ele>238.44299316406</ele>
        <time>2017-10-08T06:18:45Z</time>
      </trkpt>
      <trkpt lat="45.28914" lon="5.89214">
        <ele>237.44299316406</ele>
        <time>2017-10-08T06:18:47Z</time>
      </trkpt>
      <trkpt lat="45.28907" lon="5.89198">
        <ele>236.44299316406</ele>
        <time>2017-10-08T06:18:50Z</time>
      </trkpt>
      <trkpt lat="45.28899" lon="5.89192">
        <ele>237.44299316406</ele>
        <time>2017-10-08T06:18:52Z</time>
      </trkpt>
      <trkpt lat="45.28888" lon="5.89185">
        <ele>237.44299316406</ele>
        <time>2017-10-08T06:18:55Z</time>
      </trkpt>
      <trkpt lat="45.2888" lon="5.89182">
        <ele>236.44299316406</ele>
        <time>2017-10-08T06:18:57Z</time>
      </trkpt>
      <trkpt lat="45.28871" lon="5.89179">
        <ele>237.44299316406</ele>
        <time>2017-10-08T06:18:59Z</time>
      </trkpt>
      <trkpt lat="45.28858" lon="5.89175">
        <ele>238.44299316406</ele>
        <time>2017-10-08T06:19:02Z</time>
      </trkpt>
      <trkpt lat="45.2885" lon="5.89168">
        <ele>239.44299316406</ele>
        <time>2017-10-08T06:19:04Z</time>
      </trkpt>
      <trkpt lat="45.28842" lon="5.8916">
        <ele>241.44299316406</ele>
        <time>2017-10-08T06:19:06Z</time>
      </trkpt>
      <trkpt lat="45.28835" lon="5.89154">
        <ele>243.44299316406</ele>
        <time>2017-10-08T06:19:08Z</time>
      </trkpt>
      <trkpt lat="45.28828" lon="5.89146">
        <ele>242.44299316406</ele>
        <time>2017-10-08T06:19:10Z</time>
      </trkpt>
      <trkpt lat="45.28818" lon="5.89136">
        <ele>246.44299316406</ele>
        <time>2017-10-08T06:19:13Z</time>
      </trkpt>
      <trkpt lat="45.28816" lon="5.89127">
        <ele>245.44299316406</ele>
        <time>2017-10-08T06:19:15Z</time>
      </trkpt>
      <trkpt lat="45.28815" lon="5.89118">
        <ele>244.44299316406</ele>
        <time>2017-10-08T06:19:17Z</time>
      </trkpt>
      <trkpt lat="45.28817" lon="5.89109">
        <ele>244.44299316406</ele>
        <time>2017-10-08T06:19:19Z</time>
      </trkpt>
      <trkpt lat="45.28817" lon="5.89098">
        <ele>244.44299316406</ele>
        <time>2017-10-08T06:19:21Z</time>
      </trkpt>
      <trkpt lat="45.28814" lon="5.89089">
        <ele>242.44299316406</ele>
        <time>2017-10-08T06:19:23Z</time>
      </trkpt>
      <trkpt lat="45.28809" lon="5.89079">
        <ele>243.44299316406</ele>
        <time>2017-10-08T06:19:25Z</time>
      </trkpt>
      <trkpt lat="45.28803" lon="5.89067">
        <ele>241.44299316406</ele>
        <time>2017-10-08T06:19:27Z</time>
      </trkpt>
      <trkpt lat="45.28794" lon="5.89052">
        <ele>240.44299316406</ele>
        <time>2017-10-08T06:19:30Z</time>
      </trkpt>
      <trkpt lat="45.28786" lon="5.89036">
        <ele>241.44299316406</ele>
        <time>2017-10-08T06:19:33Z</time>
      </trkpt>
      <trkpt lat="45.28779" lon="5.89024">
        <ele>242.44299316406</ele>
        <time>2017-10-08T06:19:35Z</time>
      </trkpt>
      <trkpt lat="45.28775" lon="5.89015">
        <ele>241.44299316406</ele>
        <time>2017-10-08T06:19:37Z</time>
      </trkpt>
      <trkpt lat="45.2877" lon="5.89004">
        <ele>241.44299316406</ele>
        <time>2017-10-08T06:19:39Z</time>
      </trkpt>
      <trkpt lat="45.28764" lon="5.88993">
        <ele>242.44299316406</ele>
        <time>2017-10-08T06:19:41Z</time>
      </trkpt>
      <trkpt lat="45.28756" lon="5.88978">
        <ele>244.44299316406</ele>
        <time>2017-10-08T06:19:44Z</time>
      </trkpt>
      <trkpt lat="45.2875" lon="5.88967">
        <ele>245.44299316406</ele>
        <time>2017-10-08T06:19:46Z</time>
      </trkpt>
      <trkpt lat="45.28745" lon="5.88957">
        <ele>245.44299316406</ele>
        <time>2017-10-08T06:19:48Z</time>
      </trkpt>
      <trkpt lat="45.2874" lon="5.88949">
        <ele>244.44200134277</ele>
        <time>2017-10-08T06:19:50Z</time>
      </trkpt>
      <trkpt lat="45.28733" lon="5.8894">
        <ele>244.44200134277</ele>
        <time>2017-10-08T06:19:52Z</time>
      </trkpt>
      <trkpt lat="45.28726" lon="5.8893">
        <ele>245.44200134277</ele>
        <time>2017-10-08T06:19:54Z</time>
      </trkpt>
      <trkpt lat="45.28719" lon="5.8892">
        <ele>247.44200134277</ele>
        <time>2017-10-08T06:19:56Z</time>
      </trkpt>
      <trkpt lat="45.28716" lon="5.88915">
        <ele>246.44200134277</ele>
        <time>2017-10-08T06:19:57Z</time>
      </trkpt>
      <trkpt lat="45.2871" lon="5.88904">
        <ele>247.44200134277</ele>
        <time>2017-10-08T06:19:59Z</time>
      </trkpt>
      <trkpt lat="45.28705" lon="5.88894">
        <ele>247.44200134277</ele>
        <time>2017-10-08T06:20:01Z</time>
      </trkpt>
      <trkpt lat="45.287" lon="5.88884">
        <ele>247.44200134277</ele>
        <time>2017-10-08T06:20:03Z</time>
      </trkpt>
      <trkpt lat="45.28692" lon="5.88869">
        <ele>247.44200134277</ele>
        <time>2017-10-08T06:20:06Z</time>
      </trkpt>
      <trkpt lat="45.28686" lon="5.88859">
        <ele>249.44200134277</ele>
        <time>2017-10-08T06:20:08Z</time>
      </trkpt>
      <trkpt lat="45.28681" lon="5.88851">
        <ele>249.44200134277</ele>
        <time>2017-10-08T06:20:10Z</time>
      </trkpt>
      <trkpt lat="45.28677" lon="5.88843">
        <ele>248.44200134277</ele>
        <time>2017-10-08T06:20:12Z</time>
      </trkpt>
      <trkpt lat="45.28673" lon="5.88834">
        <ele>250.44200134277</ele>
        <time>2017-10-08T06:20:14Z</time>
      </trkpt>
      <trkpt lat="45.28665" lon="5.88822">
        <ele>251.44200134277</ele>
        <time>2017-10-08T06:20:17Z</time>
      </trkpt>
      <trkpt lat="45.28658" lon="5.88814">
        <ele>252.44200134277</ele>
        <time>2017-10-08T06:20:19Z</time>
      </trkpt>
      <trkpt lat="45.28647" lon="5.88803">
        <ele>253.44200134277</ele>
        <time>2017-10-08T06:20:22Z</time>
      </trkpt>
      <trkpt lat="45.2864" lon="5.88795">
        <ele>253.44200134277</ele>
        <time>2017-10-08T06:20:24Z</time>
      </trkpt>
      <trkpt lat="45.28633" lon="5.88789">
        <ele>254.44200134277</ele>
        <time>2017-10-08T06:20:26Z</time>
      </trkpt>
      <trkpt lat="45.28626" lon="5.88781">
        <ele>253.44200134277</ele>
        <time>2017-10-08T06:20:28Z</time>
      </trkpt>
      <trkpt lat="45.28619" lon="5.88774">
        <ele>253.44200134277</ele>
        <time>2017-10-08T06:20:30Z</time>
      </trkpt>
      <trkpt lat="45.28612" lon="5.88767">
        <ele>252.44200134277</ele>
        <time>2017-10-08T06:20:32Z</time>
      </trkpt>
      <trkpt lat="45.28605" lon="5.88759">
        <ele>253.44200134277</ele>
        <time>2017-10-08T06:20:34Z</time>
      </trkpt>
      <trkpt lat="45.28597" lon="5.8875">
        <ele>253.44200134277</ele>
        <time>2017-10-08T06:20:36Z</time>
      </trkpt>
      <trkpt lat="45.28587" lon="5.88737">
        <ele>255.44200134277</ele>
        <time>2017-10-08T06:20:39Z</time>
      </trkpt>
      <trkpt lat="45.28579" lon="5.8873">
        <ele>254.44200134277</ele>
        <time>2017-10-08T06:20:41Z</time>
      </trkpt>
      <trkpt lat="45.28569" lon="5.8872">
        <ele>255.44200134277</ele>
        <time>2017-10-08T06:20:44Z</time>
      </trkpt>
      <trkpt lat="45.28559" lon="5.88707">
        <ele>255.44200134277</ele>
        <time>2017-10-08T06:20:47Z</time>
      </trkpt>
      <trkpt lat="45.28552" lon="5.887">
        <ele>255.44200134277</ele>
        <time>2017-10-08T06:20:49Z</time>
      </trkpt>
      <trkpt lat="45.28546" lon="5.88693">
        <ele>254.44200134277</ele>
        <time>2017-10-08T06:20:51Z</time>
      </trkpt>
      <trkpt lat="45.28539" lon="5.88687">
        <ele>255.44200134277</ele>
        <time>2017-10-08T06:20:53Z</time>
      </trkpt>
      <trkpt lat="45.28532" lon="5.88678">
        <ele>257.44198608398</ele>
        <time>2017-10-08T06:20:55Z</time>
      </trkpt>
      <trkpt lat="45.28528" lon="5.88675">
        <ele>256.44198608398</ele>
        <time>2017-10-08T06:20:57Z</time>
      </trkpt>
      <trkpt lat="45.28522" lon="5.88673">
        <ele>256.44198608398</ele>
        <time>2017-10-08T06:20:59Z</time>
      </trkpt>
      <trkpt lat="45.28516" lon="5.88679">
        <ele>254.44200134277</ele>
        <time>2017-10-08T06:21:01Z</time>
      </trkpt>
      <trkpt lat="45.28511" lon="5.88688">
        <ele>252.44200134277</ele>
        <time>2017-10-08T06:21:03Z</time>
      </trkpt>
      <trkpt lat="45.28505" lon="5.88695">
        <ele>251.44200134277</ele>
        <time>2017-10-08T06:21:05Z</time>
      </trkpt>
      <trkpt lat="45.28498" lon="5.88704">
        <ele>252.44200134277</ele>
        <time>2017-10-08T06:21:07Z</time>
      </trkpt>
      <trkpt lat="45.28491" lon="5.88713">
        <ele>252.44200134277</ele>
        <time>2017-10-08T06:21:09Z</time>
      </trkpt>
      <trkpt lat="45.28484" lon="5.88724">
        <ele>251.44200134277</ele>
        <time>2017-10-08T06:21:11Z</time>
      </trkpt>
      <trkpt lat="45.28473" lon="5.8873">
        <ele>251.44200134277</ele>
        <time>2017-10-08T06:21:13Z</time>
      </trkpt>
      <trkpt lat="45.28463" lon="5.8874">
        <ele>251.44200134277</ele>
        <time>2017-10-08T06:21:15Z</time>
      </trkpt>
      <trkpt lat="45.28454" lon="5.88752">
        <ele>251.44200134277</ele>
        <time>2017-10-08T06:21:17Z</time>
      </trkpt>
      <trkpt lat="45.28443" lon="5.88762">
        <ele>250.44200134277</ele>
        <time>2017-10-08T06:21:19Z</time>
      </trkpt>
      <trkpt lat="45.28435" lon="5.88769">
        <ele>250.44200134277</ele>
        <time>2017-10-08T06:21:21Z</time>
      </trkpt>
      <trkpt lat="45.28425" lon="5.88781">
        <ele>252.44200134277</ele>
        <time>2017-10-08T06:21:23Z</time>
      </trkpt>
      <trkpt lat="45.28417" lon="5.88792">
        <ele>252.44200134277</ele>
        <time>2017-10-08T06:21:25Z</time>
      </trkpt>
      <trkpt lat="45.28413" lon="5.88796">
        <ele>252.44200134277</ele>
        <time>2017-10-08T06:21:26Z</time>
      </trkpt>
      <trkpt lat="45.28403" lon="5.88805">
        <ele>253.44200134277</ele>
        <time>2017-10-08T06:21:28Z</time>
      </trkpt>
      <trkpt lat="45.28395" lon="5.88813">
        <ele>253.44200134277</ele>
        <time>2017-10-08T06:21:30Z</time>
      </trkpt>
      <trkpt lat="45.2838" lon="5.88816">
        <ele>252.44200134277</ele>
        <time>2017-10-08T06:21:33Z</time>
      </trkpt>
      <trkpt lat="45.28373" lon="5.8881">
        <ele>250.44200134277</ele>
        <time>2017-10-08T06:21:35Z</time>
      </trkpt>
      <trkpt lat="45.28362" lon="5.88799">
        <ele>250.44200134277</ele>
        <time>2017-10-08T06:21:37Z</time>
      </trkpt>
      <trkpt lat="45.28351" lon="5.88793">
        <ele>247.44099426269</ele>
        <time>2017-10-08T06:21:39Z</time>
      </trkpt>
      <trkpt lat="45.28339" lon="5.88789">
        <ele>249.44099426269</ele>
        <time>2017-10-08T06:21:41Z</time>
      </trkpt>
      <trkpt lat="45.28326" lon="5.88784">
        <ele>248.44099426269</ele>
        <time>2017-10-08T06:21:43Z</time>
      </trkpt>
      <trkpt lat="45.28314" lon="5.8878">
        <ele>246.44099426269</ele>
        <time>2017-10-08T06:21:45Z</time>
      </trkpt>
      <trkpt lat="45.28301" lon="5.88773">
        <ele>244.44099426269</ele>
        <time>2017-10-08T06:21:47Z</time>
      </trkpt>
      <trkpt lat="45.28293" lon="5.88768">
        <ele>245.44099426269</ele>
        <time>2017-10-08T06:21:48Z</time>
      </trkpt>
      <trkpt lat="45.2828" lon="5.88761">
        <ele>244.44099426269</ele>
        <time>2017-10-08T06:21:50Z</time>
      </trkpt>
      <trkpt lat="45.28268" lon="5.88754">
        <ele>245.44099426269</ele>
        <time>2017-10-08T06:21:52Z</time>
      </trkpt>
      <trkpt lat="45.28259" lon="5.88751">
        <ele>244.44099426269</ele>
        <time>2017-10-08T06:21:54Z</time>
      </trkpt>
      <trkpt lat="45.28247" lon="5.88753">
        <ele>244.44099426269</ele>
        <time>2017-10-08T06:21:56Z</time>
      </trkpt>
      <trkpt lat="45.28234" lon="5.88751">
        <ele>244.44099426269</ele>
        <time>2017-10-08T06:21:58Z</time>
      </trkpt>
      <trkpt lat="45.28228" lon="5.88736">
        <ele>245.44099426269</ele>
        <time>2017-10-08T06:22:00Z</time>
      </trkpt>
      <trkpt lat="45.28217" lon="5.88725">
        <ele>245.44099426269</ele>
        <time>2017-10-08T06:22:02Z</time>
      </trkpt>
      <trkpt lat="45.28213" lon="5.8872">
        <ele>244.44099426269</ele>
        <time>2017-10-08T06:22:03Z</time>
      </trkpt>
      <trkpt lat="45.28202" lon="5.88712">
        <ele>242.44099426269</ele>
        <time>2017-10-08T06:22:06Z</time>
      </trkpt>
      <trkpt lat="45.28193" lon="5.887">
        <ele>242.44099426269</ele>
        <time>2017-10-08T06:22:08Z</time>
      </trkpt>
      <trkpt lat="45.28184" lon="5.88689">
        <ele>244.44099426269</ele>
        <time>2017-10-08T06:22:10Z</time>
      </trkpt>
      <trkpt lat="45.28176" lon="5.8868">
        <ele>244.44099426269</ele>
        <time>2017-10-08T06:22:12Z</time>
      </trkpt>
      <trkpt lat="45.28166" lon="5.88672">
        <ele>244.44099426269</ele>
        <time>2017-10-08T06:22:14Z</time>
      </trkpt>
      <trkpt lat="45.28162" lon="5.88666">
        <ele>246.44099426269</ele>
        <time>2017-10-08T06:22:15Z</time>
      </trkpt>
      <trkpt lat="45.28153" lon="5.88655">
        <ele>245.44099426269</ele>
        <time>2017-10-08T06:22:17Z</time>
      </trkpt>
      <trkpt lat="45.28144" lon="5.88643">
        <ele>246.44099426269</ele>
        <time>2017-10-08T06:22:19Z</time>
      </trkpt>
      <trkpt lat="45.28136" lon="5.8863">
        <ele>248.44099426269</ele>
        <time>2017-10-08T06:22:21Z</time>
      </trkpt>
      <trkpt lat="45.28124" lon="5.88628">
        <ele>247.44099426269</ele>
        <time>2017-10-08T06:22:24Z</time>
      </trkpt>
      <trkpt lat="45.28116" lon="5.88642">
        <ele>251.44099426269</ele>
        <time>2017-10-08T06:22:27Z</time>
      </trkpt>
      <trkpt lat="45.2811" lon="5.88653">
        <ele>250.44099426269</ele>
        <time>2017-10-08T06:22:29Z</time>
      </trkpt>
      <trkpt lat="45.28103" lon="5.88666">
        <ele>251.44099426269</ele>
        <time>2017-10-08T06:22:31Z</time>
      </trkpt>
      <trkpt lat="45.28095" lon="5.88679">
        <ele>252.44099426269</ele>
        <time>2017-10-08T06:22:33Z</time>
      </trkpt>
      <trkpt lat="45.28089" lon="5.88688">
        <ele>250.44099426269</ele>
        <time>2017-10-08T06:22:35Z</time>
      </trkpt>
      <trkpt lat="45.2808" lon="5.88702">
        <ele>249.44099426269</ele>
        <time>2017-10-08T06:22:38Z</time>
      </trkpt>
    </trkseg>
  </trk>
</gpx>